<?xml version="1.0" encoding="UTF-8" standalone="no" ?>
<gpx xmlns="http://www.topografix.com/GPX/1/1" xmlns:xsi="http://www.w3.org/2001/XMLSchema-instance" xsi:schemaLocation="http://www.topografix.com/GPX/1/1 http://www.topografix.com/GPX/1/1/gpx.xsd" version="1.1" creator="VisuGPX - https://www.visugpx.com">
  <metadata>
    <name>Trois Pignons VTT</name>
    <desc><![CDATA[Sortie ludico technique dans les Trois Pignons au départ de Noisy]]></desc>
  </metadata>
  <trk>
    <name><![CDATA[Trois Pignons VTT_1]]></name>
    <trkseg>
      <trkpt lat="48.3881" lon="2.51903">
        <ele>90.6</ele>
        <time>2012-12-27T07:51:37.000Z</time>
      </trkpt>
      <trkpt lat="48.3881" lon="2.519">
        <ele>90.6</ele>
        <time>2012-12-27T07:51:38.000Z</time>
      </trkpt>
      <trkpt lat="48.38811" lon="2.51895">
        <ele>90.6</ele>
        <time>2012-12-27T07:51:40.000Z</time>
      </trkpt>
      <trkpt lat="48.38819" lon="2.51871">
        <ele>90.8</ele>
        <time>2012-12-27T07:51:47.000Z</time>
      </trkpt>
      <trkpt lat="48.3882" lon="2.51835">
        <ele>90.8</ele>
        <time>2012-12-27T07:51:57.000Z</time>
      </trkpt>
      <trkpt lat="48.38839" lon="2.51753">
        <ele>90.8</ele>
        <time>2012-12-27T07:52:17.000Z</time>
      </trkpt>
      <trkpt lat="48.38854" lon="2.5172">
        <ele>90.8</ele>
        <time>2012-12-27T07:52:27.000Z</time>
      </trkpt>
      <trkpt lat="48.38864" lon="2.51707">
        <ele>90.8</ele>
        <time>2012-12-27T07:52:32.000Z</time>
      </trkpt>
      <trkpt lat="48.38876" lon="2.51703">
        <ele>90.8</ele>
        <time>2012-12-27T07:52:37.000Z</time>
      </trkpt>
      <trkpt lat="48.38885" lon="2.51706">
        <ele>90.8</ele>
        <time>2012-12-27T07:52:40.000Z</time>
      </trkpt>
      <trkpt lat="48.38893" lon="2.51715">
        <ele>90.8</ele>
        <time>2012-12-27T07:52:43.000Z</time>
      </trkpt>
      <trkpt lat="48.38921" lon="2.51758">
        <ele>90.8</ele>
        <time>2012-12-27T07:52:56.000Z</time>
      </trkpt>
      <trkpt lat="48.3897" lon="2.51854">
        <ele>90.8</ele>
        <time>2012-12-27T07:53:20.000Z</time>
      </trkpt>
      <trkpt lat="48.39006" lon="2.51906">
        <ele>91.2</ele>
        <time>2012-12-27T07:53:35.000Z</time>
      </trkpt>
      <trkpt lat="48.39012" lon="2.51922">
        <ele>92.8</ele>
        <time>2012-12-27T07:53:39.000Z</time>
      </trkpt>
      <trkpt lat="48.3902" lon="2.51947">
        <ele>92.8</ele>
        <time>2012-12-27T07:53:45.000Z</time>
      </trkpt>
      <trkpt lat="48.39024" lon="2.51972">
        <ele>92.8</ele>
        <time>2012-12-27T07:53:51.000Z</time>
      </trkpt>
      <trkpt lat="48.39026" lon="2.51976">
        <ele>92.8</ele>
        <time>2012-12-27T07:53:52.000Z</time>
      </trkpt>
      <trkpt lat="48.39028" lon="2.5199">
        <ele>92.8</ele>
        <time>2012-12-27T07:53:55.000Z</time>
      </trkpt>
      <trkpt lat="48.39034" lon="2.52009">
        <ele>92.8</ele>
        <time>2012-12-27T07:54:00.000Z</time>
      </trkpt>
      <trkpt lat="48.39036" lon="2.52022">
        <ele>92.8</ele>
        <time>2012-12-27T07:54:04.000Z</time>
      </trkpt>
      <trkpt lat="48.39038" lon="2.5203">
        <ele>92.8</ele>
        <time>2012-12-27T07:54:06.000Z</time>
      </trkpt>
      <trkpt lat="48.39043" lon="2.52035">
        <ele>93.4</ele>
        <time>2012-12-27T07:54:08.000Z</time>
      </trkpt>
      <trkpt lat="48.39054" lon="2.52038">
        <ele>95</ele>
        <time>2012-12-27T07:54:12.000Z</time>
      </trkpt>
      <trkpt lat="48.39067" lon="2.52044">
        <ele>95</ele>
        <time>2012-12-27T07:54:17.000Z</time>
      </trkpt>
      <trkpt lat="48.39075" lon="2.5205">
        <ele>95</ele>
        <time>2012-12-27T07:54:20.000Z</time>
      </trkpt>
      <trkpt lat="48.39083" lon="2.52054">
        <ele>95</ele>
        <time>2012-12-27T07:54:23.000Z</time>
      </trkpt>
      <trkpt lat="48.39109" lon="2.52056">
        <ele>95</ele>
        <time>2012-12-27T07:54:33.000Z</time>
      </trkpt>
      <trkpt lat="48.39111" lon="2.52059">
        <ele>95</ele>
        <time>2012-12-27T07:54:34.000Z</time>
      </trkpt>
      <trkpt lat="48.39114" lon="2.52065">
        <ele>95</ele>
        <time>2012-12-27T07:54:36.000Z</time>
      </trkpt>
      <trkpt lat="48.39118" lon="2.52072">
        <ele>95</ele>
        <time>2012-12-27T07:54:40.000Z</time>
      </trkpt>
      <trkpt lat="48.39121" lon="2.52072">
        <ele>95.4</ele>
        <time>2012-12-27T07:54:41.000Z</time>
      </trkpt>
      <trkpt lat="48.39123" lon="2.52073">
        <ele>95.8</ele>
        <time>2012-12-27T07:54:42.000Z</time>
      </trkpt>
      <trkpt lat="48.39128" lon="2.52076">
        <ele>96.6</ele>
        <time>2012-12-27T07:54:44.000Z</time>
      </trkpt>
      <trkpt lat="48.39131" lon="2.52078">
        <ele>97.2</ele>
        <time>2012-12-27T07:54:45.000Z</time>
      </trkpt>
      <trkpt lat="48.39133" lon="2.5208">
        <ele>97.2</ele>
        <time>2012-12-27T07:54:46.000Z</time>
      </trkpt>
      <trkpt lat="48.39134" lon="2.52083">
        <ele>97.2</ele>
        <time>2012-12-27T07:54:47.000Z</time>
      </trkpt>
      <trkpt lat="48.39139" lon="2.52093">
        <ele>97.2</ele>
        <time>2012-12-27T07:54:51.000Z</time>
      </trkpt>
      <trkpt lat="48.3915" lon="2.52096">
        <ele>97.2</ele>
        <time>2012-12-27T07:54:56.000Z</time>
      </trkpt>
      <trkpt lat="48.39159" lon="2.521">
        <ele>97.6</ele>
        <time>2012-12-27T07:54:59.000Z</time>
      </trkpt>
      <trkpt lat="48.39162" lon="2.521">
        <ele>98</ele>
        <time>2012-12-27T07:55:00.000Z</time>
      </trkpt>
      <trkpt lat="48.39164" lon="2.52102">
        <ele>98.4</ele>
        <time>2012-12-27T07:55:01.000Z</time>
      </trkpt>
      <trkpt lat="48.39167" lon="2.52102">
        <ele>98.8</ele>
        <time>2012-12-27T07:55:02.000Z</time>
      </trkpt>
      <trkpt lat="48.39169" lon="2.52102">
        <ele>99.2</ele>
        <time>2012-12-27T07:55:03.000Z</time>
      </trkpt>
      <trkpt lat="48.39179" lon="2.52109">
        <ele>99.2</ele>
        <time>2012-12-27T07:55:08.000Z</time>
      </trkpt>
      <trkpt lat="48.39181" lon="2.52108">
        <ele>99.2</ele>
        <time>2012-12-27T07:55:09.000Z</time>
      </trkpt>
      <trkpt lat="48.39187" lon="2.52103">
        <ele>99.2</ele>
        <time>2012-12-27T07:55:13.000Z</time>
      </trkpt>
      <trkpt lat="48.39189" lon="2.52103">
        <ele>99.6</ele>
        <time>2012-12-27T07:55:14.000Z</time>
      </trkpt>
      <trkpt lat="48.39194" lon="2.52102">
        <ele>100.4</ele>
        <time>2012-12-27T07:55:16.000Z</time>
      </trkpt>
      <trkpt lat="48.39197" lon="2.52101">
        <ele>101.2</ele>
        <time>2012-12-27T07:55:18.000Z</time>
      </trkpt>
      <trkpt lat="48.39202" lon="2.52091">
        <ele>101.2</ele>
        <time>2012-12-27T07:55:24.000Z</time>
      </trkpt>
      <trkpt lat="48.39203" lon="2.52089">
        <ele>101.6</ele>
        <time>2012-12-27T07:55:25.000Z</time>
      </trkpt>
      <trkpt lat="48.39204" lon="2.52087">
        <ele>102</ele>
        <time>2012-12-27T07:55:26.000Z</time>
      </trkpt>
      <trkpt lat="48.39205" lon="2.52084">
        <ele>102.4</ele>
        <time>2012-12-27T07:55:27.000Z</time>
      </trkpt>
      <trkpt lat="48.3921" lon="2.52078">
        <ele>103.2</ele>
        <time>2012-12-27T07:55:30.000Z</time>
      </trkpt>
      <trkpt lat="48.39219" lon="2.52069">
        <ele>103.2</ele>
        <time>2012-12-27T07:55:35.000Z</time>
      </trkpt>
      <trkpt lat="48.3922" lon="2.52066">
        <ele>103.2</ele>
        <time>2012-12-27T07:55:36.000Z</time>
      </trkpt>
      <trkpt lat="48.39224" lon="2.52062">
        <ele>103.6</ele>
        <time>2012-12-27T07:55:38.000Z</time>
      </trkpt>
      <trkpt lat="48.39226" lon="2.5206">
        <ele>104.2</ele>
        <time>2012-12-27T07:55:39.000Z</time>
      </trkpt>
      <trkpt lat="48.39227" lon="2.52057">
        <ele>104.6</ele>
        <time>2012-12-27T07:55:40.000Z</time>
      </trkpt>
      <trkpt lat="48.39229" lon="2.52055">
        <ele>105</ele>
        <time>2012-12-27T07:55:41.000Z</time>
      </trkpt>
      <trkpt lat="48.3923" lon="2.52052">
        <ele>105.4</ele>
        <time>2012-12-27T07:55:42.000Z</time>
      </trkpt>
      <trkpt lat="48.39239" lon="2.52043">
        <ele>105.4</ele>
        <time>2012-12-27T07:55:47.000Z</time>
      </trkpt>
      <trkpt lat="48.39241" lon="2.52036">
        <ele>105.8</ele>
        <time>2012-12-27T07:55:50.000Z</time>
      </trkpt>
      <trkpt lat="48.39248" lon="2.52017">
        <ele>107.6</ele>
        <time>2012-12-27T07:55:56.000Z</time>
      </trkpt>
      <trkpt lat="48.39259" lon="2.51985">
        <ele>107.6</ele>
        <time>2012-12-27T07:56:06.000Z</time>
      </trkpt>
      <trkpt lat="48.39264" lon="2.51978">
        <ele>108</ele>
        <time>2012-12-27T07:56:09.000Z</time>
      </trkpt>
      <trkpt lat="48.39265" lon="2.51974">
        <ele>109.2</ele>
        <time>2012-12-27T07:56:11.000Z</time>
      </trkpt>
      <trkpt lat="48.39265" lon="2.51971">
        <ele>109.6</ele>
        <time>2012-12-27T07:56:12.000Z</time>
      </trkpt>
      <trkpt lat="48.39265" lon="2.51969">
        <ele>109.6</ele>
        <time>2012-12-27T07:56:13.000Z</time>
      </trkpt>
      <trkpt lat="48.39268" lon="2.51964">
        <ele>109.6</ele>
        <time>2012-12-27T07:56:15.000Z</time>
      </trkpt>
      <trkpt lat="48.39269" lon="2.51958">
        <ele>110.2</ele>
        <time>2012-12-27T07:56:17.000Z</time>
      </trkpt>
      <trkpt lat="48.39271" lon="2.51956">
        <ele>110.6</ele>
        <time>2012-12-27T07:56:18.000Z</time>
      </trkpt>
      <trkpt lat="48.39272" lon="2.51955">
        <ele>111</ele>
        <time>2012-12-27T07:56:19.000Z</time>
      </trkpt>
      <trkpt lat="48.39273" lon="2.51952">
        <ele>111.4</ele>
        <time>2012-12-27T07:56:20.000Z</time>
      </trkpt>
      <trkpt lat="48.39277" lon="2.51944">
        <ele>111.8</ele>
        <time>2012-12-27T07:56:24.000Z</time>
      </trkpt>
      <trkpt lat="48.39279" lon="2.51942">
        <ele>111.8</ele>
        <time>2012-12-27T07:56:25.000Z</time>
      </trkpt>
      <trkpt lat="48.39282" lon="2.51937">
        <ele>111.8</ele>
        <time>2012-12-27T07:56:27.000Z</time>
      </trkpt>
      <trkpt lat="48.39283" lon="2.51936">
        <ele>111.8</ele>
        <time>2012-12-27T07:56:28.000Z</time>
      </trkpt>
      <trkpt lat="48.39287" lon="2.51929">
        <ele>112.2</ele>
        <time>2012-12-27T07:56:31.000Z</time>
      </trkpt>
      <trkpt lat="48.3929" lon="2.51924">
        <ele>113.6</ele>
        <time>2012-12-27T07:56:34.000Z</time>
      </trkpt>
      <trkpt lat="48.39292" lon="2.51921">
        <ele>114</ele>
        <time>2012-12-27T07:56:35.000Z</time>
      </trkpt>
      <trkpt lat="48.39297" lon="2.51916">
        <ele>114</ele>
        <time>2012-12-27T07:56:38.000Z</time>
      </trkpt>
      <trkpt lat="48.39309" lon="2.51909">
        <ele>114.4</ele>
        <time>2012-12-27T07:56:44.000Z</time>
      </trkpt>
      <trkpt lat="48.39309" lon="2.51908">
        <ele>114.8</ele>
        <time>2012-12-27T07:56:45.000Z</time>
      </trkpt>
      <trkpt lat="48.39311" lon="2.51907">
        <ele>115.4</ele>
        <time>2012-12-27T07:56:46.000Z</time>
      </trkpt>
      <trkpt lat="48.39312" lon="2.51906">
        <ele>115.8</ele>
        <time>2012-12-27T07:56:47.000Z</time>
      </trkpt>
      <trkpt lat="48.39314" lon="2.51904">
        <ele>116.2</ele>
        <time>2012-12-27T07:56:48.000Z</time>
      </trkpt>
      <trkpt lat="48.39316" lon="2.51903">
        <ele>116.2</ele>
        <time>2012-12-27T07:56:49.000Z</time>
      </trkpt>
      <trkpt lat="48.39323" lon="2.51892">
        <ele>116.6</ele>
        <time>2012-12-27T07:56:54.000Z</time>
      </trkpt>
      <trkpt lat="48.39325" lon="2.51893">
        <ele>117</ele>
        <time>2012-12-27T07:56:55.000Z</time>
      </trkpt>
      <trkpt lat="48.39327" lon="2.51893">
        <ele>117.4</ele>
        <time>2012-12-27T07:56:56.000Z</time>
      </trkpt>
      <trkpt lat="48.39328" lon="2.51892">
        <ele>117.8</ele>
        <time>2012-12-27T07:56:57.000Z</time>
      </trkpt>
      <trkpt lat="48.3933" lon="2.51892">
        <ele>118.2</ele>
        <time>2012-12-27T07:56:58.000Z</time>
      </trkpt>
      <trkpt lat="48.39342" lon="2.51889">
        <ele>118.2</ele>
        <time>2012-12-27T07:57:04.000Z</time>
      </trkpt>
      <trkpt lat="48.39344" lon="2.51886">
        <ele>118.6</ele>
        <time>2012-12-27T07:57:05.000Z</time>
      </trkpt>
      <trkpt lat="48.3935" lon="2.51877">
        <ele>120.2</ele>
        <time>2012-12-27T07:57:09.000Z</time>
      </trkpt>
      <trkpt lat="48.39352" lon="2.51864">
        <ele>120.2</ele>
        <time>2012-12-27T07:57:14.000Z</time>
      </trkpt>
      <trkpt lat="48.39352" lon="2.51861">
        <ele>120.2</ele>
        <time>2012-12-27T07:57:15.000Z</time>
      </trkpt>
      <trkpt lat="48.39353" lon="2.5185">
        <ele>120.6</ele>
        <time>2012-12-27T07:57:20.000Z</time>
      </trkpt>
      <trkpt lat="48.39353" lon="2.51848">
        <ele>121</ele>
        <time>2012-12-27T07:57:21.000Z</time>
      </trkpt>
      <trkpt lat="48.39354" lon="2.51845">
        <ele>121.4</ele>
        <time>2012-12-27T07:57:22.000Z</time>
      </trkpt>
      <trkpt lat="48.39355" lon="2.51843">
        <ele>121.8</ele>
        <time>2012-12-27T07:57:23.000Z</time>
      </trkpt>
      <trkpt lat="48.39356" lon="2.51839">
        <ele>122.2</ele>
        <time>2012-12-27T07:57:24.000Z</time>
      </trkpt>
      <trkpt lat="48.39367" lon="2.5182">
        <ele>122.2</ele>
        <time>2012-12-27T07:57:30.000Z</time>
      </trkpt>
      <trkpt lat="48.3937" lon="2.51811">
        <ele>122.2</ele>
        <time>2012-12-27T07:57:34.000Z</time>
      </trkpt>
      <trkpt lat="48.39377" lon="2.51807">
        <ele>123</ele>
        <time>2012-12-27T07:57:42.000Z</time>
      </trkpt>
      <trkpt lat="48.39378" lon="2.51804">
        <ele>123.8</ele>
        <time>2012-12-27T07:57:44.000Z</time>
      </trkpt>
      <trkpt lat="48.39379" lon="2.51803">
        <ele>124.2</ele>
        <time>2012-12-27T07:57:45.000Z</time>
      </trkpt>
      <trkpt lat="48.39381" lon="2.51802">
        <ele>124.2</ele>
        <time>2012-12-27T07:57:48.000Z</time>
      </trkpt>
      <trkpt lat="48.39383" lon="2.51799">
        <ele>124.2</ele>
        <time>2012-12-27T07:57:53.000Z</time>
      </trkpt>
      <trkpt lat="48.39386" lon="2.51793">
        <ele>124.2</ele>
        <time>2012-12-27T07:57:56.000Z</time>
      </trkpt>
      <trkpt lat="48.39386" lon="2.51792">
        <ele>124.2</ele>
        <time>2012-12-27T07:57:57.000Z</time>
      </trkpt>
      <trkpt lat="48.39389" lon="2.5179">
        <ele>124.2</ele>
        <time>2012-12-27T07:57:58.000Z</time>
      </trkpt>
      <trkpt lat="48.3939" lon="2.51789">
        <ele>124.2</ele>
        <time>2012-12-27T07:57:59.000Z</time>
      </trkpt>
      <trkpt lat="48.39395" lon="2.51778">
        <ele>124.2</ele>
        <time>2012-12-27T07:58:04.000Z</time>
      </trkpt>
      <trkpt lat="48.39395" lon="2.51774">
        <ele>123.8</ele>
        <time>2012-12-27T07:58:05.000Z</time>
      </trkpt>
      <trkpt lat="48.39397" lon="2.5177">
        <ele>123.2</ele>
        <time>2012-12-27T07:58:06.000Z</time>
      </trkpt>
      <trkpt lat="48.39396" lon="2.51767">
        <ele>122.8</ele>
        <time>2012-12-27T07:58:07.000Z</time>
      </trkpt>
      <trkpt lat="48.39396" lon="2.51762">
        <ele>122.2</ele>
        <time>2012-12-27T07:58:08.000Z</time>
      </trkpt>
      <trkpt lat="48.39396" lon="2.51757">
        <ele>121.6</ele>
        <time>2012-12-27T07:58:09.000Z</time>
      </trkpt>
      <trkpt lat="48.39395" lon="2.51755">
        <ele>121</ele>
        <time>2012-12-27T07:58:10.000Z</time>
      </trkpt>
      <trkpt lat="48.39396" lon="2.51752">
        <ele>120.4</ele>
        <time>2012-12-27T07:58:11.000Z</time>
      </trkpt>
      <trkpt lat="48.39397" lon="2.51749">
        <ele>119.8</ele>
        <time>2012-12-27T07:58:12.000Z</time>
      </trkpt>
      <trkpt lat="48.39397" lon="2.51747">
        <ele>119.2</ele>
        <time>2012-12-27T07:58:13.000Z</time>
      </trkpt>
      <trkpt lat="48.39397" lon="2.51745">
        <ele>118.6</ele>
        <time>2012-12-27T07:58:14.000Z</time>
      </trkpt>
      <trkpt lat="48.39395" lon="2.51744">
        <ele>117.2</ele>
        <time>2012-12-27T07:58:15.000Z</time>
      </trkpt>
      <trkpt lat="48.39393" lon="2.51742">
        <ele>117.2</ele>
        <time>2012-12-27T07:58:16.000Z</time>
      </trkpt>
      <trkpt lat="48.39389" lon="2.51738">
        <ele>116.4</ele>
        <time>2012-12-27T07:58:18.000Z</time>
      </trkpt>
      <trkpt lat="48.39385" lon="2.51734">
        <ele>115.6</ele>
        <time>2012-12-27T07:58:20.000Z</time>
      </trkpt>
      <trkpt lat="48.39383" lon="2.51732">
        <ele>115.2</ele>
        <time>2012-12-27T07:58:21.000Z</time>
      </trkpt>
      <trkpt lat="48.3938" lon="2.5173">
        <ele>115.2</ele>
        <time>2012-12-27T07:58:22.000Z</time>
      </trkpt>
      <trkpt lat="48.39373" lon="2.51725">
        <ele>114.8</ele>
        <time>2012-12-27T07:58:25.000Z</time>
      </trkpt>
      <trkpt lat="48.39372" lon="2.51725">
        <ele>114.4</ele>
        <time>2012-12-27T07:58:26.000Z</time>
      </trkpt>
      <trkpt lat="48.39371" lon="2.51723">
        <ele>114</ele>
        <time>2012-12-27T07:58:27.000Z</time>
      </trkpt>
      <trkpt lat="48.3937" lon="2.51722">
        <ele>113.6</ele>
        <time>2012-12-27T07:58:28.000Z</time>
      </trkpt>
      <trkpt lat="48.3937" lon="2.51721">
        <ele>113.2</ele>
        <time>2012-12-27T07:58:29.000Z</time>
      </trkpt>
      <trkpt lat="48.39369" lon="2.51718">
        <ele>113.2</ele>
        <time>2012-12-27T07:58:31.000Z</time>
      </trkpt>
      <trkpt lat="48.39371" lon="2.51708">
        <ele>111.8</ele>
        <time>2012-12-27T07:58:34.000Z</time>
      </trkpt>
      <trkpt lat="48.39371" lon="2.51704">
        <ele>111.4</ele>
        <time>2012-12-27T07:58:35.000Z</time>
      </trkpt>
      <trkpt lat="48.3937" lon="2.517">
        <ele>110.8</ele>
        <time>2012-12-27T07:58:36.000Z</time>
      </trkpt>
      <trkpt lat="48.39369" lon="2.51697">
        <ele>110.4</ele>
        <time>2012-12-27T07:58:37.000Z</time>
      </trkpt>
      <trkpt lat="48.39368" lon="2.51693">
        <ele>109.8</ele>
        <time>2012-12-27T07:58:38.000Z</time>
      </trkpt>
      <trkpt lat="48.39363" lon="2.51685">
        <ele>108.4</ele>
        <time>2012-12-27T07:58:40.000Z</time>
      </trkpt>
      <trkpt lat="48.3936" lon="2.51675">
        <ele>107.6</ele>
        <time>2012-12-27T07:58:42.000Z</time>
      </trkpt>
      <trkpt lat="48.39358" lon="2.5167">
        <ele>107.2</ele>
        <time>2012-12-27T07:58:43.000Z</time>
      </trkpt>
      <trkpt lat="48.39354" lon="2.51666">
        <ele>106.8</ele>
        <time>2012-12-27T07:58:44.000Z</time>
      </trkpt>
      <trkpt lat="48.39351" lon="2.5166">
        <ele>106.2</ele>
        <time>2012-12-27T07:58:45.000Z</time>
      </trkpt>
      <trkpt lat="48.39349" lon="2.51656">
        <ele>105.6</ele>
        <time>2012-12-27T07:58:46.000Z</time>
      </trkpt>
      <trkpt lat="48.39348" lon="2.51653">
        <ele>105.2</ele>
        <time>2012-12-27T07:58:47.000Z</time>
      </trkpt>
      <trkpt lat="48.39347" lon="2.51652">
        <ele>104.6</ele>
        <time>2012-12-27T07:58:48.000Z</time>
      </trkpt>
      <trkpt lat="48.39343" lon="2.51647">
        <ele>104.6</ele>
        <time>2012-12-27T07:58:49.000Z</time>
      </trkpt>
      <trkpt lat="48.3934" lon="2.51645">
        <ele>104.6</ele>
        <time>2012-12-27T07:58:50.000Z</time>
      </trkpt>
      <trkpt lat="48.39337" lon="2.51643">
        <ele>104.2</ele>
        <time>2012-12-27T07:58:51.000Z</time>
      </trkpt>
      <trkpt lat="48.39334" lon="2.5164">
        <ele>103.6</ele>
        <time>2012-12-27T07:58:52.000Z</time>
      </trkpt>
      <trkpt lat="48.39332" lon="2.51635">
        <ele>103.2</ele>
        <time>2012-12-27T07:58:53.000Z</time>
      </trkpt>
      <trkpt lat="48.39323" lon="2.51623">
        <ele>102.2</ele>
        <time>2012-12-27T07:58:56.000Z</time>
      </trkpt>
      <trkpt lat="48.39319" lon="2.51613">
        <ele>101.8</ele>
        <time>2012-12-27T07:58:58.000Z</time>
      </trkpt>
      <trkpt lat="48.39316" lon="2.51609">
        <ele>101.4</ele>
        <time>2012-12-27T07:58:59.000Z</time>
      </trkpt>
      <trkpt lat="48.39313" lon="2.51606">
        <ele>101</ele>
        <time>2012-12-27T07:59:00.000Z</time>
      </trkpt>
      <trkpt lat="48.39306" lon="2.51599">
        <ele>100.2</ele>
        <time>2012-12-27T07:59:02.000Z</time>
      </trkpt>
      <trkpt lat="48.39305" lon="2.51596">
        <ele>100.2</ele>
        <time>2012-12-27T07:59:03.000Z</time>
      </trkpt>
      <trkpt lat="48.39302" lon="2.51594">
        <ele>99.8</ele>
        <time>2012-12-27T07:59:04.000Z</time>
      </trkpt>
      <trkpt lat="48.393" lon="2.51593">
        <ele>99.2</ele>
        <time>2012-12-27T07:59:05.000Z</time>
      </trkpt>
      <trkpt lat="48.39297" lon="2.51592">
        <ele>98.8</ele>
        <time>2012-12-27T07:59:06.000Z</time>
      </trkpt>
      <trkpt lat="48.39294" lon="2.51591">
        <ele>98.4</ele>
        <time>2012-12-27T07:59:07.000Z</time>
      </trkpt>
      <trkpt lat="48.39286" lon="2.51584">
        <ele>97.8</ele>
        <time>2012-12-27T07:59:10.000Z</time>
      </trkpt>
      <trkpt lat="48.39276" lon="2.51575">
        <ele>97.4</ele>
        <time>2012-12-27T07:59:13.000Z</time>
      </trkpt>
      <trkpt lat="48.39274" lon="2.5157">
        <ele>97</ele>
        <time>2012-12-27T07:59:14.000Z</time>
      </trkpt>
      <trkpt lat="48.39273" lon="2.51563">
        <ele>96.6</ele>
        <time>2012-12-27T07:59:15.000Z</time>
      </trkpt>
      <trkpt lat="48.39273" lon="2.51556">
        <ele>96</ele>
        <time>2012-12-27T07:59:16.000Z</time>
      </trkpt>
      <trkpt lat="48.39289" lon="2.51522">
        <ele>95.6</ele>
        <time>2012-12-27T07:59:25.000Z</time>
      </trkpt>
      <trkpt lat="48.39293" lon="2.51509">
        <ele>94.8</ele>
        <time>2012-12-27T07:59:28.000Z</time>
      </trkpt>
      <trkpt lat="48.39301" lon="2.51491">
        <ele>93.6</ele>
        <time>2012-12-27T07:59:33.000Z</time>
      </trkpt>
      <trkpt lat="48.39311" lon="2.51477">
        <ele>93.6</ele>
        <time>2012-12-27T07:59:39.000Z</time>
      </trkpt>
      <trkpt lat="48.39315" lon="2.51469">
        <ele>93.6</ele>
        <time>2012-12-27T07:59:42.000Z</time>
      </trkpt>
      <trkpt lat="48.39316" lon="2.51456">
        <ele>93.6</ele>
        <time>2012-12-27T07:59:45.000Z</time>
      </trkpt>
      <trkpt lat="48.3932" lon="2.51438">
        <ele>93.6</ele>
        <time>2012-12-27T07:59:50.000Z</time>
      </trkpt>
      <trkpt lat="48.39321" lon="2.51424">
        <ele>93.6</ele>
        <time>2012-12-27T07:59:54.000Z</time>
      </trkpt>
      <trkpt lat="48.39322" lon="2.5142">
        <ele>93.6</ele>
        <time>2012-12-27T07:59:55.000Z</time>
      </trkpt>
      <trkpt lat="48.39323" lon="2.51399">
        <ele>93.6</ele>
        <time>2012-12-27T08:00:01.000Z</time>
      </trkpt>
      <trkpt lat="48.39326" lon="2.51392">
        <ele>93.6</ele>
        <time>2012-12-27T08:00:03.000Z</time>
      </trkpt>
      <trkpt lat="48.39331" lon="2.51386">
        <ele>93.6</ele>
        <time>2012-12-27T08:00:05.000Z</time>
      </trkpt>
      <trkpt lat="48.39338" lon="2.5138">
        <ele>93.6</ele>
        <time>2012-12-27T08:00:09.000Z</time>
      </trkpt>
      <trkpt lat="48.39348" lon="2.51379">
        <ele>93.6</ele>
        <time>2012-12-27T08:00:13.000Z</time>
      </trkpt>
      <trkpt lat="48.39353" lon="2.51371">
        <ele>93.6</ele>
        <time>2012-12-27T08:00:18.000Z</time>
      </trkpt>
      <trkpt lat="48.39354" lon="2.51372">
        <ele>93.6</ele>
        <time>2012-12-27T08:00:19.000Z</time>
      </trkpt>
      <trkpt lat="48.3936" lon="2.51372">
        <ele>93.6</ele>
        <time>2012-12-27T08:00:22.000Z</time>
      </trkpt>
      <trkpt lat="48.39363" lon="2.51369">
        <ele>94.4</ele>
        <time>2012-12-27T08:00:24.000Z</time>
      </trkpt>
      <trkpt lat="48.39365" lon="2.5137">
        <ele>94.8</ele>
        <time>2012-12-27T08:00:25.000Z</time>
      </trkpt>
      <trkpt lat="48.39367" lon="2.51371">
        <ele>95.2</ele>
        <time>2012-12-27T08:00:26.000Z</time>
      </trkpt>
      <trkpt lat="48.39384" lon="2.51377">
        <ele>95.6</ele>
        <time>2012-12-27T08:00:33.000Z</time>
      </trkpt>
      <trkpt lat="48.39389" lon="2.51374">
        <ele>95.6</ele>
        <time>2012-12-27T08:00:35.000Z</time>
      </trkpt>
      <trkpt lat="48.39391" lon="2.51374">
        <ele>95.6</ele>
        <time>2012-12-27T08:00:36.000Z</time>
      </trkpt>
      <trkpt lat="48.39393" lon="2.51372">
        <ele>96</ele>
        <time>2012-12-27T08:00:37.000Z</time>
      </trkpt>
      <trkpt lat="48.39396" lon="2.51371">
        <ele>96.4</ele>
        <time>2012-12-27T08:00:38.000Z</time>
      </trkpt>
      <trkpt lat="48.39397" lon="2.51371">
        <ele>96.8</ele>
        <time>2012-12-27T08:00:39.000Z</time>
      </trkpt>
      <trkpt lat="48.39406" lon="2.51372">
        <ele>97.8</ele>
        <time>2012-12-27T08:00:44.000Z</time>
      </trkpt>
      <trkpt lat="48.39421" lon="2.51375">
        <ele>97.8</ele>
        <time>2012-12-27T08:00:50.000Z</time>
      </trkpt>
      <trkpt lat="48.39438" lon="2.51387">
        <ele>98.2</ele>
        <time>2012-12-27T08:00:58.000Z</time>
      </trkpt>
      <trkpt lat="48.39441" lon="2.51388">
        <ele>98.6</ele>
        <time>2012-12-27T08:00:59.000Z</time>
      </trkpt>
      <trkpt lat="48.39444" lon="2.5139">
        <ele>99</ele>
        <time>2012-12-27T08:01:00.000Z</time>
      </trkpt>
      <trkpt lat="48.39446" lon="2.51392">
        <ele>99.4</ele>
        <time>2012-12-27T08:01:01.000Z</time>
      </trkpt>
      <trkpt lat="48.39449" lon="2.51393">
        <ele>99.8</ele>
        <time>2012-12-27T08:01:02.000Z</time>
      </trkpt>
      <trkpt lat="48.39454" lon="2.51396">
        <ele>99.8</ele>
        <time>2012-12-27T08:01:04.000Z</time>
      </trkpt>
      <trkpt lat="48.39463" lon="2.51398">
        <ele>99.8</ele>
        <time>2012-12-27T08:01:08.000Z</time>
      </trkpt>
      <trkpt lat="48.39464" lon="2.51398">
        <ele>99.8</ele>
        <time>2012-12-27T08:01:09.000Z</time>
      </trkpt>
      <trkpt lat="48.3947" lon="2.51399">
        <ele>100.2</ele>
        <time>2012-12-27T08:01:12.000Z</time>
      </trkpt>
      <trkpt lat="48.39471" lon="2.51399">
        <ele>100.6</ele>
        <time>2012-12-27T08:01:13.000Z</time>
      </trkpt>
      <trkpt lat="48.39472" lon="2.51399">
        <ele>101</ele>
        <time>2012-12-27T08:01:14.000Z</time>
      </trkpt>
      <trkpt lat="48.39474" lon="2.51401">
        <ele>101.4</ele>
        <time>2012-12-27T08:01:15.000Z</time>
      </trkpt>
      <trkpt lat="48.39475" lon="2.51402">
        <ele>102</ele>
        <time>2012-12-27T08:01:16.000Z</time>
      </trkpt>
      <trkpt lat="48.39477" lon="2.51402">
        <ele>102</ele>
        <time>2012-12-27T08:01:17.000Z</time>
      </trkpt>
      <trkpt lat="48.3948" lon="2.51407">
        <ele>102.4</ele>
        <time>2012-12-27T08:01:20.000Z</time>
      </trkpt>
      <trkpt lat="48.39481" lon="2.51408">
        <ele>102.8</ele>
        <time>2012-12-27T08:01:21.000Z</time>
      </trkpt>
      <trkpt lat="48.39483" lon="2.5141">
        <ele>103.2</ele>
        <time>2012-12-27T08:01:22.000Z</time>
      </trkpt>
      <trkpt lat="48.39484" lon="2.51411">
        <ele>103.6</ele>
        <time>2012-12-27T08:01:23.000Z</time>
      </trkpt>
      <trkpt lat="48.39486" lon="2.51412">
        <ele>104</ele>
        <time>2012-12-27T08:01:24.000Z</time>
      </trkpt>
      <trkpt lat="48.3949" lon="2.51413">
        <ele>104</ele>
        <time>2012-12-27T08:01:26.000Z</time>
      </trkpt>
      <trkpt lat="48.39492" lon="2.51414">
        <ele>104</ele>
        <time>2012-12-27T08:01:27.000Z</time>
      </trkpt>
      <trkpt lat="48.39502" lon="2.51418">
        <ele>104</ele>
        <time>2012-12-27T08:01:32.000Z</time>
      </trkpt>
      <trkpt lat="48.39509" lon="2.51419">
        <ele>104</ele>
        <time>2012-12-27T08:01:36.000Z</time>
      </trkpt>
      <trkpt lat="48.39512" lon="2.51418">
        <ele>104</ele>
        <time>2012-12-27T08:01:37.000Z</time>
      </trkpt>
      <trkpt lat="48.39519" lon="2.51419">
        <ele>104</ele>
        <time>2012-12-27T08:01:39.000Z</time>
      </trkpt>
      <trkpt lat="48.39538" lon="2.51427">
        <ele>103.6</ele>
        <time>2012-12-27T08:01:44.000Z</time>
      </trkpt>
      <trkpt lat="48.3954" lon="2.51427">
        <ele>103.2</ele>
        <time>2012-12-27T08:01:45.000Z</time>
      </trkpt>
      <trkpt lat="48.39542" lon="2.51428">
        <ele>102.8</ele>
        <time>2012-12-27T08:01:46.000Z</time>
      </trkpt>
      <trkpt lat="48.39544" lon="2.51428">
        <ele>102.4</ele>
        <time>2012-12-27T08:01:47.000Z</time>
      </trkpt>
      <trkpt lat="48.39546" lon="2.51427">
        <ele>101.8</ele>
        <time>2012-12-27T08:01:48.000Z</time>
      </trkpt>
      <trkpt lat="48.39549" lon="2.51425">
        <ele>101.4</ele>
        <time>2012-12-27T08:01:49.000Z</time>
      </trkpt>
      <trkpt lat="48.39571" lon="2.51414">
        <ele>99.4</ele>
        <time>2012-12-27T08:01:53.000Z</time>
      </trkpt>
      <trkpt lat="48.39579" lon="2.51415">
        <ele>99</ele>
        <time>2012-12-27T08:01:54.000Z</time>
      </trkpt>
      <trkpt lat="48.39609" lon="2.5143">
        <ele>97.8</ele>
        <time>2012-12-27T08:01:59.000Z</time>
      </trkpt>
      <trkpt lat="48.39618" lon="2.51425">
        <ele>97.8</ele>
        <time>2012-12-27T08:02:01.000Z</time>
      </trkpt>
      <trkpt lat="48.3963" lon="2.51412">
        <ele>97.8</ele>
        <time>2012-12-27T08:02:04.000Z</time>
      </trkpt>
      <trkpt lat="48.39635" lon="2.51406">
        <ele>97.8</ele>
        <time>2012-12-27T08:02:06.000Z</time>
      </trkpt>
      <trkpt lat="48.39661" lon="2.51387">
        <ele>95.6</ele>
        <time>2012-12-27T08:02:13.000Z</time>
      </trkpt>
      <trkpt lat="48.39674" lon="2.5139">
        <ele>95.6</ele>
        <time>2012-12-27T08:02:17.000Z</time>
      </trkpt>
      <trkpt lat="48.39684" lon="2.514">
        <ele>95.6</ele>
        <time>2012-12-27T08:02:22.000Z</time>
      </trkpt>
      <trkpt lat="48.39694" lon="2.51418">
        <ele>95.6</ele>
        <time>2012-12-27T08:02:27.000Z</time>
      </trkpt>
      <trkpt lat="48.39724" lon="2.51455">
        <ele>96.6</ele>
        <time>2012-12-27T08:02:40.000Z</time>
      </trkpt>
      <trkpt lat="48.39728" lon="2.51462">
        <ele>97.4</ele>
        <time>2012-12-27T08:02:42.000Z</time>
      </trkpt>
      <trkpt lat="48.39729" lon="2.51465">
        <ele>97.8</ele>
        <time>2012-12-27T08:02:43.000Z</time>
      </trkpt>
      <trkpt lat="48.3973" lon="2.51467">
        <ele>97.8</ele>
        <time>2012-12-27T08:02:44.000Z</time>
      </trkpt>
      <trkpt lat="48.39735" lon="2.51476">
        <ele>97.8</ele>
        <time>2012-12-27T08:02:47.000Z</time>
      </trkpt>
      <trkpt lat="48.39741" lon="2.51491">
        <ele>97.8</ele>
        <time>2012-12-27T08:02:52.000Z</time>
      </trkpt>
      <trkpt lat="48.39743" lon="2.51501">
        <ele>97.8</ele>
        <time>2012-12-27T08:02:55.000Z</time>
      </trkpt>
      <trkpt lat="48.39747" lon="2.51515">
        <ele>99</ele>
        <time>2012-12-27T08:02:59.000Z</time>
      </trkpt>
      <trkpt lat="48.39747" lon="2.51519">
        <ele>99.4</ele>
        <time>2012-12-27T08:03:00.000Z</time>
      </trkpt>
      <trkpt lat="48.39753" lon="2.51542">
        <ele>99.8</ele>
        <time>2012-12-27T08:03:05.000Z</time>
      </trkpt>
      <trkpt lat="48.39752" lon="2.51545">
        <ele>99.8</ele>
        <time>2012-12-27T08:03:06.000Z</time>
      </trkpt>
      <trkpt lat="48.39746" lon="2.51557">
        <ele>99.8</ele>
        <time>2012-12-27T08:03:10.000Z</time>
      </trkpt>
      <trkpt lat="48.39744" lon="2.51573">
        <ele>100.2</ele>
        <time>2012-12-27T08:03:15.000Z</time>
      </trkpt>
      <trkpt lat="48.39743" lon="2.51575">
        <ele>100.6</ele>
        <time>2012-12-27T08:03:16.000Z</time>
      </trkpt>
      <trkpt lat="48.39742" lon="2.51577">
        <ele>101.2</ele>
        <time>2012-12-27T08:03:17.000Z</time>
      </trkpt>
      <trkpt lat="48.39741" lon="2.51578">
        <ele>101.6</ele>
        <time>2012-12-27T08:03:18.000Z</time>
      </trkpt>
      <trkpt lat="48.39738" lon="2.5158">
        <ele>102</ele>
        <time>2012-12-27T08:03:19.000Z</time>
      </trkpt>
      <trkpt lat="48.39737" lon="2.51584">
        <ele>102</ele>
        <time>2012-12-27T08:03:21.000Z</time>
      </trkpt>
      <trkpt lat="48.39743" lon="2.51651">
        <ele>105.4</ele>
        <time>2012-12-27T08:03:41.000Z</time>
      </trkpt>
      <trkpt lat="48.39743" lon="2.51655">
        <ele>105.8</ele>
        <time>2012-12-27T08:03:42.000Z</time>
      </trkpt>
      <trkpt lat="48.39746" lon="2.5169">
        <ele>107</ele>
        <time>2012-12-27T08:03:53.000Z</time>
      </trkpt>
      <trkpt lat="48.39746" lon="2.51693">
        <ele>107.4</ele>
        <time>2012-12-27T08:03:54.000Z</time>
      </trkpt>
      <trkpt lat="48.39746" lon="2.51696">
        <ele>107.8</ele>
        <time>2012-12-27T08:03:55.000Z</time>
      </trkpt>
      <trkpt lat="48.39747" lon="2.51699">
        <ele>108.2</ele>
        <time>2012-12-27T08:03:56.000Z</time>
      </trkpt>
      <trkpt lat="48.39747" lon="2.51702">
        <ele>108.2</ele>
        <time>2012-12-27T08:03:57.000Z</time>
      </trkpt>
      <trkpt lat="48.39749" lon="2.51715">
        <ele>109</ele>
        <time>2012-12-27T08:04:02.000Z</time>
      </trkpt>
      <trkpt lat="48.3975" lon="2.51718">
        <ele>109.4</ele>
        <time>2012-12-27T08:04:03.000Z</time>
      </trkpt>
      <trkpt lat="48.3975" lon="2.51721">
        <ele>109.8</ele>
        <time>2012-12-27T08:04:04.000Z</time>
      </trkpt>
      <trkpt lat="48.39751" lon="2.51732">
        <ele>110.4</ele>
        <time>2012-12-27T08:04:08.000Z</time>
      </trkpt>
      <trkpt lat="48.39757" lon="2.51742">
        <ele>110.4</ele>
        <time>2012-12-27T08:04:12.000Z</time>
      </trkpt>
      <trkpt lat="48.39762" lon="2.51756">
        <ele>110.4</ele>
        <time>2012-12-27T08:04:18.000Z</time>
      </trkpt>
      <trkpt lat="48.39765" lon="2.51761">
        <ele>110.8</ele>
        <time>2012-12-27T08:04:19.000Z</time>
      </trkpt>
      <trkpt lat="48.39766" lon="2.51763">
        <ele>111.2</ele>
        <time>2012-12-27T08:04:20.000Z</time>
      </trkpt>
      <trkpt lat="48.39769" lon="2.51766">
        <ele>112</ele>
        <time>2012-12-27T08:04:22.000Z</time>
      </trkpt>
      <trkpt lat="48.39771" lon="2.51771">
        <ele>112.4</ele>
        <time>2012-12-27T08:04:24.000Z</time>
      </trkpt>
      <trkpt lat="48.39771" lon="2.51775">
        <ele>112.4</ele>
        <time>2012-12-27T08:04:26.000Z</time>
      </trkpt>
      <trkpt lat="48.3977" lon="2.51778">
        <ele>112.4</ele>
        <time>2012-12-27T08:04:27.000Z</time>
      </trkpt>
      <trkpt lat="48.39772" lon="2.51783">
        <ele>112.8</ele>
        <time>2012-12-27T08:04:29.000Z</time>
      </trkpt>
      <trkpt lat="48.3977" lon="2.51788">
        <ele>113.6</ele>
        <time>2012-12-27T08:04:31.000Z</time>
      </trkpt>
      <trkpt lat="48.39769" lon="2.51799">
        <ele>114.4</ele>
        <time>2012-12-27T08:04:35.000Z</time>
      </trkpt>
      <trkpt lat="48.39767" lon="2.51805">
        <ele>114.4</ele>
        <time>2012-12-27T08:04:38.000Z</time>
      </trkpt>
      <trkpt lat="48.39767" lon="2.51808">
        <ele>114.8</ele>
        <time>2012-12-27T08:04:39.000Z</time>
      </trkpt>
      <trkpt lat="48.39768" lon="2.5181">
        <ele>115.2</ele>
        <time>2012-12-27T08:04:40.000Z</time>
      </trkpt>
      <trkpt lat="48.39769" lon="2.5181">
        <ele>115.8</ele>
        <time>2012-12-27T08:04:41.000Z</time>
      </trkpt>
      <trkpt lat="48.39771" lon="2.5181">
        <ele>116.2</ele>
        <time>2012-12-27T08:04:42.000Z</time>
      </trkpt>
      <trkpt lat="48.39773" lon="2.51809">
        <ele>116.6</ele>
        <time>2012-12-27T08:04:43.000Z</time>
      </trkpt>
      <trkpt lat="48.39776" lon="2.51812">
        <ele>116.6</ele>
        <time>2012-12-27T08:04:45.000Z</time>
      </trkpt>
      <trkpt lat="48.39779" lon="2.51812">
        <ele>116.6</ele>
        <time>2012-12-27T08:04:47.000Z</time>
      </trkpt>
      <trkpt lat="48.3978" lon="2.51814">
        <ele>117</ele>
        <time>2012-12-27T08:04:48.000Z</time>
      </trkpt>
      <trkpt lat="48.39781" lon="2.51813">
        <ele>117.8</ele>
        <time>2012-12-27T08:04:49.000Z</time>
      </trkpt>
      <trkpt lat="48.39783" lon="2.51812">
        <ele>118.2</ele>
        <time>2012-12-27T08:04:50.000Z</time>
      </trkpt>
      <trkpt lat="48.39784" lon="2.51812">
        <ele>118.6</ele>
        <time>2012-12-27T08:04:51.000Z</time>
      </trkpt>
      <trkpt lat="48.39787" lon="2.51808">
        <ele>118.6</ele>
        <time>2012-12-27T08:04:54.000Z</time>
      </trkpt>
      <trkpt lat="48.39794" lon="2.51803">
        <ele>118.6</ele>
        <time>2012-12-27T08:04:59.000Z</time>
      </trkpt>
      <trkpt lat="48.39801" lon="2.51789">
        <ele>118.6</ele>
        <time>2012-12-27T08:05:05.000Z</time>
      </trkpt>
      <trkpt lat="48.39805" lon="2.51783">
        <ele>118.6</ele>
        <time>2012-12-27T08:05:09.000Z</time>
      </trkpt>
      <trkpt lat="48.3981" lon="2.51781">
        <ele>118.6</ele>
        <time>2012-12-27T08:05:11.000Z</time>
      </trkpt>
      <trkpt lat="48.39811" lon="2.51778">
        <ele>118.6</ele>
        <time>2012-12-27T08:05:12.000Z</time>
      </trkpt>
      <trkpt lat="48.39812" lon="2.51777">
        <ele>118.2</ele>
        <time>2012-12-27T08:05:13.000Z</time>
      </trkpt>
      <trkpt lat="48.39814" lon="2.51775">
        <ele>117.4</ele>
        <time>2012-12-27T08:05:14.000Z</time>
      </trkpt>
      <trkpt lat="48.39816" lon="2.51774">
        <ele>117</ele>
        <time>2012-12-27T08:05:15.000Z</time>
      </trkpt>
      <trkpt lat="48.39825" lon="2.51765">
        <ele>115.6</ele>
        <time>2012-12-27T08:05:18.000Z</time>
      </trkpt>
      <trkpt lat="48.39829" lon="2.51758">
        <ele>114.6</ele>
        <time>2012-12-27T08:05:20.000Z</time>
      </trkpt>
      <trkpt lat="48.3983" lon="2.51756">
        <ele>114.2</ele>
        <time>2012-12-27T08:05:21.000Z</time>
      </trkpt>
      <trkpt lat="48.3983" lon="2.51754">
        <ele>113.6</ele>
        <time>2012-12-27T08:05:22.000Z</time>
      </trkpt>
      <trkpt lat="48.39834" lon="2.51752">
        <ele>113</ele>
        <time>2012-12-27T08:05:23.000Z</time>
      </trkpt>
      <trkpt lat="48.39835" lon="2.51755">
        <ele>112.6</ele>
        <time>2012-12-27T08:05:24.000Z</time>
      </trkpt>
      <trkpt lat="48.39836" lon="2.51757">
        <ele>112</ele>
        <time>2012-12-27T08:05:25.000Z</time>
      </trkpt>
      <trkpt lat="48.39839" lon="2.51763">
        <ele>111.2</ele>
        <time>2012-12-27T08:05:27.000Z</time>
      </trkpt>
      <trkpt lat="48.3984" lon="2.5177">
        <ele>110.2</ele>
        <time>2012-12-27T08:05:29.000Z</time>
      </trkpt>
      <trkpt lat="48.39841" lon="2.51775">
        <ele>109.8</ele>
        <time>2012-12-27T08:05:30.000Z</time>
      </trkpt>
      <trkpt lat="48.39839" lon="2.51817">
        <ele>106.8</ele>
        <time>2012-12-27T08:05:37.000Z</time>
      </trkpt>
      <trkpt lat="48.39841" lon="2.51829">
        <ele>105.2</ele>
        <time>2012-12-27T08:05:39.000Z</time>
      </trkpt>
      <trkpt lat="48.39845" lon="2.51841">
        <ele>104.8</ele>
        <time>2012-12-27T08:05:41.000Z</time>
      </trkpt>
      <trkpt lat="48.39852" lon="2.51856">
        <ele>103.2</ele>
        <time>2012-12-27T08:05:44.000Z</time>
      </trkpt>
      <trkpt lat="48.39853" lon="2.51856">
        <ele>102.8</ele>
        <time>2012-12-27T08:05:45.000Z</time>
      </trkpt>
      <trkpt lat="48.39854" lon="2.5186">
        <ele>102.8</ele>
        <time>2012-12-27T08:05:46.000Z</time>
      </trkpt>
      <trkpt lat="48.39856" lon="2.51862">
        <ele>102.8</ele>
        <time>2012-12-27T08:05:47.000Z</time>
      </trkpt>
      <trkpt lat="48.39857" lon="2.51867">
        <ele>102.8</ele>
        <time>2012-12-27T08:05:49.000Z</time>
      </trkpt>
      <trkpt lat="48.39856" lon="2.5187">
        <ele>102.8</ele>
        <time>2012-12-27T08:05:50.000Z</time>
      </trkpt>
      <trkpt lat="48.39856" lon="2.51877">
        <ele>102.8</ele>
        <time>2012-12-27T08:05:52.000Z</time>
      </trkpt>
      <trkpt lat="48.39839" lon="2.51909">
        <ele>102.8</ele>
        <time>2012-12-27T08:06:04.000Z</time>
      </trkpt>
      <trkpt lat="48.39834" lon="2.51927">
        <ele>102.8</ele>
        <time>2012-12-27T08:06:10.000Z</time>
      </trkpt>
      <trkpt lat="48.39827" lon="2.51939">
        <ele>102.8</ele>
        <time>2012-12-27T08:06:15.000Z</time>
      </trkpt>
      <trkpt lat="48.39816" lon="2.51953">
        <ele>103.6</ele>
        <time>2012-12-27T08:06:22.000Z</time>
      </trkpt>
      <trkpt lat="48.3981" lon="2.51959">
        <ele>104.8</ele>
        <time>2012-12-27T08:06:25.000Z</time>
      </trkpt>
      <trkpt lat="48.39791" lon="2.51969">
        <ele>104.8</ele>
        <time>2012-12-27T08:06:33.000Z</time>
      </trkpt>
      <trkpt lat="48.39787" lon="2.51972">
        <ele>104.8</ele>
        <time>2012-12-27T08:06:36.000Z</time>
      </trkpt>
      <trkpt lat="48.39782" lon="2.51974">
        <ele>104.8</ele>
        <time>2012-12-27T08:06:38.000Z</time>
      </trkpt>
      <trkpt lat="48.39776" lon="2.51977">
        <ele>104.8</ele>
        <time>2012-12-27T08:06:40.000Z</time>
      </trkpt>
      <trkpt lat="48.39771" lon="2.51982">
        <ele>104.8</ele>
        <time>2012-12-27T08:06:43.000Z</time>
      </trkpt>
      <trkpt lat="48.39763" lon="2.52002">
        <ele>106</ele>
        <time>2012-12-27T08:06:50.000Z</time>
      </trkpt>
      <trkpt lat="48.39749" lon="2.52047">
        <ele>106.8</ele>
        <time>2012-12-27T08:07:01.000Z</time>
      </trkpt>
      <trkpt lat="48.39729" lon="2.52159">
        <ele>107.2</ele>
        <time>2012-12-27T08:07:26.000Z</time>
      </trkpt>
      <trkpt lat="48.39728" lon="2.52163">
        <ele>107.6</ele>
        <time>2012-12-27T08:07:27.000Z</time>
      </trkpt>
      <trkpt lat="48.3972" lon="2.52217">
        <ele>108.8</ele>
        <time>2012-12-27T08:07:40.000Z</time>
      </trkpt>
      <trkpt lat="48.39721" lon="2.52218">
        <ele>108.8</ele>
        <time>2012-12-27T08:07:41.000Z</time>
      </trkpt>
      <trkpt lat="48.39728" lon="2.52223">
        <ele>109.4</ele>
        <time>2012-12-27T08:07:45.000Z</time>
      </trkpt>
      <trkpt lat="48.3973" lon="2.52222">
        <ele>109.8</ele>
        <time>2012-12-27T08:07:46.000Z</time>
      </trkpt>
      <trkpt lat="48.39732" lon="2.52222">
        <ele>110.2</ele>
        <time>2012-12-27T08:07:47.000Z</time>
      </trkpt>
      <trkpt lat="48.39733" lon="2.52222">
        <ele>110.8</ele>
        <time>2012-12-27T08:07:48.000Z</time>
      </trkpt>
      <trkpt lat="48.39734" lon="2.52222">
        <ele>111.2</ele>
        <time>2012-12-27T08:07:49.000Z</time>
      </trkpt>
      <trkpt lat="48.39736" lon="2.52221">
        <ele>112.2</ele>
        <time>2012-12-27T08:07:52.000Z</time>
      </trkpt>
      <trkpt lat="48.39738" lon="2.5222">
        <ele>113</ele>
        <time>2012-12-27T08:07:54.000Z</time>
      </trkpt>
      <trkpt lat="48.39741" lon="2.52227">
        <ele>115.2</ele>
        <time>2012-12-27T08:08:00.000Z</time>
      </trkpt>
      <trkpt lat="48.39741" lon="2.52228">
        <ele>115.8</ele>
        <time>2012-12-27T08:08:01.000Z</time>
      </trkpt>
      <trkpt lat="48.39742" lon="2.52231">
        <ele>115.8</ele>
        <time>2012-12-27T08:08:03.000Z</time>
      </trkpt>
      <trkpt lat="48.39737" lon="2.52251">
        <ele>115.8</ele>
        <time>2012-12-27T08:08:14.000Z</time>
      </trkpt>
      <trkpt lat="48.39734" lon="2.52255">
        <ele>115.8</ele>
        <time>2012-12-27T08:08:16.000Z</time>
      </trkpt>
      <trkpt lat="48.39729" lon="2.52272">
        <ele>115.8</ele>
        <time>2012-12-27T08:08:20.000Z</time>
      </trkpt>
      <trkpt lat="48.39716" lon="2.52298">
        <ele>115.8</ele>
        <time>2012-12-27T08:08:25.000Z</time>
      </trkpt>
      <trkpt lat="48.39712" lon="2.52322">
        <ele>114</ele>
        <time>2012-12-27T08:08:29.000Z</time>
      </trkpt>
      <trkpt lat="48.3971" lon="2.52327">
        <ele>113.6</ele>
        <time>2012-12-27T08:08:30.000Z</time>
      </trkpt>
      <trkpt lat="48.3971" lon="2.52346">
        <ele>113.6</ele>
        <time>2012-12-27T08:08:35.000Z</time>
      </trkpt>
      <trkpt lat="48.39698" lon="2.52388">
        <ele>113.6</ele>
        <time>2012-12-27T08:08:46.000Z</time>
      </trkpt>
      <trkpt lat="48.39695" lon="2.52437">
        <ele>113.6</ele>
        <time>2012-12-27T08:08:57.000Z</time>
      </trkpt>
      <trkpt lat="48.39688" lon="2.52453">
        <ele>113.6</ele>
        <time>2012-12-27T08:09:01.000Z</time>
      </trkpt>
      <trkpt lat="48.39671" lon="2.52544">
        <ele>114.4</ele>
        <time>2012-12-27T08:09:23.000Z</time>
      </trkpt>
      <trkpt lat="48.39663" lon="2.5267">
        <ele>117.6</ele>
        <time>2012-12-27T08:09:53.000Z</time>
      </trkpt>
      <trkpt lat="48.39648" lon="2.52725">
        <ele>119.8</ele>
        <time>2012-12-27T08:10:08.000Z</time>
      </trkpt>
      <trkpt lat="48.39635" lon="2.52791">
        <ele>120.2</ele>
        <time>2012-12-27T08:10:24.000Z</time>
      </trkpt>
      <trkpt lat="48.39635" lon="2.52798">
        <ele>121</ele>
        <time>2012-12-27T08:10:26.000Z</time>
      </trkpt>
      <trkpt lat="48.39636" lon="2.52802">
        <ele>121.4</ele>
        <time>2012-12-27T08:10:27.000Z</time>
      </trkpt>
      <trkpt lat="48.39636" lon="2.52806">
        <ele>121.8</ele>
        <time>2012-12-27T08:10:28.000Z</time>
      </trkpt>
      <trkpt lat="48.39628" lon="2.52855">
        <ele>122.2</ele>
        <time>2012-12-27T08:10:40.000Z</time>
      </trkpt>
      <trkpt lat="48.39627" lon="2.52881">
        <ele>124</ele>
        <time>2012-12-27T08:10:46.000Z</time>
      </trkpt>
      <trkpt lat="48.39619" lon="2.52911">
        <ele>124</ele>
        <time>2012-12-27T08:10:54.000Z</time>
      </trkpt>
      <trkpt lat="48.3962" lon="2.52918">
        <ele>124.4</ele>
        <time>2012-12-27T08:10:56.000Z</time>
      </trkpt>
      <trkpt lat="48.3962" lon="2.52921">
        <ele>124.8</ele>
        <time>2012-12-27T08:10:57.000Z</time>
      </trkpt>
      <trkpt lat="48.39619" lon="2.52923">
        <ele>125.4</ele>
        <time>2012-12-27T08:10:58.000Z</time>
      </trkpt>
      <trkpt lat="48.39619" lon="2.52947">
        <ele>126.6</ele>
        <time>2012-12-27T08:11:04.000Z</time>
      </trkpt>
      <trkpt lat="48.39619" lon="2.5295">
        <ele>127.2</ele>
        <time>2012-12-27T08:11:05.000Z</time>
      </trkpt>
      <trkpt lat="48.39618" lon="2.52953">
        <ele>127.6</ele>
        <time>2012-12-27T08:11:06.000Z</time>
      </trkpt>
      <trkpt lat="48.39618" lon="2.52959">
        <ele>128.4</ele>
        <time>2012-12-27T08:11:08.000Z</time>
      </trkpt>
      <trkpt lat="48.39616" lon="2.52964">
        <ele>128.4</ele>
        <time>2012-12-27T08:11:10.000Z</time>
      </trkpt>
      <trkpt lat="48.39609" lon="2.52981">
        <ele>128.8</ele>
        <time>2012-12-27T08:11:15.000Z</time>
      </trkpt>
      <trkpt lat="48.39605" lon="2.52995">
        <ele>130.4</ele>
        <time>2012-12-27T08:11:19.000Z</time>
      </trkpt>
      <trkpt lat="48.39583" lon="2.53191">
        <ele>133</ele>
        <time>2012-12-27T08:12:08.000Z</time>
      </trkpt>
      <trkpt lat="48.39583" lon="2.532">
        <ele>133.8</ele>
        <time>2012-12-27T08:12:10.000Z</time>
      </trkpt>
      <trkpt lat="48.39578" lon="2.53228">
        <ele>134.6</ele>
        <time>2012-12-27T08:12:16.000Z</time>
      </trkpt>
      <trkpt lat="48.3955" lon="2.53312">
        <ele>136.6</ele>
        <time>2012-12-27T08:12:39.000Z</time>
      </trkpt>
      <trkpt lat="48.39541" lon="2.5336">
        <ele>136.6</ele>
        <time>2012-12-27T08:12:51.000Z</time>
      </trkpt>
      <trkpt lat="48.39532" lon="2.53428">
        <ele>138.6</ele>
        <time>2012-12-27T08:13:09.000Z</time>
      </trkpt>
      <trkpt lat="48.39532" lon="2.53434">
        <ele>139</ele>
        <time>2012-12-27T08:13:11.000Z</time>
      </trkpt>
      <trkpt lat="48.3953" lon="2.53445">
        <ele>140.8</ele>
        <time>2012-12-27T08:13:15.000Z</time>
      </trkpt>
      <trkpt lat="48.3953" lon="2.53453">
        <ele>140.8</ele>
        <time>2012-12-27T08:13:19.000Z</time>
      </trkpt>
      <trkpt lat="48.3953" lon="2.53454">
        <ele>140.8</ele>
        <time>2012-12-27T08:13:20.000Z</time>
      </trkpt>
      <trkpt lat="48.39532" lon="2.53455">
        <ele>140.8</ele>
        <time>2012-12-27T08:13:24.000Z</time>
      </trkpt>
      <trkpt lat="48.39532" lon="2.53454">
        <ele>140.8</ele>
        <time>2012-12-27T08:14:59.000Z</time>
      </trkpt>
      <trkpt lat="48.39532" lon="2.53454">
        <ele>140.8</ele>
        <time>2012-12-27T08:15:00.000Z</time>
      </trkpt>
      <trkpt lat="48.39537" lon="2.53456">
        <ele>140.8</ele>
        <time>2012-12-27T08:15:03.000Z</time>
      </trkpt>
      <trkpt lat="48.39542" lon="2.53459">
        <ele>140.8</ele>
        <time>2012-12-27T08:15:06.000Z</time>
      </trkpt>
      <trkpt lat="48.39544" lon="2.5346">
        <ele>140.8</ele>
        <time>2012-12-27T08:15:07.000Z</time>
      </trkpt>
      <trkpt lat="48.39545" lon="2.53461">
        <ele>141.2</ele>
        <time>2012-12-27T08:15:08.000Z</time>
      </trkpt>
      <trkpt lat="48.39547" lon="2.53461">
        <ele>141.8</ele>
        <time>2012-12-27T08:15:09.000Z</time>
      </trkpt>
      <trkpt lat="48.39551" lon="2.5346">
        <ele>142.6</ele>
        <time>2012-12-27T08:15:11.000Z</time>
      </trkpt>
      <trkpt lat="48.39553" lon="2.53462">
        <ele>143</ele>
        <time>2012-12-27T08:15:12.000Z</time>
      </trkpt>
      <trkpt lat="48.39569" lon="2.53478">
        <ele>143</ele>
        <time>2012-12-27T08:15:20.000Z</time>
      </trkpt>
      <trkpt lat="48.39581" lon="2.53486">
        <ele>143</ele>
        <time>2012-12-27T08:15:26.000Z</time>
      </trkpt>
      <trkpt lat="48.3959" lon="2.53496">
        <ele>143</ele>
        <time>2012-12-27T08:15:31.000Z</time>
      </trkpt>
      <trkpt lat="48.39599" lon="2.53496">
        <ele>143</ele>
        <time>2012-12-27T08:15:35.000Z</time>
      </trkpt>
      <trkpt lat="48.39604" lon="2.53494">
        <ele>143</ele>
        <time>2012-12-27T08:15:38.000Z</time>
      </trkpt>
      <trkpt lat="48.39605" lon="2.53497">
        <ele>143</ele>
        <time>2012-12-27T08:15:39.000Z</time>
      </trkpt>
      <trkpt lat="48.39612" lon="2.53499">
        <ele>143</ele>
        <time>2012-12-27T08:15:42.000Z</time>
      </trkpt>
      <trkpt lat="48.39614" lon="2.53499">
        <ele>143.4</ele>
        <time>2012-12-27T08:15:43.000Z</time>
      </trkpt>
      <trkpt lat="48.39616" lon="2.53499">
        <ele>143.8</ele>
        <time>2012-12-27T08:15:44.000Z</time>
      </trkpt>
      <trkpt lat="48.39618" lon="2.53499">
        <ele>144.2</ele>
        <time>2012-12-27T08:15:45.000Z</time>
      </trkpt>
      <trkpt lat="48.3962" lon="2.535">
        <ele>144.6</ele>
        <time>2012-12-27T08:15:46.000Z</time>
      </trkpt>
      <trkpt lat="48.39622" lon="2.53501">
        <ele>145</ele>
        <time>2012-12-27T08:15:47.000Z</time>
      </trkpt>
      <trkpt lat="48.39623" lon="2.53502">
        <ele>145</ele>
        <time>2012-12-27T08:15:48.000Z</time>
      </trkpt>
      <trkpt lat="48.39627" lon="2.53502">
        <ele>145</ele>
        <time>2012-12-27T08:15:50.000Z</time>
      </trkpt>
      <trkpt lat="48.39634" lon="2.53505">
        <ele>145</ele>
        <time>2012-12-27T08:15:54.000Z</time>
      </trkpt>
      <trkpt lat="48.39639" lon="2.53506">
        <ele>145</ele>
        <time>2012-12-27T08:15:56.000Z</time>
      </trkpt>
      <trkpt lat="48.39645" lon="2.53506">
        <ele>145</ele>
        <time>2012-12-27T08:15:59.000Z</time>
      </trkpt>
      <trkpt lat="48.39654" lon="2.53508">
        <ele>145</ele>
        <time>2012-12-27T08:16:04.000Z</time>
      </trkpt>
      <trkpt lat="48.39662" lon="2.53522">
        <ele>145</ele>
        <time>2012-12-27T08:16:10.000Z</time>
      </trkpt>
      <trkpt lat="48.39682" lon="2.53537">
        <ele>145</ele>
        <time>2012-12-27T08:16:20.000Z</time>
      </trkpt>
      <trkpt lat="48.39683" lon="2.5354">
        <ele>145</ele>
        <time>2012-12-27T08:16:21.000Z</time>
      </trkpt>
      <trkpt lat="48.39683" lon="2.53548">
        <ele>145</ele>
        <time>2012-12-27T08:16:24.000Z</time>
      </trkpt>
      <trkpt lat="48.39683" lon="2.53554">
        <ele>145</ele>
        <time>2012-12-27T08:16:26.000Z</time>
      </trkpt>
      <trkpt lat="48.39684" lon="2.53561">
        <ele>145</ele>
        <time>2012-12-27T08:16:29.000Z</time>
      </trkpt>
      <trkpt lat="48.39682" lon="2.53566">
        <ele>145</ele>
        <time>2012-12-27T08:16:31.000Z</time>
      </trkpt>
      <trkpt lat="48.39686" lon="2.53572">
        <ele>145</ele>
        <time>2012-12-27T08:16:35.000Z</time>
      </trkpt>
      <trkpt lat="48.39692" lon="2.53579">
        <ele>145</ele>
        <time>2012-12-27T08:16:39.000Z</time>
      </trkpt>
      <trkpt lat="48.39691" lon="2.53584">
        <ele>145</ele>
        <time>2012-12-27T08:16:41.000Z</time>
      </trkpt>
      <trkpt lat="48.39688" lon="2.53601">
        <ele>145</ele>
        <time>2012-12-27T08:16:47.000Z</time>
      </trkpt>
      <trkpt lat="48.39687" lon="2.53613">
        <ele>145</ele>
        <time>2012-12-27T08:16:51.000Z</time>
      </trkpt>
      <trkpt lat="48.39683" lon="2.53627">
        <ele>145</ele>
        <time>2012-12-27T08:16:55.000Z</time>
      </trkpt>
      <trkpt lat="48.3968" lon="2.5363">
        <ele>145</ele>
        <time>2012-12-27T08:16:56.000Z</time>
      </trkpt>
      <trkpt lat="48.39672" lon="2.53632">
        <ele>145</ele>
        <time>2012-12-27T08:16:59.000Z</time>
      </trkpt>
      <trkpt lat="48.39671" lon="2.53632">
        <ele>145</ele>
        <time>2012-12-27T08:17:00.000Z</time>
      </trkpt>
      <trkpt lat="48.39665" lon="2.53632">
        <ele>145</ele>
        <time>2012-12-27T08:17:03.000Z</time>
      </trkpt>
      <trkpt lat="48.39663" lon="2.53634">
        <ele>144.6</ele>
        <time>2012-12-27T08:17:04.000Z</time>
      </trkpt>
      <trkpt lat="48.39661" lon="2.53637">
        <ele>144.2</ele>
        <time>2012-12-27T08:17:05.000Z</time>
      </trkpt>
      <trkpt lat="48.3966" lon="2.5364">
        <ele>143.8</ele>
        <time>2012-12-27T08:17:06.000Z</time>
      </trkpt>
      <trkpt lat="48.39659" lon="2.53643">
        <ele>143.4</ele>
        <time>2012-12-27T08:17:07.000Z</time>
      </trkpt>
      <trkpt lat="48.39658" lon="2.53645">
        <ele>143</ele>
        <time>2012-12-27T08:17:08.000Z</time>
      </trkpt>
      <trkpt lat="48.3965" lon="2.5365">
        <ele>143</ele>
        <time>2012-12-27T08:17:12.000Z</time>
      </trkpt>
      <trkpt lat="48.39647" lon="2.53657">
        <ele>143</ele>
        <time>2012-12-27T08:17:16.000Z</time>
      </trkpt>
      <trkpt lat="48.39647" lon="2.53672">
        <ele>143</ele>
        <time>2012-12-27T08:17:23.000Z</time>
      </trkpt>
      <trkpt lat="48.39645" lon="2.53673">
        <ele>143</ele>
        <time>2012-12-27T08:17:24.000Z</time>
      </trkpt>
      <trkpt lat="48.39642" lon="2.53676">
        <ele>143</ele>
        <time>2012-12-27T08:17:26.000Z</time>
      </trkpt>
      <trkpt lat="48.3964" lon="2.5368">
        <ele>143</ele>
        <time>2012-12-27T08:17:28.000Z</time>
      </trkpt>
      <trkpt lat="48.39641" lon="2.5374">
        <ele>143</ele>
        <time>2012-12-27T08:17:47.000Z</time>
      </trkpt>
      <trkpt lat="48.39644" lon="2.53753">
        <ele>143</ele>
        <time>2012-12-27T08:17:51.000Z</time>
      </trkpt>
      <trkpt lat="48.39652" lon="2.53766">
        <ele>143</ele>
        <time>2012-12-27T08:17:57.000Z</time>
      </trkpt>
      <trkpt lat="48.39655" lon="2.53783">
        <ele>143</ele>
        <time>2012-12-27T08:18:03.000Z</time>
      </trkpt>
      <trkpt lat="48.39653" lon="2.53791">
        <ele>143</ele>
        <time>2012-12-27T08:18:06.000Z</time>
      </trkpt>
      <trkpt lat="48.39651" lon="2.53793">
        <ele>143</ele>
        <time>2012-12-27T08:18:07.000Z</time>
      </trkpt>
      <trkpt lat="48.39643" lon="2.53798">
        <ele>143</ele>
        <time>2012-12-27T08:18:11.000Z</time>
      </trkpt>
      <trkpt lat="48.39633" lon="2.53799">
        <ele>143</ele>
        <time>2012-12-27T08:18:15.000Z</time>
      </trkpt>
      <trkpt lat="48.39627" lon="2.53804">
        <ele>143</ele>
        <time>2012-12-27T08:18:18.000Z</time>
      </trkpt>
      <trkpt lat="48.3961" lon="2.53798">
        <ele>143</ele>
        <time>2012-12-27T08:18:26.000Z</time>
      </trkpt>
      <trkpt lat="48.39589" lon="2.53798">
        <ele>143</ele>
        <time>2012-12-27T08:18:34.000Z</time>
      </trkpt>
      <trkpt lat="48.39588" lon="2.538">
        <ele>143</ele>
        <time>2012-12-27T08:18:36.000Z</time>
      </trkpt>
      <trkpt lat="48.39587" lon="2.538">
        <ele>143</ele>
        <time>2012-12-27T08:18:38.000Z</time>
      </trkpt>
      <trkpt lat="48.39587" lon="2.538">
        <ele>143</ele>
        <time>2012-12-27T08:18:39.000Z</time>
      </trkpt>
      <trkpt lat="48.39586" lon="2.53801">
        <ele>140.8</ele>
        <time>2012-12-27T08:18:54.000Z</time>
      </trkpt>
      <trkpt lat="48.39585" lon="2.53801">
        <ele>140.8</ele>
        <time>2012-12-27T08:18:55.000Z</time>
      </trkpt>
      <trkpt lat="48.39585" lon="2.53801">
        <ele>140.8</ele>
        <time>2012-12-27T08:18:57.000Z</time>
      </trkpt>
      <trkpt lat="48.39584" lon="2.53804">
        <ele>140.8</ele>
        <time>2012-12-27T08:19:04.000Z</time>
      </trkpt>
      <trkpt lat="48.39582" lon="2.53806">
        <ele>140.8</ele>
        <time>2012-12-27T08:19:05.000Z</time>
      </trkpt>
      <trkpt lat="48.3958" lon="2.53813">
        <ele>140.8</ele>
        <time>2012-12-27T08:19:07.000Z</time>
      </trkpt>
      <trkpt lat="48.3958" lon="2.5382">
        <ele>140.8</ele>
        <time>2012-12-27T08:19:09.000Z</time>
      </trkpt>
      <trkpt lat="48.39581" lon="2.53825">
        <ele>140.8</ele>
        <time>2012-12-27T08:19:11.000Z</time>
      </trkpt>
      <trkpt lat="48.39581" lon="2.53827">
        <ele>140.8</ele>
        <time>2012-12-27T08:19:12.000Z</time>
      </trkpt>
      <trkpt lat="48.39582" lon="2.53835">
        <ele>140.8</ele>
        <time>2012-12-27T08:19:15.000Z</time>
      </trkpt>
      <trkpt lat="48.39581" lon="2.53849">
        <ele>140.8</ele>
        <time>2012-12-27T08:19:19.000Z</time>
      </trkpt>
      <trkpt lat="48.39578" lon="2.53861">
        <ele>141.2</ele>
        <time>2012-12-27T08:19:23.000Z</time>
      </trkpt>
      <trkpt lat="48.39578" lon="2.53872">
        <ele>142.6</ele>
        <time>2012-12-27T08:19:26.000Z</time>
      </trkpt>
      <trkpt lat="48.39579" lon="2.53875">
        <ele>143</ele>
        <time>2012-12-27T08:19:27.000Z</time>
      </trkpt>
      <trkpt lat="48.39579" lon="2.53886">
        <ele>143</ele>
        <time>2012-12-27T08:19:30.000Z</time>
      </trkpt>
      <trkpt lat="48.3958" lon="2.53895">
        <ele>143</ele>
        <time>2012-12-27T08:19:33.000Z</time>
      </trkpt>
      <trkpt lat="48.39582" lon="2.53897">
        <ele>143</ele>
        <time>2012-12-27T08:19:34.000Z</time>
      </trkpt>
      <trkpt lat="48.39588" lon="2.53904">
        <ele>143</ele>
        <time>2012-12-27T08:19:37.000Z</time>
      </trkpt>
      <trkpt lat="48.39592" lon="2.53907">
        <ele>143</ele>
        <time>2012-12-27T08:19:39.000Z</time>
      </trkpt>
      <trkpt lat="48.39595" lon="2.53911">
        <ele>143</ele>
        <time>2012-12-27T08:19:41.000Z</time>
      </trkpt>
      <trkpt lat="48.39598" lon="2.5392">
        <ele>143</ele>
        <time>2012-12-27T08:19:44.000Z</time>
      </trkpt>
      <trkpt lat="48.39599" lon="2.53935">
        <ele>143</ele>
        <time>2012-12-27T08:19:49.000Z</time>
      </trkpt>
      <trkpt lat="48.39594" lon="2.53976">
        <ele>143</ele>
        <time>2012-12-27T08:20:00.000Z</time>
      </trkpt>
      <trkpt lat="48.39595" lon="2.53987">
        <ele>143</ele>
        <time>2012-12-27T08:20:03.000Z</time>
      </trkpt>
      <trkpt lat="48.3958" lon="2.54042">
        <ele>143</ele>
        <time>2012-12-27T08:20:20.000Z</time>
      </trkpt>
      <trkpt lat="48.3958" lon="2.54045">
        <ele>143</ele>
        <time>2012-12-27T08:20:21.000Z</time>
      </trkpt>
      <trkpt lat="48.39581" lon="2.54055">
        <ele>143</ele>
        <time>2012-12-27T08:20:24.000Z</time>
      </trkpt>
      <trkpt lat="48.39587" lon="2.54072">
        <ele>143</ele>
        <time>2012-12-27T08:20:29.000Z</time>
      </trkpt>
      <trkpt lat="48.39586" lon="2.54089">
        <ele>143</ele>
        <time>2012-12-27T08:20:33.000Z</time>
      </trkpt>
      <trkpt lat="48.39582" lon="2.541">
        <ele>143</ele>
        <time>2012-12-27T08:20:36.000Z</time>
      </trkpt>
      <trkpt lat="48.39582" lon="2.54104">
        <ele>143</ele>
        <time>2012-12-27T08:20:37.000Z</time>
      </trkpt>
      <trkpt lat="48.3958" lon="2.54109">
        <ele>143</ele>
        <time>2012-12-27T08:20:39.000Z</time>
      </trkpt>
      <trkpt lat="48.39577" lon="2.54115">
        <ele>143</ele>
        <time>2012-12-27T08:20:41.000Z</time>
      </trkpt>
      <trkpt lat="48.39576" lon="2.54124">
        <ele>143</ele>
        <time>2012-12-27T08:20:43.000Z</time>
      </trkpt>
      <trkpt lat="48.39579" lon="2.54165">
        <ele>143</ele>
        <time>2012-12-27T08:20:54.000Z</time>
      </trkpt>
      <trkpt lat="48.39577" lon="2.5417">
        <ele>143</ele>
        <time>2012-12-27T08:20:56.000Z</time>
      </trkpt>
      <trkpt lat="48.39563" lon="2.54181">
        <ele>143</ele>
        <time>2012-12-27T08:21:02.000Z</time>
      </trkpt>
      <trkpt lat="48.39561" lon="2.54184">
        <ele>143</ele>
        <time>2012-12-27T08:21:03.000Z</time>
      </trkpt>
      <trkpt lat="48.39556" lon="2.54191">
        <ele>143</ele>
        <time>2012-12-27T08:21:06.000Z</time>
      </trkpt>
      <trkpt lat="48.39553" lon="2.54197">
        <ele>143</ele>
        <time>2012-12-27T08:21:08.000Z</time>
      </trkpt>
      <trkpt lat="48.39547" lon="2.54217">
        <ele>143</ele>
        <time>2012-12-27T08:21:13.000Z</time>
      </trkpt>
      <trkpt lat="48.39539" lon="2.54236">
        <ele>143</ele>
        <time>2012-12-27T08:21:18.000Z</time>
      </trkpt>
      <trkpt lat="48.39529" lon="2.54284">
        <ele>143</ele>
        <time>2012-12-27T08:21:30.000Z</time>
      </trkpt>
      <trkpt lat="48.39529" lon="2.54291">
        <ele>143</ele>
        <time>2012-12-27T08:21:32.000Z</time>
      </trkpt>
      <trkpt lat="48.39524" lon="2.54318">
        <ele>143</ele>
        <time>2012-12-27T08:21:40.000Z</time>
      </trkpt>
      <trkpt lat="48.39523" lon="2.5432">
        <ele>143</ele>
        <time>2012-12-27T08:21:41.000Z</time>
      </trkpt>
      <trkpt lat="48.39523" lon="2.5432">
        <ele>143</ele>
        <time>2012-12-27T08:21:42.000Z</time>
      </trkpt>
      <trkpt lat="48.3952" lon="2.54311">
        <ele>143</ele>
        <time>2012-12-27T08:21:49.000Z</time>
      </trkpt>
      <trkpt lat="48.39518" lon="2.5431">
        <ele>143</ele>
        <time>2012-12-27T08:21:50.000Z</time>
      </trkpt>
      <trkpt lat="48.39507" lon="2.54308">
        <ele>143</ele>
        <time>2012-12-27T08:21:54.000Z</time>
      </trkpt>
      <trkpt lat="48.39496" lon="2.54302">
        <ele>143</ele>
        <time>2012-12-27T08:21:58.000Z</time>
      </trkpt>
      <trkpt lat="48.39493" lon="2.54303">
        <ele>143</ele>
        <time>2012-12-27T08:22:00.000Z</time>
      </trkpt>
      <trkpt lat="48.39482" lon="2.54326">
        <ele>143</ele>
        <time>2012-12-27T08:22:08.000Z</time>
      </trkpt>
      <trkpt lat="48.39479" lon="2.54333">
        <ele>143</ele>
        <time>2012-12-27T08:22:10.000Z</time>
      </trkpt>
      <trkpt lat="48.39473" lon="2.54341">
        <ele>143</ele>
        <time>2012-12-27T08:22:13.000Z</time>
      </trkpt>
      <trkpt lat="48.39474" lon="2.54355">
        <ele>143</ele>
        <time>2012-12-27T08:22:17.000Z</time>
      </trkpt>
      <trkpt lat="48.39473" lon="2.54376">
        <ele>143</ele>
        <time>2012-12-27T08:22:22.000Z</time>
      </trkpt>
      <trkpt lat="48.39466" lon="2.54397">
        <ele>143</ele>
        <time>2012-12-27T08:22:28.000Z</time>
      </trkpt>
      <trkpt lat="48.39462" lon="2.54415">
        <ele>143</ele>
        <time>2012-12-27T08:22:32.000Z</time>
      </trkpt>
      <trkpt lat="48.39461" lon="2.54429">
        <ele>142.6</ele>
        <time>2012-12-27T08:22:35.000Z</time>
      </trkpt>
      <trkpt lat="48.39458" lon="2.54438">
        <ele>141.8</ele>
        <time>2012-12-27T08:22:37.000Z</time>
      </trkpt>
      <trkpt lat="48.39458" lon="2.54442">
        <ele>141.4</ele>
        <time>2012-12-27T08:22:38.000Z</time>
      </trkpt>
      <trkpt lat="48.39464" lon="2.54473">
        <ele>140.8</ele>
        <time>2012-12-27T08:22:45.000Z</time>
      </trkpt>
      <trkpt lat="48.39461" lon="2.54496">
        <ele>140.8</ele>
        <time>2012-12-27T08:22:50.000Z</time>
      </trkpt>
      <trkpt lat="48.3946" lon="2.54508">
        <ele>140.8</ele>
        <time>2012-12-27T08:22:53.000Z</time>
      </trkpt>
      <trkpt lat="48.39453" lon="2.54525">
        <ele>140.8</ele>
        <time>2012-12-27T08:22:58.000Z</time>
      </trkpt>
      <trkpt lat="48.3945" lon="2.5454">
        <ele>140.8</ele>
        <time>2012-12-27T08:23:02.000Z</time>
      </trkpt>
      <trkpt lat="48.39449" lon="2.54556">
        <ele>140.8</ele>
        <time>2012-12-27T08:23:07.000Z</time>
      </trkpt>
      <trkpt lat="48.39447" lon="2.54563">
        <ele>139.8</ele>
        <time>2012-12-27T08:23:10.000Z</time>
      </trkpt>
      <trkpt lat="48.39446" lon="2.54565">
        <ele>138.4</ele>
        <time>2012-12-27T08:23:12.000Z</time>
      </trkpt>
      <trkpt lat="48.39445" lon="2.54565">
        <ele>137.8</ele>
        <time>2012-12-27T08:23:13.000Z</time>
      </trkpt>
      <trkpt lat="48.39444" lon="2.54566">
        <ele>137</ele>
        <time>2012-12-27T08:23:14.000Z</time>
      </trkpt>
      <trkpt lat="48.39443" lon="2.54565">
        <ele>136.2</ele>
        <time>2012-12-27T08:23:15.000Z</time>
      </trkpt>
      <trkpt lat="48.39442" lon="2.54566">
        <ele>135.6</ele>
        <time>2012-12-27T08:23:16.000Z</time>
      </trkpt>
      <trkpt lat="48.3944" lon="2.54566">
        <ele>135</ele>
        <time>2012-12-27T08:23:17.000Z</time>
      </trkpt>
      <trkpt lat="48.39437" lon="2.54567">
        <ele>134.6</ele>
        <time>2012-12-27T08:23:18.000Z</time>
      </trkpt>
      <trkpt lat="48.39434" lon="2.54567">
        <ele>134.2</ele>
        <time>2012-12-27T08:23:19.000Z</time>
      </trkpt>
      <trkpt lat="48.39424" lon="2.54565">
        <ele>131</ele>
        <time>2012-12-27T08:23:23.000Z</time>
      </trkpt>
      <trkpt lat="48.39421" lon="2.54563">
        <ele>129.6</ele>
        <time>2012-12-27T08:23:25.000Z</time>
      </trkpt>
      <trkpt lat="48.39419" lon="2.54561">
        <ele>128.8</ele>
        <time>2012-12-27T08:23:26.000Z</time>
      </trkpt>
      <trkpt lat="48.39413" lon="2.54558">
        <ele>128.8</ele>
        <time>2012-12-27T08:23:29.000Z</time>
      </trkpt>
      <trkpt lat="48.39411" lon="2.54558">
        <ele>128.4</ele>
        <time>2012-12-27T08:23:30.000Z</time>
      </trkpt>
      <trkpt lat="48.394" lon="2.54554">
        <ele>125.8</ele>
        <time>2012-12-27T08:23:34.000Z</time>
      </trkpt>
      <trkpt lat="48.39389" lon="2.54551">
        <ele>120.6</ele>
        <time>2012-12-27T08:23:40.000Z</time>
      </trkpt>
      <trkpt lat="48.39385" lon="2.54553">
        <ele>119.8</ele>
        <time>2012-12-27T08:23:41.000Z</time>
      </trkpt>
      <trkpt lat="48.39382" lon="2.54555">
        <ele>118.8</ele>
        <time>2012-12-27T08:23:42.000Z</time>
      </trkpt>
      <trkpt lat="48.39379" lon="2.54558">
        <ele>117.6</ele>
        <time>2012-12-27T08:23:43.000Z</time>
      </trkpt>
      <trkpt lat="48.39375" lon="2.54562">
        <ele>116.6</ele>
        <time>2012-12-27T08:23:44.000Z</time>
      </trkpt>
      <trkpt lat="48.39372" lon="2.54566">
        <ele>115.4</ele>
        <time>2012-12-27T08:23:45.000Z</time>
      </trkpt>
      <trkpt lat="48.3937" lon="2.54567">
        <ele>114.2</ele>
        <time>2012-12-27T08:23:46.000Z</time>
      </trkpt>
      <trkpt lat="48.39368" lon="2.54568">
        <ele>112.2</ele>
        <time>2012-12-27T08:23:47.000Z</time>
      </trkpt>
      <trkpt lat="48.39364" lon="2.54568">
        <ele>111.4</ele>
        <time>2012-12-27T08:23:48.000Z</time>
      </trkpt>
      <trkpt lat="48.39353" lon="2.54568">
        <ele>108.8</ele>
        <time>2012-12-27T08:23:51.000Z</time>
      </trkpt>
      <trkpt lat="48.39343" lon="2.54565">
        <ele>108.8</ele>
        <time>2012-12-27T08:23:53.000Z</time>
      </trkpt>
      <trkpt lat="48.39338" lon="2.54557">
        <ele>108.8</ele>
        <time>2012-12-27T08:23:56.000Z</time>
      </trkpt>
      <trkpt lat="48.39332" lon="2.54542">
        <ele>108.8</ele>
        <time>2012-12-27T08:24:01.000Z</time>
      </trkpt>
      <trkpt lat="48.39331" lon="2.5454">
        <ele>108.8</ele>
        <time>2012-12-27T08:24:02.000Z</time>
      </trkpt>
      <trkpt lat="48.39331" lon="2.54526">
        <ele>108.8</ele>
        <time>2012-12-27T08:24:07.000Z</time>
      </trkpt>
      <trkpt lat="48.39332" lon="2.54521">
        <ele>108.8</ele>
        <time>2012-12-27T08:24:09.000Z</time>
      </trkpt>
      <trkpt lat="48.39332" lon="2.5452">
        <ele>108.8</ele>
        <time>2012-12-27T08:24:10.000Z</time>
      </trkpt>
      <trkpt lat="48.39333" lon="2.54516">
        <ele>108.8</ele>
        <time>2012-12-27T08:24:12.000Z</time>
      </trkpt>
      <trkpt lat="48.39333" lon="2.54511">
        <ele>109.2</ele>
        <time>2012-12-27T08:24:14.000Z</time>
      </trkpt>
      <trkpt lat="48.39333" lon="2.54508">
        <ele>109.8</ele>
        <time>2012-12-27T08:24:15.000Z</time>
      </trkpt>
      <trkpt lat="48.39333" lon="2.54482">
        <ele>112.2</ele>
        <time>2012-12-27T08:24:26.000Z</time>
      </trkpt>
      <trkpt lat="48.39333" lon="2.5448">
        <ele>112.6</ele>
        <time>2012-12-27T08:24:27.000Z</time>
      </trkpt>
      <trkpt lat="48.39333" lon="2.54467">
        <ele>113.4</ele>
        <time>2012-12-27T08:24:33.000Z</time>
      </trkpt>
      <trkpt lat="48.39334" lon="2.54465">
        <ele>114</ele>
        <time>2012-12-27T08:24:34.000Z</time>
      </trkpt>
      <trkpt lat="48.39334" lon="2.54463">
        <ele>114.4</ele>
        <time>2012-12-27T08:24:35.000Z</time>
      </trkpt>
      <trkpt lat="48.39334" lon="2.54461">
        <ele>114.8</ele>
        <time>2012-12-27T08:24:36.000Z</time>
      </trkpt>
      <trkpt lat="48.39335" lon="2.54451">
        <ele>116</ele>
        <time>2012-12-27T08:24:41.000Z</time>
      </trkpt>
      <trkpt lat="48.39335" lon="2.54449">
        <ele>116.4</ele>
        <time>2012-12-27T08:24:42.000Z</time>
      </trkpt>
      <trkpt lat="48.39335" lon="2.54447">
        <ele>116.8</ele>
        <time>2012-12-27T08:24:43.000Z</time>
      </trkpt>
      <trkpt lat="48.39335" lon="2.54445">
        <ele>117.2</ele>
        <time>2012-12-27T08:24:44.000Z</time>
      </trkpt>
      <trkpt lat="48.39341" lon="2.54386">
        <ele>121.8</ele>
        <time>2012-12-27T08:25:07.000Z</time>
      </trkpt>
      <trkpt lat="48.39341" lon="2.54383">
        <ele>122.2</ele>
        <time>2012-12-27T08:25:08.000Z</time>
      </trkpt>
      <trkpt lat="48.39341" lon="2.54381">
        <ele>122.6</ele>
        <time>2012-12-27T08:25:09.000Z</time>
      </trkpt>
      <trkpt lat="48.39341" lon="2.54366">
        <ele>124</ele>
        <time>2012-12-27T08:25:16.000Z</time>
      </trkpt>
      <trkpt lat="48.39341" lon="2.5436">
        <ele>124.8</ele>
        <time>2012-12-27T08:25:18.000Z</time>
      </trkpt>
      <trkpt lat="48.39342" lon="2.54338">
        <ele>126.2</ele>
        <time>2012-12-27T08:25:26.000Z</time>
      </trkpt>
      <trkpt lat="48.39343" lon="2.5433">
        <ele>127.8</ele>
        <time>2012-12-27T08:25:30.000Z</time>
      </trkpt>
      <trkpt lat="48.39343" lon="2.5432">
        <ele>128.2</ele>
        <time>2012-12-27T08:25:34.000Z</time>
      </trkpt>
      <trkpt lat="48.39342" lon="2.54315">
        <ele>129</ele>
        <time>2012-12-27T08:25:36.000Z</time>
      </trkpt>
      <trkpt lat="48.39341" lon="2.54312">
        <ele>129.6</ele>
        <time>2012-12-27T08:25:37.000Z</time>
      </trkpt>
      <trkpt lat="48.39342" lon="2.54311">
        <ele>130</ele>
        <time>2012-12-27T08:25:38.000Z</time>
      </trkpt>
      <trkpt lat="48.39342" lon="2.54307">
        <ele>130</ele>
        <time>2012-12-27T08:25:40.000Z</time>
      </trkpt>
      <trkpt lat="48.39339" lon="2.54284">
        <ele>132.2</ele>
        <time>2012-12-27T08:25:49.000Z</time>
      </trkpt>
      <trkpt lat="48.39339" lon="2.54281">
        <ele>132.2</ele>
        <time>2012-12-27T08:25:50.000Z</time>
      </trkpt>
      <trkpt lat="48.3934" lon="2.5426">
        <ele>133.4</ele>
        <time>2012-12-27T08:26:00.000Z</time>
      </trkpt>
      <trkpt lat="48.3934" lon="2.54257">
        <ele>133.8</ele>
        <time>2012-12-27T08:26:01.000Z</time>
      </trkpt>
      <trkpt lat="48.39341" lon="2.54249">
        <ele>134.4</ele>
        <time>2012-12-27T08:26:04.000Z</time>
      </trkpt>
      <trkpt lat="48.39342" lon="2.5423">
        <ele>134.4</ele>
        <time>2012-12-27T08:26:10.000Z</time>
      </trkpt>
      <trkpt lat="48.39347" lon="2.54209">
        <ele>135.6</ele>
        <time>2012-12-27T08:26:17.000Z</time>
      </trkpt>
      <trkpt lat="48.39349" lon="2.54207">
        <ele>136</ele>
        <time>2012-12-27T08:26:18.000Z</time>
      </trkpt>
      <trkpt lat="48.39349" lon="2.54205">
        <ele>136.4</ele>
        <time>2012-12-27T08:26:19.000Z</time>
      </trkpt>
      <trkpt lat="48.39352" lon="2.54201">
        <ele>136.4</ele>
        <time>2012-12-27T08:26:21.000Z</time>
      </trkpt>
      <trkpt lat="48.39354" lon="2.54199">
        <ele>136.4</ele>
        <time>2012-12-27T08:26:22.000Z</time>
      </trkpt>
      <trkpt lat="48.39366" lon="2.54189">
        <ele>136.8</ele>
        <time>2012-12-27T08:26:28.000Z</time>
      </trkpt>
      <trkpt lat="48.3937" lon="2.54186">
        <ele>137.6</ele>
        <time>2012-12-27T08:26:30.000Z</time>
      </trkpt>
      <trkpt lat="48.39374" lon="2.54183">
        <ele>138.4</ele>
        <time>2012-12-27T08:26:32.000Z</time>
      </trkpt>
      <trkpt lat="48.39388" lon="2.54173">
        <ele>138.4</ele>
        <time>2012-12-27T08:26:38.000Z</time>
      </trkpt>
      <trkpt lat="48.39411" lon="2.54145">
        <ele>138.4</ele>
        <time>2012-12-27T08:26:48.000Z</time>
      </trkpt>
      <trkpt lat="48.39427" lon="2.54121">
        <ele>138.4</ele>
        <time>2012-12-27T08:26:55.000Z</time>
      </trkpt>
      <trkpt lat="48.39443" lon="2.54077">
        <ele>138.4</ele>
        <time>2012-12-27T08:27:05.000Z</time>
      </trkpt>
      <trkpt lat="48.39445" lon="2.54067">
        <ele>139.2</ele>
        <time>2012-12-27T08:27:07.000Z</time>
      </trkpt>
      <trkpt lat="48.39448" lon="2.54057">
        <ele>140</ele>
        <time>2012-12-27T08:27:09.000Z</time>
      </trkpt>
      <trkpt lat="48.39458" lon="2.54038">
        <ele>140.4</ele>
        <time>2012-12-27T08:27:14.000Z</time>
      </trkpt>
      <trkpt lat="48.39472" lon="2.53982">
        <ele>140.4</ele>
        <time>2012-12-27T08:27:25.000Z</time>
      </trkpt>
      <trkpt lat="48.39479" lon="2.53932">
        <ele>140.4</ele>
        <time>2012-12-27T08:27:35.000Z</time>
      </trkpt>
      <trkpt lat="48.39479" lon="2.5381">
        <ele>140.4</ele>
        <time>2012-12-27T08:27:58.000Z</time>
      </trkpt>
      <trkpt lat="48.39458" lon="2.53788">
        <ele>140.4</ele>
        <time>2012-12-27T08:28:07.000Z</time>
      </trkpt>
      <trkpt lat="48.39448" lon="2.53771">
        <ele>140.4</ele>
        <time>2012-12-27T08:28:11.000Z</time>
      </trkpt>
      <trkpt lat="48.39443" lon="2.53766">
        <ele>140.4</ele>
        <time>2012-12-27T08:28:13.000Z</time>
      </trkpt>
      <trkpt lat="48.39437" lon="2.53767">
        <ele>140.4</ele>
        <time>2012-12-27T08:28:15.000Z</time>
      </trkpt>
      <trkpt lat="48.39425" lon="2.53773">
        <ele>140.4</ele>
        <time>2012-12-27T08:28:19.000Z</time>
      </trkpt>
      <trkpt lat="48.39419" lon="2.53771">
        <ele>140.4</ele>
        <time>2012-12-27T08:28:21.000Z</time>
      </trkpt>
      <trkpt lat="48.39389" lon="2.53766">
        <ele>140.4</ele>
        <time>2012-12-27T08:28:29.000Z</time>
      </trkpt>
      <trkpt lat="48.39375" lon="2.53774">
        <ele>140.4</ele>
        <time>2012-12-27T08:28:34.000Z</time>
      </trkpt>
      <trkpt lat="48.39366" lon="2.53786">
        <ele>140.4</ele>
        <time>2012-12-27T08:28:38.000Z</time>
      </trkpt>
      <trkpt lat="48.39359" lon="2.53804">
        <ele>140.4</ele>
        <time>2012-12-27T08:28:42.000Z</time>
      </trkpt>
      <trkpt lat="48.39346" lon="2.53816">
        <ele>140.4</ele>
        <time>2012-12-27T08:28:46.000Z</time>
      </trkpt>
      <trkpt lat="48.39329" lon="2.53822">
        <ele>140.4</ele>
        <time>2012-12-27T08:28:51.000Z</time>
      </trkpt>
      <trkpt lat="48.39319" lon="2.53828">
        <ele>140</ele>
        <time>2012-12-27T08:28:54.000Z</time>
      </trkpt>
      <trkpt lat="48.39311" lon="2.53831">
        <ele>139.2</ele>
        <time>2012-12-27T08:28:56.000Z</time>
      </trkpt>
      <trkpt lat="48.39307" lon="2.53833">
        <ele>138.6</ele>
        <time>2012-12-27T08:28:57.000Z</time>
      </trkpt>
      <trkpt lat="48.39298" lon="2.53835">
        <ele>137.8</ele>
        <time>2012-12-27T08:28:59.000Z</time>
      </trkpt>
      <trkpt lat="48.39294" lon="2.53836">
        <ele>137.4</ele>
        <time>2012-12-27T08:29:00.000Z</time>
      </trkpt>
      <trkpt lat="48.39291" lon="2.53841">
        <ele>136.8</ele>
        <time>2012-12-27T08:29:01.000Z</time>
      </trkpt>
      <trkpt lat="48.39286" lon="2.53854">
        <ele>135</ele>
        <time>2012-12-27T08:29:04.000Z</time>
      </trkpt>
      <trkpt lat="48.39284" lon="2.53858">
        <ele>134.4</ele>
        <time>2012-12-27T08:29:05.000Z</time>
      </trkpt>
      <trkpt lat="48.39282" lon="2.5386">
        <ele>133.8</ele>
        <time>2012-12-27T08:29:06.000Z</time>
      </trkpt>
      <trkpt lat="48.39279" lon="2.53862">
        <ele>133.8</ele>
        <time>2012-12-27T08:29:07.000Z</time>
      </trkpt>
      <trkpt lat="48.3927" lon="2.53877">
        <ele>133.8</ele>
        <time>2012-12-27T08:29:11.000Z</time>
      </trkpt>
      <trkpt lat="48.39266" lon="2.53902">
        <ele>133.8</ele>
        <time>2012-12-27T08:29:16.000Z</time>
      </trkpt>
      <trkpt lat="48.39252" lon="2.53915">
        <ele>133.8</ele>
        <time>2012-12-27T08:29:20.000Z</time>
      </trkpt>
      <trkpt lat="48.39241" lon="2.53923">
        <ele>133.8</ele>
        <time>2012-12-27T08:29:24.000Z</time>
      </trkpt>
      <trkpt lat="48.39235" lon="2.53936">
        <ele>133.8</ele>
        <time>2012-12-27T08:29:27.000Z</time>
      </trkpt>
      <trkpt lat="48.39235" lon="2.53941">
        <ele>133.8</ele>
        <time>2012-12-27T08:29:28.000Z</time>
      </trkpt>
      <trkpt lat="48.39232" lon="2.53948">
        <ele>133.8</ele>
        <time>2012-12-27T08:29:30.000Z</time>
      </trkpt>
      <trkpt lat="48.39231" lon="2.53979">
        <ele>133.8</ele>
        <time>2012-12-27T08:29:37.000Z</time>
      </trkpt>
      <trkpt lat="48.39246" lon="2.54026">
        <ele>133.8</ele>
        <time>2012-12-27T08:29:48.000Z</time>
      </trkpt>
      <trkpt lat="48.39247" lon="2.54046">
        <ele>133.8</ele>
        <time>2012-12-27T08:29:52.000Z</time>
      </trkpt>
      <trkpt lat="48.39245" lon="2.54052">
        <ele>133.8</ele>
        <time>2012-12-27T08:29:54.000Z</time>
      </trkpt>
      <trkpt lat="48.39243" lon="2.54056">
        <ele>133.8</ele>
        <time>2012-12-27T08:29:55.000Z</time>
      </trkpt>
      <trkpt lat="48.39244" lon="2.54082">
        <ele>133.8</ele>
        <time>2012-12-27T08:30:03.000Z</time>
      </trkpt>
      <trkpt lat="48.39252" lon="2.54098">
        <ele>133.8</ele>
        <time>2012-12-27T08:30:08.000Z</time>
      </trkpt>
      <trkpt lat="48.39255" lon="2.54107">
        <ele>133.8</ele>
        <time>2012-12-27T08:30:10.000Z</time>
      </trkpt>
      <trkpt lat="48.39254" lon="2.54115">
        <ele>133.8</ele>
        <time>2012-12-27T08:30:12.000Z</time>
      </trkpt>
      <trkpt lat="48.39246" lon="2.54125">
        <ele>133.8</ele>
        <time>2012-12-27T08:30:15.000Z</time>
      </trkpt>
      <trkpt lat="48.3923" lon="2.54159">
        <ele>133.8</ele>
        <time>2012-12-27T08:30:24.000Z</time>
      </trkpt>
      <trkpt lat="48.39218" lon="2.54175">
        <ele>133.8</ele>
        <time>2012-12-27T08:30:28.000Z</time>
      </trkpt>
      <trkpt lat="48.39215" lon="2.54178">
        <ele>133.8</ele>
        <time>2012-12-27T08:30:29.000Z</time>
      </trkpt>
      <trkpt lat="48.39206" lon="2.54206">
        <ele>133.8</ele>
        <time>2012-12-27T08:30:36.000Z</time>
      </trkpt>
      <trkpt lat="48.39204" lon="2.54227">
        <ele>133.8</ele>
        <time>2012-12-27T08:30:40.000Z</time>
      </trkpt>
      <trkpt lat="48.39209" lon="2.54239">
        <ele>133.8</ele>
        <time>2012-12-27T08:30:42.000Z</time>
      </trkpt>
      <trkpt lat="48.3921" lon="2.54247">
        <ele>133.8</ele>
        <time>2012-12-27T08:30:44.000Z</time>
      </trkpt>
      <trkpt lat="48.39205" lon="2.54314">
        <ele>133.8</ele>
        <time>2012-12-27T08:30:56.000Z</time>
      </trkpt>
      <trkpt lat="48.39207" lon="2.54338">
        <ele>132.8</ele>
        <time>2012-12-27T08:31:01.000Z</time>
      </trkpt>
      <trkpt lat="48.39209" lon="2.54341">
        <ele>132.4</ele>
        <time>2012-12-27T08:31:02.000Z</time>
      </trkpt>
      <trkpt lat="48.39212" lon="2.54342">
        <ele>132</ele>
        <time>2012-12-27T08:31:03.000Z</time>
      </trkpt>
      <trkpt lat="48.39214" lon="2.54345">
        <ele>131.6</ele>
        <time>2012-12-27T08:31:04.000Z</time>
      </trkpt>
      <trkpt lat="48.39213" lon="2.5435">
        <ele>131.2</ele>
        <time>2012-12-27T08:31:05.000Z</time>
      </trkpt>
      <trkpt lat="48.3921" lon="2.54353">
        <ele>130.8</ele>
        <time>2012-12-27T08:31:06.000Z</time>
      </trkpt>
      <trkpt lat="48.39209" lon="2.54358">
        <ele>130.2</ele>
        <time>2012-12-27T08:31:07.000Z</time>
      </trkpt>
      <trkpt lat="48.39199" lon="2.54376">
        <ele>128.6</ele>
        <time>2012-12-27T08:31:10.000Z</time>
      </trkpt>
      <trkpt lat="48.3919" lon="2.5438">
        <ele>127.2</ele>
        <time>2012-12-27T08:31:12.000Z</time>
      </trkpt>
      <trkpt lat="48.39188" lon="2.54384">
        <ele>126.6</ele>
        <time>2012-12-27T08:31:13.000Z</time>
      </trkpt>
      <trkpt lat="48.39186" lon="2.5439">
        <ele>125.8</ele>
        <time>2012-12-27T08:31:14.000Z</time>
      </trkpt>
      <trkpt lat="48.39183" lon="2.54393">
        <ele>125.2</ele>
        <time>2012-12-27T08:31:15.000Z</time>
      </trkpt>
      <trkpt lat="48.3918" lon="2.54401">
        <ele>124.6</ele>
        <time>2012-12-27T08:31:16.000Z</time>
      </trkpt>
      <trkpt lat="48.39176" lon="2.54407">
        <ele>123.2</ele>
        <time>2012-12-27T08:31:18.000Z</time>
      </trkpt>
      <trkpt lat="48.39167" lon="2.54479">
        <ele>118</ele>
        <time>2012-12-27T08:31:28.000Z</time>
      </trkpt>
      <trkpt lat="48.39158" lon="2.54506">
        <ele>116.4</ele>
        <time>2012-12-27T08:31:31.000Z</time>
      </trkpt>
      <trkpt lat="48.39157" lon="2.54516">
        <ele>115.8</ele>
        <time>2012-12-27T08:31:32.000Z</time>
      </trkpt>
      <trkpt lat="48.39157" lon="2.54524">
        <ele>115.2</ele>
        <time>2012-12-27T08:31:33.000Z</time>
      </trkpt>
      <trkpt lat="48.39162" lon="2.5454">
        <ele>114</ele>
        <time>2012-12-27T08:31:35.000Z</time>
      </trkpt>
      <trkpt lat="48.3916" lon="2.54563">
        <ele>112.2</ele>
        <time>2012-12-27T08:31:38.000Z</time>
      </trkpt>
      <trkpt lat="48.39161" lon="2.54568">
        <ele>111.8</ele>
        <time>2012-12-27T08:31:39.000Z</time>
      </trkpt>
      <trkpt lat="48.39164" lon="2.54571">
        <ele>111.2</ele>
        <time>2012-12-27T08:31:40.000Z</time>
      </trkpt>
      <trkpt lat="48.39167" lon="2.54572">
        <ele>110.6</ele>
        <time>2012-12-27T08:31:41.000Z</time>
      </trkpt>
      <trkpt lat="48.3917" lon="2.54576">
        <ele>110.2</ele>
        <time>2012-12-27T08:31:42.000Z</time>
      </trkpt>
      <trkpt lat="48.39171" lon="2.54582">
        <ele>109.8</ele>
        <time>2012-12-27T08:31:43.000Z</time>
      </trkpt>
      <trkpt lat="48.39175" lon="2.54589">
        <ele>108.8</ele>
        <time>2012-12-27T08:31:45.000Z</time>
      </trkpt>
      <trkpt lat="48.39175" lon="2.54594">
        <ele>108.4</ele>
        <time>2012-12-27T08:31:46.000Z</time>
      </trkpt>
      <trkpt lat="48.39173" lon="2.54606">
        <ele>107.4</ele>
        <time>2012-12-27T08:31:48.000Z</time>
      </trkpt>
      <trkpt lat="48.39172" lon="2.54614">
        <ele>107</ele>
        <time>2012-12-27T08:31:49.000Z</time>
      </trkpt>
      <trkpt lat="48.39165" lon="2.54655">
        <ele>105.2</ele>
        <time>2012-12-27T08:31:54.000Z</time>
      </trkpt>
      <trkpt lat="48.39165" lon="2.54664">
        <ele>104.2</ele>
        <time>2012-12-27T08:31:55.000Z</time>
      </trkpt>
      <trkpt lat="48.39151" lon="2.54716">
        <ele>102.8</ele>
        <time>2012-12-27T08:32:01.000Z</time>
      </trkpt>
      <trkpt lat="48.39148" lon="2.54733">
        <ele>101.8</ele>
        <time>2012-12-27T08:32:03.000Z</time>
      </trkpt>
      <trkpt lat="48.39151" lon="2.54788">
        <ele>99.8</ele>
        <time>2012-12-27T08:32:10.000Z</time>
      </trkpt>
      <trkpt lat="48.39153" lon="2.54793">
        <ele>99.8</ele>
        <time>2012-12-27T08:32:11.000Z</time>
      </trkpt>
      <trkpt lat="48.3916" lon="2.54822">
        <ele>99.8</ele>
        <time>2012-12-27T08:32:16.000Z</time>
      </trkpt>
      <trkpt lat="48.39156" lon="2.54848">
        <ele>98.6</ele>
        <time>2012-12-27T08:32:20.000Z</time>
      </trkpt>
      <trkpt lat="48.39153" lon="2.54911">
        <ele>97.8</ele>
        <time>2012-12-27T08:32:31.000Z</time>
      </trkpt>
      <trkpt lat="48.3916" lon="2.54945">
        <ele>97.8</ele>
        <time>2012-12-27T08:32:39.000Z</time>
      </trkpt>
      <trkpt lat="48.39158" lon="2.54968">
        <ele>97.2</ele>
        <time>2012-12-27T08:32:43.000Z</time>
      </trkpt>
      <trkpt lat="48.39155" lon="2.54985">
        <ele>95.6</ele>
        <time>2012-12-27T08:32:46.000Z</time>
      </trkpt>
      <trkpt lat="48.39152" lon="2.55001">
        <ele>95.6</ele>
        <time>2012-12-27T08:32:49.000Z</time>
      </trkpt>
      <trkpt lat="48.39131" lon="2.55137">
        <ele>95.6</ele>
        <time>2012-12-27T08:33:13.000Z</time>
      </trkpt>
      <trkpt lat="48.39082" lon="2.55223">
        <ele>95.6</ele>
        <time>2012-12-27T08:33:29.000Z</time>
      </trkpt>
      <trkpt lat="48.39057" lon="2.55249">
        <ele>95.6</ele>
        <time>2012-12-27T08:33:37.000Z</time>
      </trkpt>
      <trkpt lat="48.39048" lon="2.55264">
        <ele>95.6</ele>
        <time>2012-12-27T08:33:41.000Z</time>
      </trkpt>
      <trkpt lat="48.39045" lon="2.55291">
        <ele>95.6</ele>
        <time>2012-12-27T08:33:45.000Z</time>
      </trkpt>
      <trkpt lat="48.39039" lon="2.55375">
        <ele>95.6</ele>
        <time>2012-12-27T08:33:58.000Z</time>
      </trkpt>
      <trkpt lat="48.39038" lon="2.55381">
        <ele>95.6</ele>
        <time>2012-12-27T08:33:59.000Z</time>
      </trkpt>
      <trkpt lat="48.3903" lon="2.55401">
        <ele>94.8</ele>
        <time>2012-12-27T08:34:03.000Z</time>
      </trkpt>
      <trkpt lat="48.39022" lon="2.55414">
        <ele>93.6</ele>
        <time>2012-12-27T08:34:06.000Z</time>
      </trkpt>
      <trkpt lat="48.39018" lon="2.55417">
        <ele>93.6</ele>
        <time>2012-12-27T08:34:07.000Z</time>
      </trkpt>
      <trkpt lat="48.39006" lon="2.55435">
        <ele>93.6</ele>
        <time>2012-12-27T08:34:11.000Z</time>
      </trkpt>
      <trkpt lat="48.38991" lon="2.55472">
        <ele>93.6</ele>
        <time>2012-12-27T08:34:18.000Z</time>
      </trkpt>
      <trkpt lat="48.38991" lon="2.55479">
        <ele>93.6</ele>
        <time>2012-12-27T08:34:19.000Z</time>
      </trkpt>
      <trkpt lat="48.38992" lon="2.55503">
        <ele>93.6</ele>
        <time>2012-12-27T08:34:23.000Z</time>
      </trkpt>
      <trkpt lat="48.39016" lon="2.55605">
        <ele>93.6</ele>
        <time>2012-12-27T08:34:38.000Z</time>
      </trkpt>
      <trkpt lat="48.39056" lon="2.55683">
        <ele>93.6</ele>
        <time>2012-12-27T08:34:52.000Z</time>
      </trkpt>
      <trkpt lat="48.39074" lon="2.55715">
        <ele>93.6</ele>
        <time>2012-12-27T08:34:58.000Z</time>
      </trkpt>
      <trkpt lat="48.39086" lon="2.5574">
        <ele>93.6</ele>
        <time>2012-12-27T08:35:03.000Z</time>
      </trkpt>
      <trkpt lat="48.39087" lon="2.55745">
        <ele>93.6</ele>
        <time>2012-12-27T08:35:04.000Z</time>
      </trkpt>
      <trkpt lat="48.39083" lon="2.55762">
        <ele>93.6</ele>
        <time>2012-12-27T08:35:07.000Z</time>
      </trkpt>
      <trkpt lat="48.38741" lon="2.56176">
        <ele>95.6</ele>
        <time>2012-12-27T08:36:40.000Z</time>
      </trkpt>
      <trkpt lat="48.38663" lon="2.56231">
        <ele>97.8</ele>
        <time>2012-12-27T08:37:00.000Z</time>
      </trkpt>
      <trkpt lat="48.38644" lon="2.56236">
        <ele>98.2</ele>
        <time>2012-12-27T08:37:05.000Z</time>
      </trkpt>
      <trkpt lat="48.3864" lon="2.56235">
        <ele>98.6</ele>
        <time>2012-12-27T08:37:06.000Z</time>
      </trkpt>
      <trkpt lat="48.38632" lon="2.56232">
        <ele>99.4</ele>
        <time>2012-12-27T08:37:08.000Z</time>
      </trkpt>
      <trkpt lat="48.38628" lon="2.56232">
        <ele>99.8</ele>
        <time>2012-12-27T08:37:09.000Z</time>
      </trkpt>
      <trkpt lat="48.38611" lon="2.56228">
        <ele>100.6</ele>
        <time>2012-12-27T08:37:14.000Z</time>
      </trkpt>
      <trkpt lat="48.38604" lon="2.56228">
        <ele>102</ele>
        <time>2012-12-27T08:37:16.000Z</time>
      </trkpt>
      <trkpt lat="48.38593" lon="2.5623">
        <ele>102</ele>
        <time>2012-12-27T08:37:19.000Z</time>
      </trkpt>
      <trkpt lat="48.3859" lon="2.56232">
        <ele>102.4</ele>
        <time>2012-12-27T08:37:20.000Z</time>
      </trkpt>
      <trkpt lat="48.38584" lon="2.56236">
        <ele>103.2</ele>
        <time>2012-12-27T08:37:22.000Z</time>
      </trkpt>
      <trkpt lat="48.3858" lon="2.5624">
        <ele>103.6</ele>
        <time>2012-12-27T08:37:23.000Z</time>
      </trkpt>
      <trkpt lat="48.38578" lon="2.56243">
        <ele>104</ele>
        <time>2012-12-27T08:37:24.000Z</time>
      </trkpt>
      <trkpt lat="48.38559" lon="2.56287">
        <ele>106.4</ele>
        <time>2012-12-27T08:37:34.000Z</time>
      </trkpt>
      <trkpt lat="48.38545" lon="2.56302">
        <ele>106.4</ele>
        <time>2012-12-27T08:37:39.000Z</time>
      </trkpt>
      <trkpt lat="48.38538" lon="2.56304">
        <ele>106.8</ele>
        <time>2012-12-27T08:37:41.000Z</time>
      </trkpt>
      <trkpt lat="48.38531" lon="2.56305">
        <ele>107.6</ele>
        <time>2012-12-27T08:37:43.000Z</time>
      </trkpt>
      <trkpt lat="48.38527" lon="2.56304">
        <ele>108.2</ele>
        <time>2012-12-27T08:37:44.000Z</time>
      </trkpt>
      <trkpt lat="48.38523" lon="2.56303">
        <ele>108.6</ele>
        <time>2012-12-27T08:37:45.000Z</time>
      </trkpt>
      <trkpt lat="48.38507" lon="2.5631">
        <ele>108.6</ele>
        <time>2012-12-27T08:37:50.000Z</time>
      </trkpt>
      <trkpt lat="48.38499" lon="2.5632">
        <ele>109</ele>
        <time>2012-12-27T08:37:53.000Z</time>
      </trkpt>
      <trkpt lat="48.38492" lon="2.56337">
        <ele>110.6</ele>
        <time>2012-12-27T08:37:57.000Z</time>
      </trkpt>
      <trkpt lat="48.38482" lon="2.56355">
        <ele>110.6</ele>
        <time>2012-12-27T08:38:02.000Z</time>
      </trkpt>
      <trkpt lat="48.38474" lon="2.56361">
        <ele>111</ele>
        <time>2012-12-27T08:38:05.000Z</time>
      </trkpt>
      <trkpt lat="48.38471" lon="2.56364">
        <ele>111.4</ele>
        <time>2012-12-27T08:38:06.000Z</time>
      </trkpt>
      <trkpt lat="48.38468" lon="2.56365">
        <ele>111.8</ele>
        <time>2012-12-27T08:38:07.000Z</time>
      </trkpt>
      <trkpt lat="48.38461" lon="2.56366">
        <ele>112.8</ele>
        <time>2012-12-27T08:38:09.000Z</time>
      </trkpt>
      <trkpt lat="48.38447" lon="2.56371">
        <ele>112.8</ele>
        <time>2012-12-27T08:38:13.000Z</time>
      </trkpt>
      <trkpt lat="48.38437" lon="2.56376">
        <ele>113.2</ele>
        <time>2012-12-27T08:38:16.000Z</time>
      </trkpt>
      <trkpt lat="48.38426" lon="2.56391">
        <ele>114.8</ele>
        <time>2012-12-27T08:38:20.000Z</time>
      </trkpt>
      <trkpt lat="48.3841" lon="2.56423">
        <ele>114.8</ele>
        <time>2012-12-27T08:38:27.000Z</time>
      </trkpt>
      <trkpt lat="48.38404" lon="2.56447">
        <ele>114.8</ele>
        <time>2012-12-27T08:38:32.000Z</time>
      </trkpt>
      <trkpt lat="48.38393" lon="2.56476">
        <ele>114.8</ele>
        <time>2012-12-27T08:38:38.000Z</time>
      </trkpt>
      <trkpt lat="48.38386" lon="2.56486">
        <ele>115.6</ele>
        <time>2012-12-27T08:38:41.000Z</time>
      </trkpt>
      <trkpt lat="48.38383" lon="2.56488">
        <ele>116</ele>
        <time>2012-12-27T08:38:42.000Z</time>
      </trkpt>
      <trkpt lat="48.38378" lon="2.56492">
        <ele>116.8</ele>
        <time>2012-12-27T08:38:44.000Z</time>
      </trkpt>
      <trkpt lat="48.3836" lon="2.56493">
        <ele>116.8</ele>
        <time>2012-12-27T08:38:49.000Z</time>
      </trkpt>
      <trkpt lat="48.38358" lon="2.56493">
        <ele>117.2</ele>
        <time>2012-12-27T08:38:50.000Z</time>
      </trkpt>
      <trkpt lat="48.38352" lon="2.56493">
        <ele>118</ele>
        <time>2012-12-27T08:38:52.000Z</time>
      </trkpt>
      <trkpt lat="48.38349" lon="2.56494">
        <ele>118.4</ele>
        <time>2012-12-27T08:38:53.000Z</time>
      </trkpt>
      <trkpt lat="48.38346" lon="2.56495">
        <ele>118.8</ele>
        <time>2012-12-27T08:38:54.000Z</time>
      </trkpt>
      <trkpt lat="48.38338" lon="2.56502">
        <ele>119.2</ele>
        <time>2012-12-27T08:38:57.000Z</time>
      </trkpt>
      <trkpt lat="48.38335" lon="2.56506">
        <ele>119.8</ele>
        <time>2012-12-27T08:38:58.000Z</time>
      </trkpt>
      <trkpt lat="48.38332" lon="2.5651">
        <ele>120.2</ele>
        <time>2012-12-27T08:38:59.000Z</time>
      </trkpt>
      <trkpt lat="48.3833" lon="2.56514">
        <ele>120.6</ele>
        <time>2012-12-27T08:39:00.000Z</time>
      </trkpt>
      <trkpt lat="48.38304" lon="2.56546">
        <ele>121.4</ele>
        <time>2012-12-27T08:39:10.000Z</time>
      </trkpt>
      <trkpt lat="48.38302" lon="2.56547">
        <ele>121.8</ele>
        <time>2012-12-27T08:39:11.000Z</time>
      </trkpt>
      <trkpt lat="48.38296" lon="2.56549">
        <ele>122.8</ele>
        <time>2012-12-27T08:39:13.000Z</time>
      </trkpt>
      <trkpt lat="48.38293" lon="2.5655">
        <ele>123.2</ele>
        <time>2012-12-27T08:39:14.000Z</time>
      </trkpt>
      <trkpt lat="48.38288" lon="2.56549">
        <ele>123.2</ele>
        <time>2012-12-27T08:39:16.000Z</time>
      </trkpt>
      <trkpt lat="48.38286" lon="2.56547">
        <ele>123.2</ele>
        <time>2012-12-27T08:39:17.000Z</time>
      </trkpt>
      <trkpt lat="48.38278" lon="2.56544">
        <ele>124</ele>
        <time>2012-12-27T08:39:20.000Z</time>
      </trkpt>
      <trkpt lat="48.38248" lon="2.56544">
        <ele>125.4</ele>
        <time>2012-12-27T08:39:29.000Z</time>
      </trkpt>
      <trkpt lat="48.38242" lon="2.56545">
        <ele>126.2</ele>
        <time>2012-12-27T08:39:31.000Z</time>
      </trkpt>
      <trkpt lat="48.38239" lon="2.56547">
        <ele>126.6</ele>
        <time>2012-12-27T08:39:32.000Z</time>
      </trkpt>
      <trkpt lat="48.38236" lon="2.56547">
        <ele>127</ele>
        <time>2012-12-27T08:39:33.000Z</time>
      </trkpt>
      <trkpt lat="48.38233" lon="2.56549">
        <ele>127.4</ele>
        <time>2012-12-27T08:39:34.000Z</time>
      </trkpt>
      <trkpt lat="48.38213" lon="2.5656">
        <ele>127.4</ele>
        <time>2012-12-27T08:39:41.000Z</time>
      </trkpt>
      <trkpt lat="48.38207" lon="2.56562">
        <ele>128.2</ele>
        <time>2012-12-27T08:39:43.000Z</time>
      </trkpt>
      <trkpt lat="48.38204" lon="2.56561">
        <ele>129</ele>
        <time>2012-12-27T08:39:44.000Z</time>
      </trkpt>
      <trkpt lat="48.38201" lon="2.56561">
        <ele>129.6</ele>
        <time>2012-12-27T08:39:45.000Z</time>
      </trkpt>
      <trkpt lat="48.38194" lon="2.56561">
        <ele>129.6</ele>
        <time>2012-12-27T08:39:47.000Z</time>
      </trkpt>
      <trkpt lat="48.38183" lon="2.56558">
        <ele>130</ele>
        <time>2012-12-27T08:39:51.000Z</time>
      </trkpt>
      <trkpt lat="48.3818" lon="2.56558">
        <ele>130.4</ele>
        <time>2012-12-27T08:39:52.000Z</time>
      </trkpt>
      <trkpt lat="48.38178" lon="2.56559">
        <ele>130.8</ele>
        <time>2012-12-27T08:39:53.000Z</time>
      </trkpt>
      <trkpt lat="48.38155" lon="2.56561">
        <ele>131.6</ele>
        <time>2012-12-27T08:40:00.000Z</time>
      </trkpt>
      <trkpt lat="48.38072" lon="2.56577">
        <ele>131.6</ele>
        <time>2012-12-27T08:40:18.000Z</time>
      </trkpt>
      <trkpt lat="48.38057" lon="2.56577">
        <ele>131.6</ele>
        <time>2012-12-27T08:40:21.000Z</time>
      </trkpt>
      <trkpt lat="48.38044" lon="2.56573">
        <ele>130.8</ele>
        <time>2012-12-27T08:40:24.000Z</time>
      </trkpt>
      <trkpt lat="48.38041" lon="2.56572">
        <ele>130.4</ele>
        <time>2012-12-27T08:40:25.000Z</time>
      </trkpt>
      <trkpt lat="48.38038" lon="2.56574">
        <ele>130</ele>
        <time>2012-12-27T08:40:26.000Z</time>
      </trkpt>
      <trkpt lat="48.38036" lon="2.56577">
        <ele>129.6</ele>
        <time>2012-12-27T08:40:27.000Z</time>
      </trkpt>
      <trkpt lat="48.38031" lon="2.56599">
        <ele>129.6</ele>
        <time>2012-12-27T08:40:31.000Z</time>
      </trkpt>
      <trkpt lat="48.38029" lon="2.56615">
        <ele>129.6</ele>
        <time>2012-12-27T08:40:34.000Z</time>
      </trkpt>
      <trkpt lat="48.38029" lon="2.56639">
        <ele>129.6</ele>
        <time>2012-12-27T08:40:38.000Z</time>
      </trkpt>
      <trkpt lat="48.38023" lon="2.56668">
        <ele>129.6</ele>
        <time>2012-12-27T08:40:43.000Z</time>
      </trkpt>
      <trkpt lat="48.38011" lon="2.56692">
        <ele>129.6</ele>
        <time>2012-12-27T08:40:48.000Z</time>
      </trkpt>
      <trkpt lat="48.37941" lon="2.56786">
        <ele>129.6</ele>
        <time>2012-12-27T08:41:14.000Z</time>
      </trkpt>
      <trkpt lat="48.37901" lon="2.56828">
        <ele>130</ele>
        <time>2012-12-27T08:41:27.000Z</time>
      </trkpt>
      <trkpt lat="48.37898" lon="2.56832">
        <ele>130.4</ele>
        <time>2012-12-27T08:41:28.000Z</time>
      </trkpt>
      <trkpt lat="48.37891" lon="2.5684">
        <ele>131.2</ele>
        <time>2012-12-27T08:41:30.000Z</time>
      </trkpt>
      <trkpt lat="48.37888" lon="2.56844">
        <ele>131.6</ele>
        <time>2012-12-27T08:41:31.000Z</time>
      </trkpt>
      <trkpt lat="48.37878" lon="2.56855">
        <ele>131.6</ele>
        <time>2012-12-27T08:41:34.000Z</time>
      </trkpt>
      <trkpt lat="48.3787" lon="2.56874">
        <ele>131.6</ele>
        <time>2012-12-27T08:41:38.000Z</time>
      </trkpt>
      <trkpt lat="48.3787" lon="2.56904">
        <ele>131.6</ele>
        <time>2012-12-27T08:41:43.000Z</time>
      </trkpt>
      <trkpt lat="48.37876" lon="2.56928">
        <ele>131.6</ele>
        <time>2012-12-27T08:41:48.000Z</time>
      </trkpt>
      <trkpt lat="48.37879" lon="2.56934">
        <ele>131.6</ele>
        <time>2012-12-27T08:41:50.000Z</time>
      </trkpt>
      <trkpt lat="48.37883" lon="2.56934">
        <ele>131.6</ele>
        <time>2012-12-27T08:41:52.000Z</time>
      </trkpt>
      <trkpt lat="48.37891" lon="2.56928">
        <ele>131.6</ele>
        <time>2012-12-27T08:41:55.000Z</time>
      </trkpt>
      <trkpt lat="48.37895" lon="2.56925">
        <ele>131.6</ele>
        <time>2012-12-27T08:41:57.000Z</time>
      </trkpt>
      <trkpt lat="48.37905" lon="2.56924">
        <ele>132</ele>
        <time>2012-12-27T08:42:01.000Z</time>
      </trkpt>
      <trkpt lat="48.37907" lon="2.56925">
        <ele>132.4</ele>
        <time>2012-12-27T08:42:02.000Z</time>
      </trkpt>
      <trkpt lat="48.37908" lon="2.56932">
        <ele>133.8</ele>
        <time>2012-12-27T08:42:05.000Z</time>
      </trkpt>
      <trkpt lat="48.37911" lon="2.56934">
        <ele>134.2</ele>
        <time>2012-12-27T08:42:06.000Z</time>
      </trkpt>
      <trkpt lat="48.37913" lon="2.56934">
        <ele>134.6</ele>
        <time>2012-12-27T08:42:07.000Z</time>
      </trkpt>
      <trkpt lat="48.37918" lon="2.56935">
        <ele>135.4</ele>
        <time>2012-12-27T08:42:09.000Z</time>
      </trkpt>
      <trkpt lat="48.37933" lon="2.56944">
        <ele>135.8</ele>
        <time>2012-12-27T08:42:15.000Z</time>
      </trkpt>
      <trkpt lat="48.38101" lon="2.57121">
        <ele>136.2</ele>
        <time>2012-12-27T08:43:16.000Z</time>
      </trkpt>
      <trkpt lat="48.38103" lon="2.57125">
        <ele>136.6</ele>
        <time>2012-12-27T08:43:17.000Z</time>
      </trkpt>
      <trkpt lat="48.38105" lon="2.57127">
        <ele>137</ele>
        <time>2012-12-27T08:43:18.000Z</time>
      </trkpt>
      <trkpt lat="48.38107" lon="2.57128">
        <ele>137.4</ele>
        <time>2012-12-27T08:43:19.000Z</time>
      </trkpt>
      <trkpt lat="48.3811" lon="2.5713">
        <ele>137.8</ele>
        <time>2012-12-27T08:43:20.000Z</time>
      </trkpt>
      <trkpt lat="48.38127" lon="2.5715">
        <ele>137.8</ele>
        <time>2012-12-27T08:43:25.000Z</time>
      </trkpt>
      <trkpt lat="48.3813" lon="2.57159">
        <ele>137.4</ele>
        <time>2012-12-27T08:43:27.000Z</time>
      </trkpt>
      <trkpt lat="48.38137" lon="2.57166">
        <ele>136.4</ele>
        <time>2012-12-27T08:43:29.000Z</time>
      </trkpt>
      <trkpt lat="48.38143" lon="2.57178">
        <ele>135</ele>
        <time>2012-12-27T08:43:31.000Z</time>
      </trkpt>
      <trkpt lat="48.38145" lon="2.57184">
        <ele>134.4</ele>
        <time>2012-12-27T08:43:32.000Z</time>
      </trkpt>
      <trkpt lat="48.38148" lon="2.5719">
        <ele>133.8</ele>
        <time>2012-12-27T08:43:33.000Z</time>
      </trkpt>
      <trkpt lat="48.38151" lon="2.57193">
        <ele>133.2</ele>
        <time>2012-12-27T08:43:34.000Z</time>
      </trkpt>
      <trkpt lat="48.38157" lon="2.57196">
        <ele>133.2</ele>
        <time>2012-12-27T08:43:36.000Z</time>
      </trkpt>
      <trkpt lat="48.38167" lon="2.57198">
        <ele>133.2</ele>
        <time>2012-12-27T08:43:39.000Z</time>
      </trkpt>
      <trkpt lat="48.38176" lon="2.57204">
        <ele>133.2</ele>
        <time>2012-12-27T08:43:42.000Z</time>
      </trkpt>
      <trkpt lat="48.38189" lon="2.57221">
        <ele>133.2</ele>
        <time>2012-12-27T08:43:47.000Z</time>
      </trkpt>
      <trkpt lat="48.38195" lon="2.57241">
        <ele>133.2</ele>
        <time>2012-12-27T08:43:53.000Z</time>
      </trkpt>
      <trkpt lat="48.38198" lon="2.57239">
        <ele>133.2</ele>
        <time>2012-12-27T08:43:54.000Z</time>
      </trkpt>
      <trkpt lat="48.382" lon="2.57238">
        <ele>133.2</ele>
        <time>2012-12-27T08:43:55.000Z</time>
      </trkpt>
      <trkpt lat="48.38203" lon="2.57237">
        <ele>132.6</ele>
        <time>2012-12-27T08:43:56.000Z</time>
      </trkpt>
      <trkpt lat="48.38206" lon="2.57236">
        <ele>132.2</ele>
        <time>2012-12-27T08:43:57.000Z</time>
      </trkpt>
      <trkpt lat="48.38209" lon="2.57237">
        <ele>131.8</ele>
        <time>2012-12-27T08:43:58.000Z</time>
      </trkpt>
      <trkpt lat="48.38213" lon="2.57239">
        <ele>131.2</ele>
        <time>2012-12-27T08:43:59.000Z</time>
      </trkpt>
      <trkpt lat="48.38216" lon="2.5724">
        <ele>130.8</ele>
        <time>2012-12-27T08:44:00.000Z</time>
      </trkpt>
      <trkpt lat="48.38224" lon="2.57249">
        <ele>130.4</ele>
        <time>2012-12-27T08:44:02.000Z</time>
      </trkpt>
      <trkpt lat="48.38226" lon="2.57253">
        <ele>130</ele>
        <time>2012-12-27T08:44:03.000Z</time>
      </trkpt>
      <trkpt lat="48.38226" lon="2.57256">
        <ele>129.6</ele>
        <time>2012-12-27T08:44:04.000Z</time>
      </trkpt>
      <trkpt lat="48.38227" lon="2.57261">
        <ele>129</ele>
        <time>2012-12-27T08:44:05.000Z</time>
      </trkpt>
      <trkpt lat="48.38228" lon="2.57265">
        <ele>128.6</ele>
        <time>2012-12-27T08:44:06.000Z</time>
      </trkpt>
      <trkpt lat="48.38228" lon="2.57275">
        <ele>128.6</ele>
        <time>2012-12-27T08:44:09.000Z</time>
      </trkpt>
      <trkpt lat="48.38232" lon="2.57283">
        <ele>128.6</ele>
        <time>2012-12-27T08:44:12.000Z</time>
      </trkpt>
      <trkpt lat="48.38234" lon="2.57293">
        <ele>128.6</ele>
        <time>2012-12-27T08:44:15.000Z</time>
      </trkpt>
      <trkpt lat="48.38237" lon="2.57301">
        <ele>129.2</ele>
        <time>2012-12-27T08:44:18.000Z</time>
      </trkpt>
      <trkpt lat="48.38237" lon="2.57303">
        <ele>129.6</ele>
        <time>2012-12-27T08:44:19.000Z</time>
      </trkpt>
      <trkpt lat="48.38239" lon="2.57307">
        <ele>130.4</ele>
        <time>2012-12-27T08:44:21.000Z</time>
      </trkpt>
      <trkpt lat="48.38241" lon="2.57317">
        <ele>131.6</ele>
        <time>2012-12-27T08:44:25.000Z</time>
      </trkpt>
      <trkpt lat="48.38241" lon="2.57319">
        <ele>132</ele>
        <time>2012-12-27T08:44:26.000Z</time>
      </trkpt>
      <trkpt lat="48.38242" lon="2.57321">
        <ele>132.6</ele>
        <time>2012-12-27T08:44:27.000Z</time>
      </trkpt>
      <trkpt lat="48.38246" lon="2.5733">
        <ele>133.4</ele>
        <time>2012-12-27T08:44:31.000Z</time>
      </trkpt>
      <trkpt lat="48.38248" lon="2.57333">
        <ele>134.2</ele>
        <time>2012-12-27T08:44:33.000Z</time>
      </trkpt>
      <trkpt lat="48.38249" lon="2.57333">
        <ele>134.6</ele>
        <time>2012-12-27T08:44:34.000Z</time>
      </trkpt>
      <trkpt lat="48.3825" lon="2.57332">
        <ele>135</ele>
        <time>2012-12-27T08:44:35.000Z</time>
      </trkpt>
      <trkpt lat="48.38251" lon="2.57333">
        <ele>135</ele>
        <time>2012-12-27T08:44:36.000Z</time>
      </trkpt>
      <trkpt lat="48.38252" lon="2.57331">
        <ele>135</ele>
        <time>2012-12-27T08:44:38.000Z</time>
      </trkpt>
      <trkpt lat="48.38257" lon="2.57331">
        <ele>135</ele>
        <time>2012-12-27T08:44:41.000Z</time>
      </trkpt>
      <trkpt lat="48.3826" lon="2.57332">
        <ele>135</ele>
        <time>2012-12-27T08:44:42.000Z</time>
      </trkpt>
      <trkpt lat="48.38277" lon="2.57343">
        <ele>135</ele>
        <time>2012-12-27T08:44:46.000Z</time>
      </trkpt>
      <trkpt lat="48.3829" lon="2.57364">
        <ele>135</ele>
        <time>2012-12-27T08:44:50.000Z</time>
      </trkpt>
      <trkpt lat="48.38291" lon="2.57368">
        <ele>135</ele>
        <time>2012-12-27T08:44:51.000Z</time>
      </trkpt>
      <trkpt lat="48.3829" lon="2.57389">
        <ele>135</ele>
        <time>2012-12-27T08:44:56.000Z</time>
      </trkpt>
      <trkpt lat="48.38295" lon="2.57439">
        <ele>135</ele>
        <time>2012-12-27T08:45:06.000Z</time>
      </trkpt>
      <trkpt lat="48.38298" lon="2.57449">
        <ele>134.6</ele>
        <time>2012-12-27T08:45:08.000Z</time>
      </trkpt>
      <trkpt lat="48.38301" lon="2.57454">
        <ele>134</ele>
        <time>2012-12-27T08:45:09.000Z</time>
      </trkpt>
      <trkpt lat="48.38305" lon="2.57458">
        <ele>133.6</ele>
        <time>2012-12-27T08:45:10.000Z</time>
      </trkpt>
      <trkpt lat="48.38308" lon="2.57461">
        <ele>133.2</ele>
        <time>2012-12-27T08:45:11.000Z</time>
      </trkpt>
      <trkpt lat="48.38312" lon="2.57463">
        <ele>132.8</ele>
        <time>2012-12-27T08:45:12.000Z</time>
      </trkpt>
      <trkpt lat="48.38332" lon="2.5747">
        <ele>131.8</ele>
        <time>2012-12-27T08:45:16.000Z</time>
      </trkpt>
      <trkpt lat="48.38338" lon="2.57473">
        <ele>131.4</ele>
        <time>2012-12-27T08:45:17.000Z</time>
      </trkpt>
      <trkpt lat="48.38358" lon="2.57494">
        <ele>129</ele>
        <time>2012-12-27T08:45:21.000Z</time>
      </trkpt>
      <trkpt lat="48.38366" lon="2.57501">
        <ele>127.2</ele>
        <time>2012-12-27T08:45:23.000Z</time>
      </trkpt>
      <trkpt lat="48.38369" lon="2.57503">
        <ele>126.4</ele>
        <time>2012-12-27T08:45:24.000Z</time>
      </trkpt>
      <trkpt lat="48.38372" lon="2.57504">
        <ele>125.6</ele>
        <time>2012-12-27T08:45:25.000Z</time>
      </trkpt>
      <trkpt lat="48.38377" lon="2.57504">
        <ele>124.2</ele>
        <time>2012-12-27T08:45:27.000Z</time>
      </trkpt>
      <trkpt lat="48.38388" lon="2.57507">
        <ele>121.6</ele>
        <time>2012-12-27T08:45:30.000Z</time>
      </trkpt>
      <trkpt lat="48.38408" lon="2.57517">
        <ele>119</ele>
        <time>2012-12-27T08:45:34.000Z</time>
      </trkpt>
      <trkpt lat="48.38419" lon="2.57521">
        <ele>117.4</ele>
        <time>2012-12-27T08:45:36.000Z</time>
      </trkpt>
      <trkpt lat="48.38423" lon="2.57524">
        <ele>116.6</ele>
        <time>2012-12-27T08:45:37.000Z</time>
      </trkpt>
      <trkpt lat="48.38431" lon="2.57537">
        <ele>113.8</ele>
        <time>2012-12-27T08:45:41.000Z</time>
      </trkpt>
      <trkpt lat="48.38433" lon="2.57538">
        <ele>113.2</ele>
        <time>2012-12-27T08:45:42.000Z</time>
      </trkpt>
      <trkpt lat="48.38435" lon="2.57538">
        <ele>112.6</ele>
        <time>2012-12-27T08:45:43.000Z</time>
      </trkpt>
      <trkpt lat="48.38438" lon="2.57536">
        <ele>111.4</ele>
        <time>2012-12-27T08:45:45.000Z</time>
      </trkpt>
      <trkpt lat="48.38441" lon="2.57535">
        <ele>111</ele>
        <time>2012-12-27T08:45:46.000Z</time>
      </trkpt>
      <trkpt lat="48.38445" lon="2.57536">
        <ele>110.4</ele>
        <time>2012-12-27T08:45:47.000Z</time>
      </trkpt>
      <trkpt lat="48.38449" lon="2.57539">
        <ele>109.8</ele>
        <time>2012-12-27T08:45:48.000Z</time>
      </trkpt>
      <trkpt lat="48.38454" lon="2.57542">
        <ele>109.2</ele>
        <time>2012-12-27T08:45:49.000Z</time>
      </trkpt>
      <trkpt lat="48.3847" lon="2.57559">
        <ele>106.2</ele>
        <time>2012-12-27T08:45:53.000Z</time>
      </trkpt>
      <trkpt lat="48.38475" lon="2.5757">
        <ele>106.2</ele>
        <time>2012-12-27T08:45:57.000Z</time>
      </trkpt>
      <trkpt lat="48.38472" lon="2.57641">
        <ele>106.2</ele>
        <time>2012-12-27T08:46:13.000Z</time>
      </trkpt>
      <trkpt lat="48.38457" lon="2.57772">
        <ele>106.2</ele>
        <time>2012-12-27T08:46:37.000Z</time>
      </trkpt>
      <trkpt lat="48.38452" lon="2.57799">
        <ele>106.2</ele>
        <time>2012-12-27T08:46:42.000Z</time>
      </trkpt>
      <trkpt lat="48.38444" lon="2.57818">
        <ele>106.2</ele>
        <time>2012-12-27T08:46:46.000Z</time>
      </trkpt>
      <trkpt lat="48.38429" lon="2.57886">
        <ele>106.2</ele>
        <time>2012-12-27T08:47:00.000Z</time>
      </trkpt>
      <trkpt lat="48.38431" lon="2.57929">
        <ele>108.2</ele>
        <time>2012-12-27T08:47:08.000Z</time>
      </trkpt>
      <trkpt lat="48.38424" lon="2.57982">
        <ele>108.2</ele>
        <time>2012-12-27T08:47:18.000Z</time>
      </trkpt>
      <trkpt lat="48.38413" lon="2.58015">
        <ele>108.2</ele>
        <time>2012-12-27T08:47:25.000Z</time>
      </trkpt>
      <trkpt lat="48.38404" lon="2.58062">
        <ele>108.2</ele>
        <time>2012-12-27T08:47:36.000Z</time>
      </trkpt>
      <trkpt lat="48.38405" lon="2.58075">
        <ele>108.2</ele>
        <time>2012-12-27T08:47:40.000Z</time>
      </trkpt>
      <trkpt lat="48.38412" lon="2.58077">
        <ele>108.6</ele>
        <time>2012-12-27T08:47:43.000Z</time>
      </trkpt>
      <trkpt lat="48.38421" lon="2.58072">
        <ele>110.4</ele>
        <time>2012-12-27T08:47:47.000Z</time>
      </trkpt>
      <trkpt lat="48.38432" lon="2.58064">
        <ele>110.4</ele>
        <time>2012-12-27T08:47:51.000Z</time>
      </trkpt>
      <trkpt lat="48.38441" lon="2.58055">
        <ele>110.4</ele>
        <time>2012-12-27T08:47:55.000Z</time>
      </trkpt>
      <trkpt lat="48.38446" lon="2.58051">
        <ele>110.4</ele>
        <time>2012-12-27T08:47:57.000Z</time>
      </trkpt>
      <trkpt lat="48.38448" lon="2.5805">
        <ele>110.8</ele>
        <time>2012-12-27T08:47:58.000Z</time>
      </trkpt>
      <trkpt lat="48.3845" lon="2.58048">
        <ele>111.2</ele>
        <time>2012-12-27T08:47:59.000Z</time>
      </trkpt>
      <trkpt lat="48.38452" lon="2.58046">
        <ele>111.6</ele>
        <time>2012-12-27T08:48:00.000Z</time>
      </trkpt>
      <trkpt lat="48.38454" lon="2.58043">
        <ele>112</ele>
        <time>2012-12-27T08:48:01.000Z</time>
      </trkpt>
      <trkpt lat="48.38456" lon="2.58041">
        <ele>112.4</ele>
        <time>2012-12-27T08:48:02.000Z</time>
      </trkpt>
      <trkpt lat="48.38458" lon="2.58039">
        <ele>112.4</ele>
        <time>2012-12-27T08:48:03.000Z</time>
      </trkpt>
      <trkpt lat="48.38478" lon="2.58015">
        <ele>112.4</ele>
        <time>2012-12-27T08:48:13.000Z</time>
      </trkpt>
      <trkpt lat="48.38482" lon="2.58012">
        <ele>112.8</ele>
        <time>2012-12-27T08:48:15.000Z</time>
      </trkpt>
      <trkpt lat="48.38484" lon="2.58012">
        <ele>113.2</ele>
        <time>2012-12-27T08:48:16.000Z</time>
      </trkpt>
      <trkpt lat="48.38485" lon="2.58012">
        <ele>113.6</ele>
        <time>2012-12-27T08:48:17.000Z</time>
      </trkpt>
      <trkpt lat="48.38486" lon="2.58013">
        <ele>114</ele>
        <time>2012-12-27T08:48:18.000Z</time>
      </trkpt>
      <trkpt lat="48.38491" lon="2.58012">
        <ele>114.4</ele>
        <time>2012-12-27T08:48:24.000Z</time>
      </trkpt>
      <trkpt lat="48.38492" lon="2.58011">
        <ele>114.4</ele>
        <time>2012-12-27T08:48:25.000Z</time>
      </trkpt>
      <trkpt lat="48.38493" lon="2.58011">
        <ele>114.4</ele>
        <time>2012-12-27T08:48:26.000Z</time>
      </trkpt>
      <trkpt lat="48.38498" lon="2.58015">
        <ele>115.6</ele>
        <time>2012-12-27T08:48:30.000Z</time>
      </trkpt>
      <trkpt lat="48.38499" lon="2.58016">
        <ele>116</ele>
        <time>2012-12-27T08:48:31.000Z</time>
      </trkpt>
      <trkpt lat="48.38501" lon="2.58016">
        <ele>116.4</ele>
        <time>2012-12-27T08:48:32.000Z</time>
      </trkpt>
      <trkpt lat="48.38502" lon="2.58015">
        <ele>116.4</ele>
        <time>2012-12-27T08:48:33.000Z</time>
      </trkpt>
      <trkpt lat="48.38506" lon="2.58014">
        <ele>116.4</ele>
        <time>2012-12-27T08:48:39.000Z</time>
      </trkpt>
      <trkpt lat="48.38512" lon="2.58011">
        <ele>116.8</ele>
        <time>2012-12-27T08:48:45.000Z</time>
      </trkpt>
      <trkpt lat="48.38513" lon="2.58011">
        <ele>117.4</ele>
        <time>2012-12-27T08:48:46.000Z</time>
      </trkpt>
      <trkpt lat="48.38514" lon="2.5801">
        <ele>117.8</ele>
        <time>2012-12-27T08:48:47.000Z</time>
      </trkpt>
      <trkpt lat="48.38515" lon="2.5801">
        <ele>118.2</ele>
        <time>2012-12-27T08:48:48.000Z</time>
      </trkpt>
      <trkpt lat="48.38516" lon="2.58009">
        <ele>118.6</ele>
        <time>2012-12-27T08:48:49.000Z</time>
      </trkpt>
      <trkpt lat="48.38516" lon="2.58009">
        <ele>118.6</ele>
        <time>2012-12-27T08:48:51.000Z</time>
      </trkpt>
      <trkpt lat="48.38518" lon="2.58009">
        <ele>118.6</ele>
        <time>2012-12-27T08:48:55.000Z</time>
      </trkpt>
      <trkpt lat="48.38519" lon="2.58008">
        <ele>118.6</ele>
        <time>2012-12-27T08:48:56.000Z</time>
      </trkpt>
      <trkpt lat="48.38519" lon="2.58008">
        <ele>119</ele>
        <time>2012-12-27T08:48:57.000Z</time>
      </trkpt>
      <trkpt lat="48.3852" lon="2.58008">
        <ele>119.4</ele>
        <time>2012-12-27T08:48:58.000Z</time>
      </trkpt>
      <trkpt lat="48.3852" lon="2.58008">
        <ele>119.8</ele>
        <time>2012-12-27T08:48:59.000Z</time>
      </trkpt>
      <trkpt lat="48.38521" lon="2.58008">
        <ele>120.2</ele>
        <time>2012-12-27T08:49:00.000Z</time>
      </trkpt>
      <trkpt lat="48.38521" lon="2.58007">
        <ele>120.6</ele>
        <time>2012-12-27T08:49:01.000Z</time>
      </trkpt>
      <trkpt lat="48.38524" lon="2.58005">
        <ele>120.6</ele>
        <time>2012-12-27T08:49:06.000Z</time>
      </trkpt>
      <trkpt lat="48.38526" lon="2.58004">
        <ele>121</ele>
        <time>2012-12-27T08:49:10.000Z</time>
      </trkpt>
      <trkpt lat="48.38529" lon="2.58003">
        <ele>122.4</ele>
        <time>2012-12-27T08:49:13.000Z</time>
      </trkpt>
      <trkpt lat="48.38529" lon="2.58002">
        <ele>122.8</ele>
        <time>2012-12-27T08:49:14.000Z</time>
      </trkpt>
      <trkpt lat="48.38531" lon="2.58003">
        <ele>122.8</ele>
        <time>2012-12-27T08:49:15.000Z</time>
      </trkpt>
      <trkpt lat="48.38538" lon="2.58003">
        <ele>123.2</ele>
        <time>2012-12-27T08:49:22.000Z</time>
      </trkpt>
      <trkpt lat="48.38539" lon="2.58003">
        <ele>123.6</ele>
        <time>2012-12-27T08:49:23.000Z</time>
      </trkpt>
      <trkpt lat="48.3854" lon="2.58003">
        <ele>124</ele>
        <time>2012-12-27T08:49:24.000Z</time>
      </trkpt>
      <trkpt lat="48.38541" lon="2.58003">
        <ele>124.4</ele>
        <time>2012-12-27T08:49:25.000Z</time>
      </trkpt>
      <trkpt lat="48.38546" lon="2.58004">
        <ele>124.8</ele>
        <time>2012-12-27T08:49:30.000Z</time>
      </trkpt>
      <trkpt lat="48.38552" lon="2.58006">
        <ele>124.8</ele>
        <time>2012-12-27T08:49:35.000Z</time>
      </trkpt>
      <trkpt lat="48.38563" lon="2.58004">
        <ele>124.8</ele>
        <time>2012-12-27T08:49:43.000Z</time>
      </trkpt>
      <trkpt lat="48.38569" lon="2.58001">
        <ele>124.8</ele>
        <time>2012-12-27T08:49:47.000Z</time>
      </trkpt>
      <trkpt lat="48.38573" lon="2.58002">
        <ele>125.6</ele>
        <time>2012-12-27T08:49:50.000Z</time>
      </trkpt>
      <trkpt lat="48.38577" lon="2.58003">
        <ele>126.4</ele>
        <time>2012-12-27T08:49:52.000Z</time>
      </trkpt>
      <trkpt lat="48.38579" lon="2.58002">
        <ele>126.8</ele>
        <time>2012-12-27T08:49:53.000Z</time>
      </trkpt>
      <trkpt lat="48.38581" lon="2.58001">
        <ele>126.8</ele>
        <time>2012-12-27T08:49:54.000Z</time>
      </trkpt>
      <trkpt lat="48.38586" lon="2.57998">
        <ele>126.8</ele>
        <time>2012-12-27T08:49:57.000Z</time>
      </trkpt>
      <trkpt lat="48.38587" lon="2.57998">
        <ele>126.8</ele>
        <time>2012-12-27T08:49:58.000Z</time>
      </trkpt>
      <trkpt lat="48.38592" lon="2.58">
        <ele>126.8</ele>
        <time>2012-12-27T08:50:00.000Z</time>
      </trkpt>
      <trkpt lat="48.38596" lon="2.58001">
        <ele>127.2</ele>
        <time>2012-12-27T08:50:02.000Z</time>
      </trkpt>
      <trkpt lat="48.386" lon="2.58">
        <ele>128</ele>
        <time>2012-12-27T08:50:04.000Z</time>
      </trkpt>
      <trkpt lat="48.38621" lon="2.57987">
        <ele>128.8</ele>
        <time>2012-12-27T08:50:18.000Z</time>
      </trkpt>
      <trkpt lat="48.38625" lon="2.57982">
        <ele>129.4</ele>
        <time>2012-12-27T08:50:21.000Z</time>
      </trkpt>
      <trkpt lat="48.38637" lon="2.57959">
        <ele>132</ele>
        <time>2012-12-27T08:50:32.000Z</time>
      </trkpt>
      <trkpt lat="48.38643" lon="2.57939">
        <ele>133.2</ele>
        <time>2012-12-27T08:50:41.000Z</time>
      </trkpt>
      <trkpt lat="48.38644" lon="2.57937">
        <ele>133.2</ele>
        <time>2012-12-27T08:50:42.000Z</time>
      </trkpt>
      <trkpt lat="48.38645" lon="2.5793">
        <ele>133.6</ele>
        <time>2012-12-27T08:50:46.000Z</time>
      </trkpt>
      <trkpt lat="48.38647" lon="2.57927">
        <ele>135</ele>
        <time>2012-12-27T08:50:48.000Z</time>
      </trkpt>
      <trkpt lat="48.38647" lon="2.57924">
        <ele>135.4</ele>
        <time>2012-12-27T08:50:49.000Z</time>
      </trkpt>
      <trkpt lat="48.38651" lon="2.57916">
        <ele>135.8</ele>
        <time>2012-12-27T08:50:52.000Z</time>
      </trkpt>
      <trkpt lat="48.38659" lon="2.57883">
        <ele>137.6</ele>
        <time>2012-12-27T08:51:03.000Z</time>
      </trkpt>
      <trkpt lat="48.38668" lon="2.57867">
        <ele>137.6</ele>
        <time>2012-12-27T08:51:09.000Z</time>
      </trkpt>
      <trkpt lat="48.38681" lon="2.57856">
        <ele>137.6</ele>
        <time>2012-12-27T08:51:15.000Z</time>
      </trkpt>
      <trkpt lat="48.38682" lon="2.57854">
        <ele>137.6</ele>
        <time>2012-12-27T08:51:16.000Z</time>
      </trkpt>
      <trkpt lat="48.38691" lon="2.57849">
        <ele>137.6</ele>
        <time>2012-12-27T08:51:21.000Z</time>
      </trkpt>
      <trkpt lat="48.38724" lon="2.57835">
        <ele>137.6</ele>
        <time>2012-12-27T08:51:33.000Z</time>
      </trkpt>
      <trkpt lat="48.38756" lon="2.57818">
        <ele>137.6</ele>
        <time>2012-12-27T08:51:44.000Z</time>
      </trkpt>
      <trkpt lat="48.38759" lon="2.57817">
        <ele>137.6</ele>
        <time>2012-12-27T08:51:45.000Z</time>
      </trkpt>
      <trkpt lat="48.38773" lon="2.57822">
        <ele>137.6</ele>
        <time>2012-12-27T08:51:49.000Z</time>
      </trkpt>
      <trkpt lat="48.38795" lon="2.57841">
        <ele>137.6</ele>
        <time>2012-12-27T08:51:59.000Z</time>
      </trkpt>
      <trkpt lat="48.38811" lon="2.57853">
        <ele>137.6</ele>
        <time>2012-12-27T08:52:06.000Z</time>
      </trkpt>
      <trkpt lat="48.38815" lon="2.57856">
        <ele>138</ele>
        <time>2012-12-27T08:52:08.000Z</time>
      </trkpt>
      <trkpt lat="48.3882" lon="2.5786">
        <ele>138.8</ele>
        <time>2012-12-27T08:52:10.000Z</time>
      </trkpt>
      <trkpt lat="48.38825" lon="2.57863">
        <ele>139.8</ele>
        <time>2012-12-27T08:52:12.000Z</time>
      </trkpt>
      <trkpt lat="48.38834" lon="2.57876">
        <ele>139.8</ele>
        <time>2012-12-27T08:52:17.000Z</time>
      </trkpt>
      <trkpt lat="48.38836" lon="2.57896">
        <ele>139.8</ele>
        <time>2012-12-27T08:52:22.000Z</time>
      </trkpt>
      <trkpt lat="48.3887" lon="2.58055">
        <ele>139.8</ele>
        <time>2012-12-27T08:52:54.000Z</time>
      </trkpt>
      <trkpt lat="48.38874" lon="2.58096">
        <ele>139.8</ele>
        <time>2012-12-27T08:53:02.000Z</time>
      </trkpt>
      <trkpt lat="48.38869" lon="2.58154">
        <ele>139.8</ele>
        <time>2012-12-27T08:53:13.000Z</time>
      </trkpt>
      <trkpt lat="48.38868" lon="2.58204">
        <ele>139.8</ele>
        <time>2012-12-27T08:53:23.000Z</time>
      </trkpt>
      <trkpt lat="48.38869" lon="2.58208">
        <ele>139.8</ele>
        <time>2012-12-27T08:53:24.000Z</time>
      </trkpt>
      <trkpt lat="48.38867" lon="2.58267">
        <ele>139.8</ele>
        <time>2012-12-27T08:53:35.000Z</time>
      </trkpt>
      <trkpt lat="48.38851" lon="2.58412">
        <ele>139.8</ele>
        <time>2012-12-27T08:54:05.000Z</time>
      </trkpt>
      <trkpt lat="48.3878" lon="2.58633">
        <ele>139.8</ele>
        <time>2012-12-27T08:54:59.000Z</time>
      </trkpt>
      <trkpt lat="48.38766" lon="2.58661">
        <ele>139.8</ele>
        <time>2012-12-27T08:55:05.000Z</time>
      </trkpt>
      <trkpt lat="48.3875" lon="2.58672">
        <ele>139.8</ele>
        <time>2012-12-27T08:55:10.000Z</time>
      </trkpt>
      <trkpt lat="48.38738" lon="2.58672">
        <ele>139.8</ele>
        <time>2012-12-27T08:55:14.000Z</time>
      </trkpt>
      <trkpt lat="48.38722" lon="2.58669">
        <ele>139.2</ele>
        <time>2012-12-27T08:55:19.000Z</time>
      </trkpt>
      <trkpt lat="48.38676" lon="2.5867">
        <ele>137</ele>
        <time>2012-12-27T08:55:31.000Z</time>
      </trkpt>
      <trkpt lat="48.38672" lon="2.58674">
        <ele>136.6</ele>
        <time>2012-12-27T08:55:32.000Z</time>
      </trkpt>
      <trkpt lat="48.38663" lon="2.58695">
        <ele>135.2</ele>
        <time>2012-12-27T08:55:35.000Z</time>
      </trkpt>
      <trkpt lat="48.38644" lon="2.58742">
        <ele>131.2</ele>
        <time>2012-12-27T08:55:40.000Z</time>
      </trkpt>
      <trkpt lat="48.38642" lon="2.58751">
        <ele>130.2</ele>
        <time>2012-12-27T08:55:41.000Z</time>
      </trkpt>
      <trkpt lat="48.38642" lon="2.58759">
        <ele>129.2</ele>
        <time>2012-12-27T08:55:42.000Z</time>
      </trkpt>
      <trkpt lat="48.38643" lon="2.58774">
        <ele>127.6</ele>
        <time>2012-12-27T08:55:44.000Z</time>
      </trkpt>
      <trkpt lat="48.38651" lon="2.58799">
        <ele>125</ele>
        <time>2012-12-27T08:55:49.000Z</time>
      </trkpt>
      <trkpt lat="48.38651" lon="2.58804">
        <ele>125</ele>
        <time>2012-12-27T08:55:50.000Z</time>
      </trkpt>
      <trkpt lat="48.38656" lon="2.58824">
        <ele>125</ele>
        <time>2012-12-27T08:55:54.000Z</time>
      </trkpt>
      <trkpt lat="48.38657" lon="2.58827">
        <ele>125</ele>
        <time>2012-12-27T08:55:55.000Z</time>
      </trkpt>
      <trkpt lat="48.38667" lon="2.58839">
        <ele>125</ele>
        <time>2012-12-27T08:56:00.000Z</time>
      </trkpt>
      <trkpt lat="48.38677" lon="2.58841">
        <ele>125</ele>
        <time>2012-12-27T08:56:05.000Z</time>
      </trkpt>
      <trkpt lat="48.38682" lon="2.58847">
        <ele>125</ele>
        <time>2012-12-27T08:56:08.000Z</time>
      </trkpt>
      <trkpt lat="48.38686" lon="2.5886">
        <ele>127</ele>
        <time>2012-12-27T08:56:12.000Z</time>
      </trkpt>
      <trkpt lat="48.38687" lon="2.58868">
        <ele>127</ele>
        <time>2012-12-27T08:56:15.000Z</time>
      </trkpt>
      <trkpt lat="48.3869" lon="2.58872">
        <ele>127</ele>
        <time>2012-12-27T08:56:19.000Z</time>
      </trkpt>
      <trkpt lat="48.38693" lon="2.58874">
        <ele>127.4</ele>
        <time>2012-12-27T08:56:21.000Z</time>
      </trkpt>
      <trkpt lat="48.38696" lon="2.58879">
        <ele>128.8</ele>
        <time>2012-12-27T08:56:24.000Z</time>
      </trkpt>
      <trkpt lat="48.38698" lon="2.5888">
        <ele>129.2</ele>
        <time>2012-12-27T08:56:25.000Z</time>
      </trkpt>
      <trkpt lat="48.38703" lon="2.58888">
        <ele>129.2</ele>
        <time>2012-12-27T08:56:30.000Z</time>
      </trkpt>
      <trkpt lat="48.38705" lon="2.5889">
        <ele>129.2</ele>
        <time>2012-12-27T08:56:31.000Z</time>
      </trkpt>
      <trkpt lat="48.38714" lon="2.58902">
        <ele>131.2</ele>
        <time>2012-12-27T08:56:38.000Z</time>
      </trkpt>
      <trkpt lat="48.38715" lon="2.58903">
        <ele>131.2</ele>
        <time>2012-12-27T08:56:39.000Z</time>
      </trkpt>
      <trkpt lat="48.38717" lon="2.58907">
        <ele>131.6</ele>
        <time>2012-12-27T08:56:41.000Z</time>
      </trkpt>
      <trkpt lat="48.38718" lon="2.58909">
        <ele>132.2</ele>
        <time>2012-12-27T08:56:42.000Z</time>
      </trkpt>
      <trkpt lat="48.38718" lon="2.58911">
        <ele>132.6</ele>
        <time>2012-12-27T08:56:43.000Z</time>
      </trkpt>
      <trkpt lat="48.3872" lon="2.58915">
        <ele>133</ele>
        <time>2012-12-27T08:56:44.000Z</time>
      </trkpt>
      <trkpt lat="48.3872" lon="2.58918">
        <ele>133.4</ele>
        <time>2012-12-27T08:56:45.000Z</time>
      </trkpt>
      <trkpt lat="48.38722" lon="2.58927">
        <ele>134</ele>
        <time>2012-12-27T08:56:49.000Z</time>
      </trkpt>
      <trkpt lat="48.38723" lon="2.58929">
        <ele>134.4</ele>
        <time>2012-12-27T08:56:50.000Z</time>
      </trkpt>
      <trkpt lat="48.38723" lon="2.58929">
        <ele>134.8</ele>
        <time>2012-12-27T08:56:51.000Z</time>
      </trkpt>
      <trkpt lat="48.38724" lon="2.58929">
        <ele>135.2</ele>
        <time>2012-12-27T08:56:52.000Z</time>
      </trkpt>
      <trkpt lat="48.38725" lon="2.5893">
        <ele>135.6</ele>
        <time>2012-12-27T08:56:53.000Z</time>
      </trkpt>
      <trkpt lat="48.38729" lon="2.58934">
        <ele>135.6</ele>
        <time>2012-12-27T08:56:56.000Z</time>
      </trkpt>
      <trkpt lat="48.38731" lon="2.58934">
        <ele>135.6</ele>
        <time>2012-12-27T08:56:57.000Z</time>
      </trkpt>
      <trkpt lat="48.3874" lon="2.58934">
        <ele>135.6</ele>
        <time>2012-12-27T08:57:01.000Z</time>
      </trkpt>
      <trkpt lat="48.38749" lon="2.58941">
        <ele>135.6</ele>
        <time>2012-12-27T08:57:06.000Z</time>
      </trkpt>
      <trkpt lat="48.38751" lon="2.58944">
        <ele>135.6</ele>
        <time>2012-12-27T08:57:07.000Z</time>
      </trkpt>
      <trkpt lat="48.38757" lon="2.58959">
        <ele>135.6</ele>
        <time>2012-12-27T08:57:13.000Z</time>
      </trkpt>
      <trkpt lat="48.38757" lon="2.58981">
        <ele>136.2</ele>
        <time>2012-12-27T08:57:21.000Z</time>
      </trkpt>
      <trkpt lat="48.38756" lon="2.58987">
        <ele>137</ele>
        <time>2012-12-27T08:57:23.000Z</time>
      </trkpt>
      <trkpt lat="48.38757" lon="2.59008">
        <ele>137.8</ele>
        <time>2012-12-27T08:57:29.000Z</time>
      </trkpt>
      <trkpt lat="48.38754" lon="2.5903">
        <ele>137.8</ele>
        <time>2012-12-27T08:57:35.000Z</time>
      </trkpt>
      <trkpt lat="48.38753" lon="2.59046">
        <ele>137.8</ele>
        <time>2012-12-27T08:57:39.000Z</time>
      </trkpt>
      <trkpt lat="48.38751" lon="2.59052">
        <ele>137.8</ele>
        <time>2012-12-27T08:57:41.000Z</time>
      </trkpt>
      <trkpt lat="48.3875" lon="2.59066">
        <ele>137.8</ele>
        <time>2012-12-27T08:57:44.000Z</time>
      </trkpt>
      <trkpt lat="48.38751" lon="2.59074">
        <ele>137.8</ele>
        <time>2012-12-27T08:57:46.000Z</time>
      </trkpt>
      <trkpt lat="48.38749" lon="2.59093">
        <ele>137.8</ele>
        <time>2012-12-27T08:57:51.000Z</time>
      </trkpt>
      <trkpt lat="48.38746" lon="2.59098">
        <ele>137.8</ele>
        <time>2012-12-27T08:57:53.000Z</time>
      </trkpt>
      <trkpt lat="48.38742" lon="2.59102">
        <ele>137.8</ele>
        <time>2012-12-27T08:57:55.000Z</time>
      </trkpt>
      <trkpt lat="48.38732" lon="2.59114">
        <ele>137.8</ele>
        <time>2012-12-27T08:57:59.000Z</time>
      </trkpt>
      <trkpt lat="48.38717" lon="2.59138">
        <ele>135.8</ele>
        <time>2012-12-27T08:58:03.000Z</time>
      </trkpt>
      <trkpt lat="48.38713" lon="2.59143">
        <ele>135.2</ele>
        <time>2012-12-27T08:58:04.000Z</time>
      </trkpt>
      <trkpt lat="48.38704" lon="2.59149">
        <ele>133.8</ele>
        <time>2012-12-27T08:58:06.000Z</time>
      </trkpt>
      <trkpt lat="48.387" lon="2.59151">
        <ele>133</ele>
        <time>2012-12-27T08:58:07.000Z</time>
      </trkpt>
      <trkpt lat="48.38695" lon="2.59152">
        <ele>132.2</ele>
        <time>2012-12-27T08:58:08.000Z</time>
      </trkpt>
      <trkpt lat="48.38693" lon="2.59151">
        <ele>131.4</ele>
        <time>2012-12-27T08:58:09.000Z</time>
      </trkpt>
      <trkpt lat="48.3869" lon="2.5915">
        <ele>130.4</ele>
        <time>2012-12-27T08:58:10.000Z</time>
      </trkpt>
      <trkpt lat="48.38689" lon="2.5915">
        <ele>129.4</ele>
        <time>2012-12-27T08:58:11.000Z</time>
      </trkpt>
      <trkpt lat="48.38687" lon="2.59148">
        <ele>128.6</ele>
        <time>2012-12-27T08:58:12.000Z</time>
      </trkpt>
      <trkpt lat="48.38686" lon="2.59148">
        <ele>126.6</ele>
        <time>2012-12-27T08:58:13.000Z</time>
      </trkpt>
      <trkpt lat="48.38684" lon="2.59152">
        <ele>126.6</ele>
        <time>2012-12-27T08:58:15.000Z</time>
      </trkpt>
      <trkpt lat="48.38682" lon="2.59158">
        <ele>126.6</ele>
        <time>2012-12-27T08:58:17.000Z</time>
      </trkpt>
      <trkpt lat="48.3868" lon="2.59163">
        <ele>126.2</ele>
        <time>2012-12-27T08:58:18.000Z</time>
      </trkpt>
      <trkpt lat="48.38677" lon="2.59167">
        <ele>125.8</ele>
        <time>2012-12-27T08:58:19.000Z</time>
      </trkpt>
      <trkpt lat="48.38673" lon="2.59179">
        <ele>124.8</ele>
        <time>2012-12-27T08:58:21.000Z</time>
      </trkpt>
      <trkpt lat="48.38655" lon="2.59237">
        <ele>122.4</ele>
        <time>2012-12-27T08:58:31.000Z</time>
      </trkpt>
      <trkpt lat="48.38642" lon="2.59254">
        <ele>123.6</ele>
        <time>2012-12-27T08:58:38.000Z</time>
      </trkpt>
      <trkpt lat="48.38637" lon="2.59259">
        <ele>124.4</ele>
        <time>2012-12-27T08:58:40.000Z</time>
      </trkpt>
      <trkpt lat="48.38632" lon="2.59267">
        <ele>124.4</ele>
        <time>2012-12-27T08:58:43.000Z</time>
      </trkpt>
      <trkpt lat="48.38623" lon="2.59299">
        <ele>126.2</ele>
        <time>2012-12-27T08:58:52.000Z</time>
      </trkpt>
      <trkpt lat="48.38623" lon="2.59303">
        <ele>126.6</ele>
        <time>2012-12-27T08:58:53.000Z</time>
      </trkpt>
      <trkpt lat="48.38625" lon="2.59329">
        <ele>127.8</ele>
        <time>2012-12-27T08:59:02.000Z</time>
      </trkpt>
      <trkpt lat="48.38625" lon="2.59333">
        <ele>128.2</ele>
        <time>2012-12-27T08:59:03.000Z</time>
      </trkpt>
      <trkpt lat="48.38635" lon="2.59351">
        <ele>129.2</ele>
        <time>2012-12-27T08:59:09.000Z</time>
      </trkpt>
      <trkpt lat="48.38636" lon="2.59353">
        <ele>129.6</ele>
        <time>2012-12-27T08:59:10.000Z</time>
      </trkpt>
      <trkpt lat="48.38645" lon="2.59376">
        <ele>131.6</ele>
        <time>2012-12-27T08:59:18.000Z</time>
      </trkpt>
      <trkpt lat="48.38647" lon="2.59388">
        <ele>133.4</ele>
        <time>2012-12-27T08:59:23.000Z</time>
      </trkpt>
      <trkpt lat="48.38648" lon="2.59392">
        <ele>134.2</ele>
        <time>2012-12-27T08:59:25.000Z</time>
      </trkpt>
      <trkpt lat="48.38651" lon="2.59396">
        <ele>135</ele>
        <time>2012-12-27T08:59:27.000Z</time>
      </trkpt>
      <trkpt lat="48.38668" lon="2.59472">
        <ele>135</ele>
        <time>2012-12-27T08:59:50.000Z</time>
      </trkpt>
      <trkpt lat="48.38665" lon="2.59533">
        <ele>136.8</ele>
        <time>2012-12-27T09:00:04.000Z</time>
      </trkpt>
      <trkpt lat="48.38664" lon="2.59538">
        <ele>137.2</ele>
        <time>2012-12-27T09:00:05.000Z</time>
      </trkpt>
      <trkpt lat="48.38648" lon="2.59751">
        <ele>137.2</ele>
        <time>2012-12-27T09:00:45.000Z</time>
      </trkpt>
      <trkpt lat="48.38651" lon="2.59768">
        <ele>137.2</ele>
        <time>2012-12-27T09:00:49.000Z</time>
      </trkpt>
      <trkpt lat="48.38665" lon="2.5978">
        <ele>137.2</ele>
        <time>2012-12-27T09:00:53.000Z</time>
      </trkpt>
      <trkpt lat="48.38698" lon="2.59802">
        <ele>137.2</ele>
        <time>2012-12-27T09:01:02.000Z</time>
      </trkpt>
      <trkpt lat="48.38732" lon="2.59818">
        <ele>137.2</ele>
        <time>2012-12-27T09:01:14.000Z</time>
      </trkpt>
      <trkpt lat="48.38734" lon="2.5982">
        <ele>137.2</ele>
        <time>2012-12-27T09:01:15.000Z</time>
      </trkpt>
      <trkpt lat="48.3874" lon="2.59826">
        <ele>137.2</ele>
        <time>2012-12-27T09:01:18.000Z</time>
      </trkpt>
      <trkpt lat="48.38742" lon="2.59829">
        <ele>137.2</ele>
        <time>2012-12-27T09:01:19.000Z</time>
      </trkpt>
      <trkpt lat="48.38755" lon="2.59836">
        <ele>137.2</ele>
        <time>2012-12-27T09:01:24.000Z</time>
      </trkpt>
      <trkpt lat="48.38768" lon="2.59848">
        <ele>137.2</ele>
        <time>2012-12-27T09:01:29.000Z</time>
      </trkpt>
      <trkpt lat="48.38778" lon="2.59853">
        <ele>137.2</ele>
        <time>2012-12-27T09:01:34.000Z</time>
      </trkpt>
      <trkpt lat="48.38782" lon="2.59857">
        <ele>137.2</ele>
        <time>2012-12-27T09:01:37.000Z</time>
      </trkpt>
      <trkpt lat="48.38781" lon="2.59857">
        <ele>137.6</ele>
        <time>2012-12-27T09:01:40.000Z</time>
      </trkpt>
      <trkpt lat="48.38793" lon="2.59834">
        <ele>139.4</ele>
        <time>2012-12-27T09:02:11.000Z</time>
      </trkpt>
      <trkpt lat="48.388" lon="2.59812">
        <ele>139.4</ele>
        <time>2012-12-27T09:02:17.000Z</time>
      </trkpt>
      <trkpt lat="48.38811" lon="2.59805">
        <ele>139.4</ele>
        <time>2012-12-27T09:02:21.000Z</time>
      </trkpt>
      <trkpt lat="48.38833" lon="2.59803">
        <ele>139.4</ele>
        <time>2012-12-27T09:02:26.000Z</time>
      </trkpt>
      <trkpt lat="48.38853" lon="2.59798">
        <ele>138.2</ele>
        <time>2012-12-27T09:02:31.000Z</time>
      </trkpt>
      <trkpt lat="48.38859" lon="2.59795">
        <ele>137.4</ele>
        <time>2012-12-27T09:02:33.000Z</time>
      </trkpt>
      <trkpt lat="48.38866" lon="2.59789">
        <ele>137.4</ele>
        <time>2012-12-27T09:02:35.000Z</time>
      </trkpt>
      <trkpt lat="48.38898" lon="2.59779">
        <ele>137.4</ele>
        <time>2012-12-27T09:02:45.000Z</time>
      </trkpt>
      <trkpt lat="48.38907" lon="2.59763">
        <ele>137.4</ele>
        <time>2012-12-27T09:02:49.000Z</time>
      </trkpt>
      <trkpt lat="48.39009" lon="2.59448">
        <ele>137.4</ele>
        <time>2012-12-27T09:03:50.000Z</time>
      </trkpt>
      <trkpt lat="48.3902" lon="2.59426">
        <ele>137.4</ele>
        <time>2012-12-27T09:03:55.000Z</time>
      </trkpt>
      <trkpt lat="48.39059" lon="2.59319">
        <ele>137.4</ele>
        <time>2012-12-27T09:04:15.000Z</time>
      </trkpt>
      <trkpt lat="48.39079" lon="2.59243">
        <ele>137.4</ele>
        <time>2012-12-27T09:04:30.000Z</time>
      </trkpt>
      <trkpt lat="48.3908" lon="2.59221">
        <ele>137.4</ele>
        <time>2012-12-27T09:04:34.000Z</time>
      </trkpt>
      <trkpt lat="48.39077" lon="2.59215">
        <ele>137.4</ele>
        <time>2012-12-27T09:04:35.000Z</time>
      </trkpt>
      <trkpt lat="48.3907" lon="2.59211">
        <ele>137.4</ele>
        <time>2012-12-27T09:04:38.000Z</time>
      </trkpt>
      <trkpt lat="48.39055" lon="2.59213">
        <ele>137.4</ele>
        <time>2012-12-27T09:04:43.000Z</time>
      </trkpt>
      <trkpt lat="48.39032" lon="2.5922">
        <ele>136.8</ele>
        <time>2012-12-27T09:04:49.000Z</time>
      </trkpt>
      <trkpt lat="48.39026" lon="2.59223">
        <ele>136</ele>
        <time>2012-12-27T09:04:51.000Z</time>
      </trkpt>
      <trkpt lat="48.3902" lon="2.59224">
        <ele>135</ele>
        <time>2012-12-27T09:04:53.000Z</time>
      </trkpt>
      <trkpt lat="48.39003" lon="2.59239">
        <ele>135</ele>
        <time>2012-12-27T09:04:58.000Z</time>
      </trkpt>
      <trkpt lat="48.38997" lon="2.59254">
        <ele>135</ele>
        <time>2012-12-27T09:05:02.000Z</time>
      </trkpt>
      <trkpt lat="48.38995" lon="2.5926">
        <ele>135</ele>
        <time>2012-12-27T09:05:04.000Z</time>
      </trkpt>
      <trkpt lat="48.38993" lon="2.59262">
        <ele>135</ele>
        <time>2012-12-27T09:05:06.000Z</time>
      </trkpt>
      <trkpt lat="48.3898" lon="2.59274">
        <ele>130.8</ele>
        <time>2012-12-27T09:05:29.000Z</time>
      </trkpt>
      <trkpt lat="48.38976" lon="2.59275">
        <ele>129.8</ele>
        <time>2012-12-27T09:05:31.000Z</time>
      </trkpt>
      <trkpt lat="48.38974" lon="2.59276">
        <ele>129.4</ele>
        <time>2012-12-27T09:05:32.000Z</time>
      </trkpt>
      <trkpt lat="48.38972" lon="2.5928">
        <ele>129</ele>
        <time>2012-12-27T09:05:33.000Z</time>
      </trkpt>
      <trkpt lat="48.38967" lon="2.59296">
        <ele>128.4</ele>
        <time>2012-12-27T09:05:37.000Z</time>
      </trkpt>
      <trkpt lat="48.38935" lon="2.59469">
        <ele>128.4</ele>
        <time>2012-12-27T09:06:16.000Z</time>
      </trkpt>
      <trkpt lat="48.38929" lon="2.59483">
        <ele>128.4</ele>
        <time>2012-12-27T09:06:20.000Z</time>
      </trkpt>
      <trkpt lat="48.38928" lon="2.59483">
        <ele>128.4</ele>
        <time>2012-12-27T09:06:21.000Z</time>
      </trkpt>
      <trkpt lat="48.38926" lon="2.59483">
        <ele>128.8</ele>
        <time>2012-12-27T09:06:22.000Z</time>
      </trkpt>
      <trkpt lat="48.38923" lon="2.59479">
        <ele>129.6</ele>
        <time>2012-12-27T09:06:24.000Z</time>
      </trkpt>
      <trkpt lat="48.38922" lon="2.59478">
        <ele>130</ele>
        <time>2012-12-27T09:06:25.000Z</time>
      </trkpt>
      <trkpt lat="48.3892" lon="2.59476">
        <ele>130.4</ele>
        <time>2012-12-27T09:06:26.000Z</time>
      </trkpt>
      <trkpt lat="48.38919" lon="2.59476">
        <ele>130.4</ele>
        <time>2012-12-27T09:06:27.000Z</time>
      </trkpt>
      <trkpt lat="48.38913" lon="2.59473">
        <ele>131</ele>
        <time>2012-12-27T09:06:30.000Z</time>
      </trkpt>
      <trkpt lat="48.38911" lon="2.59473">
        <ele>131.4</ele>
        <time>2012-12-27T09:06:31.000Z</time>
      </trkpt>
      <trkpt lat="48.38909" lon="2.59472">
        <ele>132</ele>
        <time>2012-12-27T09:06:32.000Z</time>
      </trkpt>
      <trkpt lat="48.38907" lon="2.5947">
        <ele>132.4</ele>
        <time>2012-12-27T09:06:33.000Z</time>
      </trkpt>
      <trkpt lat="48.38901" lon="2.59465">
        <ele>132.8</ele>
        <time>2012-12-27T09:06:37.000Z</time>
      </trkpt>
      <trkpt lat="48.38901" lon="2.59464">
        <ele>133.2</ele>
        <time>2012-12-27T09:06:38.000Z</time>
      </trkpt>
      <trkpt lat="48.389" lon="2.59462">
        <ele>133.6</ele>
        <time>2012-12-27T09:06:39.000Z</time>
      </trkpt>
      <trkpt lat="48.38899" lon="2.59458">
        <ele>135</ele>
        <time>2012-12-27T09:06:42.000Z</time>
      </trkpt>
      <trkpt lat="48.38898" lon="2.59452">
        <ele>135</ele>
        <time>2012-12-27T09:06:46.000Z</time>
      </trkpt>
      <trkpt lat="48.389" lon="2.59447">
        <ele>135</ele>
        <time>2012-12-27T09:06:51.000Z</time>
      </trkpt>
      <trkpt lat="48.389" lon="2.59447">
        <ele>135</ele>
        <time>2012-12-27T09:06:55.000Z</time>
      </trkpt>
      <trkpt lat="48.38899" lon="2.59441">
        <ele>135</ele>
        <time>2012-12-27T09:06:59.000Z</time>
      </trkpt>
      <trkpt lat="48.38899" lon="2.59427">
        <ele>135</ele>
        <time>2012-12-27T09:07:04.000Z</time>
      </trkpt>
      <trkpt lat="48.38902" lon="2.59409">
        <ele>135</ele>
        <time>2012-12-27T09:07:12.000Z</time>
      </trkpt>
      <trkpt lat="48.38907" lon="2.59396">
        <ele>135</ele>
        <time>2012-12-27T09:07:17.000Z</time>
      </trkpt>
      <trkpt lat="48.38909" lon="2.59388">
        <ele>135</ele>
        <time>2012-12-27T09:07:21.000Z</time>
      </trkpt>
      <trkpt lat="48.38909" lon="2.59384">
        <ele>135</ele>
        <time>2012-12-27T09:07:22.000Z</time>
      </trkpt>
      <trkpt lat="48.38913" lon="2.59352">
        <ele>135</ele>
        <time>2012-12-27T09:07:32.000Z</time>
      </trkpt>
      <trkpt lat="48.38913" lon="2.59337">
        <ele>135</ele>
        <time>2012-12-27T09:07:36.000Z</time>
      </trkpt>
      <trkpt lat="48.38916" lon="2.59304">
        <ele>135</ele>
        <time>2012-12-27T09:07:45.000Z</time>
      </trkpt>
      <trkpt lat="48.38918" lon="2.59298">
        <ele>135</ele>
        <time>2012-12-27T09:07:47.000Z</time>
      </trkpt>
      <trkpt lat="48.3892" lon="2.59293">
        <ele>135</ele>
        <time>2012-12-27T09:07:49.000Z</time>
      </trkpt>
      <trkpt lat="48.38921" lon="2.5929">
        <ele>135</ele>
        <time>2012-12-27T09:07:50.000Z</time>
      </trkpt>
      <trkpt lat="48.38927" lon="2.59275">
        <ele>135.8</ele>
        <time>2012-12-27T09:07:54.000Z</time>
      </trkpt>
      <trkpt lat="48.38927" lon="2.59272">
        <ele>136.2</ele>
        <time>2012-12-27T09:07:56.000Z</time>
      </trkpt>
      <trkpt lat="48.38929" lon="2.59269">
        <ele>136.8</ele>
        <time>2012-12-27T09:07:57.000Z</time>
      </trkpt>
      <trkpt lat="48.38931" lon="2.59263">
        <ele>137.2</ele>
        <time>2012-12-27T09:07:59.000Z</time>
      </trkpt>
      <trkpt lat="48.38939" lon="2.59207">
        <ele>137.2</ele>
        <time>2012-12-27T09:08:13.000Z</time>
      </trkpt>
      <trkpt lat="48.38936" lon="2.59163">
        <ele>137.2</ele>
        <time>2012-12-27T09:08:25.000Z</time>
      </trkpt>
      <trkpt lat="48.38933" lon="2.5915">
        <ele>137.2</ele>
        <time>2012-12-27T09:08:29.000Z</time>
      </trkpt>
      <trkpt lat="48.38931" lon="2.59131">
        <ele>137.2</ele>
        <time>2012-12-27T09:08:35.000Z</time>
      </trkpt>
      <trkpt lat="48.38931" lon="2.59127">
        <ele>137.2</ele>
        <time>2012-12-27T09:08:37.000Z</time>
      </trkpt>
      <trkpt lat="48.38933" lon="2.59122">
        <ele>137.2</ele>
        <time>2012-12-27T09:08:39.000Z</time>
      </trkpt>
      <trkpt lat="48.38934" lon="2.59072">
        <ele>137.2</ele>
        <time>2012-12-27T09:08:53.000Z</time>
      </trkpt>
      <trkpt lat="48.38942" lon="2.5902">
        <ele>137.2</ele>
        <time>2012-12-27T09:09:09.000Z</time>
      </trkpt>
      <trkpt lat="48.38939" lon="2.59007">
        <ele>137.2</ele>
        <time>2012-12-27T09:09:13.000Z</time>
      </trkpt>
      <trkpt lat="48.38933" lon="2.58996">
        <ele>137.6</ele>
        <time>2012-12-27T09:09:18.000Z</time>
      </trkpt>
      <trkpt lat="48.38932" lon="2.58991">
        <ele>138.4</ele>
        <time>2012-12-27T09:09:20.000Z</time>
      </trkpt>
      <trkpt lat="48.38932" lon="2.58987">
        <ele>138.8</ele>
        <time>2012-12-27T09:09:21.000Z</time>
      </trkpt>
      <trkpt lat="48.38933" lon="2.58984">
        <ele>139.2</ele>
        <time>2012-12-27T09:09:22.000Z</time>
      </trkpt>
      <trkpt lat="48.38935" lon="2.5898">
        <ele>139.2</ele>
        <time>2012-12-27T09:09:23.000Z</time>
      </trkpt>
      <trkpt lat="48.38938" lon="2.58963">
        <ele>139.2</ele>
        <time>2012-12-27T09:09:27.000Z</time>
      </trkpt>
      <trkpt lat="48.38938" lon="2.58945">
        <ele>139.2</ele>
        <time>2012-12-27T09:09:32.000Z</time>
      </trkpt>
      <trkpt lat="48.38936" lon="2.58938">
        <ele>139.2</ele>
        <time>2012-12-27T09:09:34.000Z</time>
      </trkpt>
      <trkpt lat="48.38934" lon="2.58934">
        <ele>139.2</ele>
        <time>2012-12-27T09:09:36.000Z</time>
      </trkpt>
      <trkpt lat="48.3893" lon="2.58908">
        <ele>139.2</ele>
        <time>2012-12-27T09:09:45.000Z</time>
      </trkpt>
      <trkpt lat="48.38933" lon="2.58894">
        <ele>139.2</ele>
        <time>2012-12-27T09:09:49.000Z</time>
      </trkpt>
      <trkpt lat="48.38932" lon="2.58878">
        <ele>139.2</ele>
        <time>2012-12-27T09:09:53.000Z</time>
      </trkpt>
      <trkpt lat="48.38933" lon="2.58871">
        <ele>139.2</ele>
        <time>2012-12-27T09:09:55.000Z</time>
      </trkpt>
      <trkpt lat="48.38934" lon="2.58867">
        <ele>139.2</ele>
        <time>2012-12-27T09:09:56.000Z</time>
      </trkpt>
      <trkpt lat="48.38933" lon="2.58854">
        <ele>139.2</ele>
        <time>2012-12-27T09:09:59.000Z</time>
      </trkpt>
      <trkpt lat="48.38928" lon="2.58842">
        <ele>139.2</ele>
        <time>2012-12-27T09:10:03.000Z</time>
      </trkpt>
      <trkpt lat="48.38928" lon="2.58838">
        <ele>139.2</ele>
        <time>2012-12-27T09:10:04.000Z</time>
      </trkpt>
      <trkpt lat="48.38925" lon="2.58811">
        <ele>139.2</ele>
        <time>2012-12-27T09:10:12.000Z</time>
      </trkpt>
      <trkpt lat="48.38925" lon="2.58797">
        <ele>139.2</ele>
        <time>2012-12-27T09:10:16.000Z</time>
      </trkpt>
      <trkpt lat="48.38927" lon="2.58791">
        <ele>139.2</ele>
        <time>2012-12-27T09:10:18.000Z</time>
      </trkpt>
      <trkpt lat="48.3893" lon="2.58771">
        <ele>139.2</ele>
        <time>2012-12-27T09:10:26.000Z</time>
      </trkpt>
      <trkpt lat="48.38939" lon="2.5875">
        <ele>139.2</ele>
        <time>2012-12-27T09:10:32.000Z</time>
      </trkpt>
      <trkpt lat="48.38947" lon="2.58662">
        <ele>139.2</ele>
        <time>2012-12-27T09:10:50.000Z</time>
      </trkpt>
      <trkpt lat="48.38951" lon="2.5865">
        <ele>139.2</ele>
        <time>2012-12-27T09:10:53.000Z</time>
      </trkpt>
      <trkpt lat="48.38955" lon="2.58625">
        <ele>139.2</ele>
        <time>2012-12-27T09:10:59.000Z</time>
      </trkpt>
      <trkpt lat="48.38966" lon="2.58601">
        <ele>139.2</ele>
        <time>2012-12-27T09:11:06.000Z</time>
      </trkpt>
      <trkpt lat="48.38977" lon="2.58578">
        <ele>139.2</ele>
        <time>2012-12-27T09:11:14.000Z</time>
      </trkpt>
      <trkpt lat="48.38979" lon="2.58557">
        <ele>139.2</ele>
        <time>2012-12-27T09:11:20.000Z</time>
      </trkpt>
      <trkpt lat="48.38981" lon="2.5855">
        <ele>139.2</ele>
        <time>2012-12-27T09:11:24.000Z</time>
      </trkpt>
      <trkpt lat="48.38986" lon="2.5852">
        <ele>139.2</ele>
        <time>2012-12-27T09:11:32.000Z</time>
      </trkpt>
      <trkpt lat="48.38987" lon="2.58514">
        <ele>139.2</ele>
        <time>2012-12-27T09:11:33.000Z</time>
      </trkpt>
      <trkpt lat="48.3899" lon="2.5851">
        <ele>139.2</ele>
        <time>2012-12-27T09:11:35.000Z</time>
      </trkpt>
      <trkpt lat="48.38999" lon="2.58499">
        <ele>139.2</ele>
        <time>2012-12-27T09:11:40.000Z</time>
      </trkpt>
      <trkpt lat="48.39012" lon="2.58467">
        <ele>139.2</ele>
        <time>2012-12-27T09:11:50.000Z</time>
      </trkpt>
      <trkpt lat="48.39012" lon="2.58459">
        <ele>139.2</ele>
        <time>2012-12-27T09:11:52.000Z</time>
      </trkpt>
      <trkpt lat="48.39016" lon="2.58434">
        <ele>139.2</ele>
        <time>2012-12-27T09:11:59.000Z</time>
      </trkpt>
      <trkpt lat="48.39017" lon="2.58427">
        <ele>139.2</ele>
        <time>2012-12-27T09:12:01.000Z</time>
      </trkpt>
      <trkpt lat="48.3902" lon="2.5841">
        <ele>139.2</ele>
        <time>2012-12-27T09:12:06.000Z</time>
      </trkpt>
      <trkpt lat="48.39021" lon="2.58406">
        <ele>139.2</ele>
        <time>2012-12-27T09:12:07.000Z</time>
      </trkpt>
      <trkpt lat="48.39023" lon="2.58392">
        <ele>139.2</ele>
        <time>2012-12-27T09:12:11.000Z</time>
      </trkpt>
      <trkpt lat="48.39025" lon="2.58386">
        <ele>139.2</ele>
        <time>2012-12-27T09:12:13.000Z</time>
      </trkpt>
      <trkpt lat="48.39026" lon="2.58379">
        <ele>139.2</ele>
        <time>2012-12-27T09:12:15.000Z</time>
      </trkpt>
      <trkpt lat="48.39024" lon="2.58375">
        <ele>139.2</ele>
        <time>2012-12-27T09:12:17.000Z</time>
      </trkpt>
      <trkpt lat="48.39022" lon="2.58365">
        <ele>139.2</ele>
        <time>2012-12-27T09:12:21.000Z</time>
      </trkpt>
      <trkpt lat="48.39022" lon="2.58332">
        <ele>139.2</ele>
        <time>2012-12-27T09:12:29.000Z</time>
      </trkpt>
      <trkpt lat="48.39024" lon="2.58328">
        <ele>139.2</ele>
        <time>2012-12-27T09:12:31.000Z</time>
      </trkpt>
      <trkpt lat="48.39024" lon="2.58325">
        <ele>139.2</ele>
        <time>2012-12-27T09:12:32.000Z</time>
      </trkpt>
      <trkpt lat="48.39024" lon="2.58322">
        <ele>139.2</ele>
        <time>2012-12-27T09:12:33.000Z</time>
      </trkpt>
      <trkpt lat="48.39023" lon="2.58308">
        <ele>139.2</ele>
        <time>2012-12-27T09:12:37.000Z</time>
      </trkpt>
      <trkpt lat="48.39025" lon="2.58289">
        <ele>139.2</ele>
        <time>2012-12-27T09:12:41.000Z</time>
      </trkpt>
      <trkpt lat="48.39018" lon="2.58272">
        <ele>139.2</ele>
        <time>2012-12-27T09:12:47.000Z</time>
      </trkpt>
      <trkpt lat="48.39018" lon="2.58272">
        <ele>139.2</ele>
        <time>2012-12-27T09:12:48.000Z</time>
      </trkpt>
      <trkpt lat="48.39018" lon="2.58272">
        <ele>139.2</ele>
        <time>2012-12-27T09:12:49.000Z</time>
      </trkpt>
      <trkpt lat="48.3902" lon="2.58272">
        <ele>139.2</ele>
        <time>2012-12-27T09:12:53.000Z</time>
      </trkpt>
      <trkpt lat="48.39021" lon="2.58271">
        <ele>139.2</ele>
        <time>2012-12-27T09:12:55.000Z</time>
      </trkpt>
      <trkpt lat="48.3902" lon="2.58266">
        <ele>139.2</ele>
        <time>2012-12-27T09:12:58.000Z</time>
      </trkpt>
      <trkpt lat="48.39019" lon="2.58264">
        <ele>139.2</ele>
        <time>2012-12-27T09:13:00.000Z</time>
      </trkpt>
      <trkpt lat="48.39019" lon="2.58264">
        <ele>139.2</ele>
        <time>2012-12-27T09:13:03.000Z</time>
      </trkpt>
      <trkpt lat="48.39014" lon="2.58258">
        <ele>139.2</ele>
        <time>2012-12-27T09:13:08.000Z</time>
      </trkpt>
      <trkpt lat="48.39012" lon="2.58257">
        <ele>139.2</ele>
        <time>2012-12-27T09:13:09.000Z</time>
      </trkpt>
      <trkpt lat="48.39006" lon="2.58254">
        <ele>139.2</ele>
        <time>2012-12-27T09:13:12.000Z</time>
      </trkpt>
      <trkpt lat="48.39003" lon="2.58244">
        <ele>139.2</ele>
        <time>2012-12-27T09:13:15.000Z</time>
      </trkpt>
      <trkpt lat="48.39" lon="2.58238">
        <ele>139.2</ele>
        <time>2012-12-27T09:13:17.000Z</time>
      </trkpt>
      <trkpt lat="48.38998" lon="2.58232">
        <ele>139.2</ele>
        <time>2012-12-27T09:13:19.000Z</time>
      </trkpt>
      <trkpt lat="48.39004" lon="2.58191">
        <ele>139.2</ele>
        <time>2012-12-27T09:13:29.000Z</time>
      </trkpt>
      <trkpt lat="48.39009" lon="2.58173">
        <ele>139.2</ele>
        <time>2012-12-27T09:13:34.000Z</time>
      </trkpt>
      <trkpt lat="48.39014" lon="2.58165">
        <ele>139.2</ele>
        <time>2012-12-27T09:13:37.000Z</time>
      </trkpt>
      <trkpt lat="48.39018" lon="2.58154">
        <ele>139.2</ele>
        <time>2012-12-27T09:13:41.000Z</time>
      </trkpt>
      <trkpt lat="48.39019" lon="2.58145">
        <ele>139.2</ele>
        <time>2012-12-27T09:13:44.000Z</time>
      </trkpt>
      <trkpt lat="48.39023" lon="2.58144">
        <ele>139.2</ele>
        <time>2012-12-27T09:13:46.000Z</time>
      </trkpt>
      <trkpt lat="48.39034" lon="2.5813">
        <ele>139.2</ele>
        <time>2012-12-27T09:13:52.000Z</time>
      </trkpt>
      <trkpt lat="48.39034" lon="2.58127">
        <ele>139.2</ele>
        <time>2012-12-27T09:13:53.000Z</time>
      </trkpt>
      <trkpt lat="48.39035" lon="2.58124">
        <ele>139.2</ele>
        <time>2012-12-27T09:13:54.000Z</time>
      </trkpt>
      <trkpt lat="48.39041" lon="2.58111">
        <ele>139.2</ele>
        <time>2012-12-27T09:13:58.000Z</time>
      </trkpt>
      <trkpt lat="48.3904" lon="2.58104">
        <ele>139.2</ele>
        <time>2012-12-27T09:14:00.000Z</time>
      </trkpt>
      <trkpt lat="48.39041" lon="2.581">
        <ele>139.2</ele>
        <time>2012-12-27T09:14:01.000Z</time>
      </trkpt>
      <trkpt lat="48.39042" lon="2.58073">
        <ele>139.2</ele>
        <time>2012-12-27T09:14:10.000Z</time>
      </trkpt>
      <trkpt lat="48.39045" lon="2.58063">
        <ele>139.2</ele>
        <time>2012-12-27T09:14:14.000Z</time>
      </trkpt>
      <trkpt lat="48.39048" lon="2.58061">
        <ele>138.8</ele>
        <time>2012-12-27T09:14:15.000Z</time>
      </trkpt>
      <trkpt lat="48.39049" lon="2.58057">
        <ele>138.4</ele>
        <time>2012-12-27T09:14:16.000Z</time>
      </trkpt>
      <trkpt lat="48.39049" lon="2.58053">
        <ele>137.6</ele>
        <time>2012-12-27T09:14:18.000Z</time>
      </trkpt>
      <trkpt lat="48.39042" lon="2.58038">
        <ele>137.2</ele>
        <time>2012-12-27T09:14:23.000Z</time>
      </trkpt>
      <trkpt lat="48.39043" lon="2.58019">
        <ele>137.2</ele>
        <time>2012-12-27T09:14:27.000Z</time>
      </trkpt>
      <trkpt lat="48.39039" lon="2.57999">
        <ele>137.2</ele>
        <time>2012-12-27T09:14:32.000Z</time>
      </trkpt>
      <trkpt lat="48.39039" lon="2.57986">
        <ele>137.2</ele>
        <time>2012-12-27T09:14:35.000Z</time>
      </trkpt>
      <trkpt lat="48.39039" lon="2.57983">
        <ele>137.2</ele>
        <time>2012-12-27T09:14:36.000Z</time>
      </trkpt>
      <trkpt lat="48.39038" lon="2.57964">
        <ele>137.2</ele>
        <time>2012-12-27T09:14:41.000Z</time>
      </trkpt>
      <trkpt lat="48.39041" lon="2.57951">
        <ele>137.2</ele>
        <time>2012-12-27T09:14:45.000Z</time>
      </trkpt>
      <trkpt lat="48.39047" lon="2.57937">
        <ele>137.2</ele>
        <time>2012-12-27T09:14:50.000Z</time>
      </trkpt>
      <trkpt lat="48.39047" lon="2.57932">
        <ele>137.2</ele>
        <time>2012-12-27T09:14:52.000Z</time>
      </trkpt>
      <trkpt lat="48.39045" lon="2.57924">
        <ele>137.2</ele>
        <time>2012-12-27T09:14:54.000Z</time>
      </trkpt>
      <trkpt lat="48.39044" lon="2.57909">
        <ele>137.2</ele>
        <time>2012-12-27T09:14:58.000Z</time>
      </trkpt>
      <trkpt lat="48.39036" lon="2.57895">
        <ele>137.2</ele>
        <time>2012-12-27T09:15:03.000Z</time>
      </trkpt>
      <trkpt lat="48.3903" lon="2.5789">
        <ele>138</ele>
        <time>2012-12-27T09:15:05.000Z</time>
      </trkpt>
      <trkpt lat="48.39029" lon="2.57888">
        <ele>138.4</ele>
        <time>2012-12-27T09:15:06.000Z</time>
      </trkpt>
      <trkpt lat="48.39025" lon="2.57883">
        <ele>139.2</ele>
        <time>2012-12-27T09:15:08.000Z</time>
      </trkpt>
      <trkpt lat="48.39012" lon="2.57862">
        <ele>139.2</ele>
        <time>2012-12-27T09:15:14.000Z</time>
      </trkpt>
      <trkpt lat="48.39007" lon="2.5785">
        <ele>139.2</ele>
        <time>2012-12-27T09:15:18.000Z</time>
      </trkpt>
      <trkpt lat="48.39005" lon="2.57848">
        <ele>139.2</ele>
        <time>2012-12-27T09:15:19.000Z</time>
      </trkpt>
      <trkpt lat="48.39001" lon="2.57834">
        <ele>139.2</ele>
        <time>2012-12-27T09:15:24.000Z</time>
      </trkpt>
      <trkpt lat="48.39003" lon="2.57817">
        <ele>139.2</ele>
        <time>2012-12-27T09:15:29.000Z</time>
      </trkpt>
      <trkpt lat="48.39001" lon="2.57799">
        <ele>139.2</ele>
        <time>2012-12-27T09:15:35.000Z</time>
      </trkpt>
      <trkpt lat="48.39004" lon="2.57781">
        <ele>139.2</ele>
        <time>2012-12-27T09:15:43.000Z</time>
      </trkpt>
      <trkpt lat="48.39004" lon="2.57774">
        <ele>138.8</ele>
        <time>2012-12-27T09:15:45.000Z</time>
      </trkpt>
      <trkpt lat="48.39006" lon="2.57767">
        <ele>138</ele>
        <time>2012-12-27T09:15:47.000Z</time>
      </trkpt>
      <trkpt lat="48.39008" lon="2.57761">
        <ele>137.2</ele>
        <time>2012-12-27T09:15:49.000Z</time>
      </trkpt>
      <trkpt lat="48.39012" lon="2.57741">
        <ele>137.2</ele>
        <time>2012-12-27T09:15:55.000Z</time>
      </trkpt>
      <trkpt lat="48.39011" lon="2.57722">
        <ele>137.2</ele>
        <time>2012-12-27T09:16:00.000Z</time>
      </trkpt>
      <trkpt lat="48.39012" lon="2.57718">
        <ele>137.2</ele>
        <time>2012-12-27T09:16:02.000Z</time>
      </trkpt>
      <trkpt lat="48.39013" lon="2.57713">
        <ele>137.2</ele>
        <time>2012-12-27T09:16:04.000Z</time>
      </trkpt>
      <trkpt lat="48.39019" lon="2.57699">
        <ele>137.2</ele>
        <time>2012-12-27T09:16:08.000Z</time>
      </trkpt>
      <trkpt lat="48.39025" lon="2.57687">
        <ele>137.2</ele>
        <time>2012-12-27T09:16:12.000Z</time>
      </trkpt>
      <trkpt lat="48.39026" lon="2.57684">
        <ele>137.2</ele>
        <time>2012-12-27T09:16:13.000Z</time>
      </trkpt>
      <trkpt lat="48.39027" lon="2.57658">
        <ele>137.2</ele>
        <time>2012-12-27T09:16:19.000Z</time>
      </trkpt>
      <trkpt lat="48.39028" lon="2.57653">
        <ele>137.2</ele>
        <time>2012-12-27T09:16:21.000Z</time>
      </trkpt>
      <trkpt lat="48.39031" lon="2.5765">
        <ele>137.2</ele>
        <time>2012-12-27T09:16:23.000Z</time>
      </trkpt>
      <trkpt lat="48.39033" lon="2.57648">
        <ele>137.2</ele>
        <time>2012-12-27T09:16:25.000Z</time>
      </trkpt>
      <trkpt lat="48.39034" lon="2.57645">
        <ele>137.2</ele>
        <time>2012-12-27T09:16:27.000Z</time>
      </trkpt>
      <trkpt lat="48.39037" lon="2.57631">
        <ele>137.2</ele>
        <time>2012-12-27T09:16:31.000Z</time>
      </trkpt>
      <trkpt lat="48.39035" lon="2.5762">
        <ele>137.2</ele>
        <time>2012-12-27T09:16:35.000Z</time>
      </trkpt>
      <trkpt lat="48.39035" lon="2.57588">
        <ele>137.2</ele>
        <time>2012-12-27T09:16:43.000Z</time>
      </trkpt>
      <trkpt lat="48.39037" lon="2.57582">
        <ele>137.2</ele>
        <time>2012-12-27T09:16:45.000Z</time>
      </trkpt>
      <trkpt lat="48.39039" lon="2.57571">
        <ele>137.2</ele>
        <time>2012-12-27T09:16:49.000Z</time>
      </trkpt>
      <trkpt lat="48.39038" lon="2.57553">
        <ele>137.2</ele>
        <time>2012-12-27T09:16:54.000Z</time>
      </trkpt>
      <trkpt lat="48.39038" lon="2.5755">
        <ele>137.2</ele>
        <time>2012-12-27T09:16:56.000Z</time>
      </trkpt>
      <trkpt lat="48.39038" lon="2.57549">
        <ele>137.2</ele>
        <time>2012-12-27T09:16:58.000Z</time>
      </trkpt>
      <trkpt lat="48.39043" lon="2.5752">
        <ele>137.2</ele>
        <time>2012-12-27T09:17:09.000Z</time>
      </trkpt>
      <trkpt lat="48.39041" lon="2.57504">
        <ele>137.2</ele>
        <time>2012-12-27T09:17:13.000Z</time>
      </trkpt>
      <trkpt lat="48.39027" lon="2.57485">
        <ele>137.2</ele>
        <time>2012-12-27T09:17:21.000Z</time>
      </trkpt>
      <trkpt lat="48.39022" lon="2.57478">
        <ele>137.2</ele>
        <time>2012-12-27T09:17:24.000Z</time>
      </trkpt>
      <trkpt lat="48.39025" lon="2.57459">
        <ele>137.2</ele>
        <time>2012-12-27T09:17:29.000Z</time>
      </trkpt>
      <trkpt lat="48.39025" lon="2.57455">
        <ele>137.2</ele>
        <time>2012-12-27T09:17:30.000Z</time>
      </trkpt>
      <trkpt lat="48.39021" lon="2.57444">
        <ele>136.8</ele>
        <time>2012-12-27T09:17:33.000Z</time>
      </trkpt>
      <trkpt lat="48.39022" lon="2.57442">
        <ele>136.2</ele>
        <time>2012-12-27T09:17:34.000Z</time>
      </trkpt>
      <trkpt lat="48.39022" lon="2.57441">
        <ele>135.8</ele>
        <time>2012-12-27T09:17:35.000Z</time>
      </trkpt>
      <trkpt lat="48.39021" lon="2.57436">
        <ele>135.4</ele>
        <time>2012-12-27T09:17:37.000Z</time>
      </trkpt>
      <trkpt lat="48.39022" lon="2.57388">
        <ele>137.4</ele>
        <time>2012-12-27T09:17:50.000Z</time>
      </trkpt>
      <trkpt lat="48.39022" lon="2.57385">
        <ele>137.4</ele>
        <time>2012-12-27T09:17:53.000Z</time>
      </trkpt>
      <trkpt lat="48.39024" lon="2.57382">
        <ele>137.4</ele>
        <time>2012-12-27T09:17:55.000Z</time>
      </trkpt>
      <trkpt lat="48.39027" lon="2.57382">
        <ele>137.4</ele>
        <time>2012-12-27T09:17:57.000Z</time>
      </trkpt>
      <trkpt lat="48.3903" lon="2.57376">
        <ele>137.4</ele>
        <time>2012-12-27T09:18:00.000Z</time>
      </trkpt>
      <trkpt lat="48.39032" lon="2.57372">
        <ele>137.4</ele>
        <time>2012-12-27T09:18:03.000Z</time>
      </trkpt>
      <trkpt lat="48.39036" lon="2.57367">
        <ele>137.4</ele>
        <time>2012-12-27T09:18:07.000Z</time>
      </trkpt>
      <trkpt lat="48.39044" lon="2.57352">
        <ele>137.4</ele>
        <time>2012-12-27T09:18:13.000Z</time>
      </trkpt>
      <trkpt lat="48.39045" lon="2.57344">
        <ele>137.4</ele>
        <time>2012-12-27T09:18:16.000Z</time>
      </trkpt>
      <trkpt lat="48.39045" lon="2.5734">
        <ele>137.4</ele>
        <time>2012-12-27T09:18:17.000Z</time>
      </trkpt>
      <trkpt lat="48.39054" lon="2.57314">
        <ele>137.4</ele>
        <time>2012-12-27T09:18:27.000Z</time>
      </trkpt>
      <trkpt lat="48.39056" lon="2.57312">
        <ele>137.4</ele>
        <time>2012-12-27T09:18:29.000Z</time>
      </trkpt>
      <trkpt lat="48.39059" lon="2.57309">
        <ele>137.4</ele>
        <time>2012-12-27T09:18:30.000Z</time>
      </trkpt>
      <trkpt lat="48.39067" lon="2.57308">
        <ele>137.4</ele>
        <time>2012-12-27T09:18:34.000Z</time>
      </trkpt>
      <trkpt lat="48.39068" lon="2.57305">
        <ele>137.4</ele>
        <time>2012-12-27T09:18:36.000Z</time>
      </trkpt>
      <trkpt lat="48.39069" lon="2.57303">
        <ele>137.4</ele>
        <time>2012-12-27T09:18:37.000Z</time>
      </trkpt>
      <trkpt lat="48.39076" lon="2.5729">
        <ele>137.4</ele>
        <time>2012-12-27T09:18:42.000Z</time>
      </trkpt>
      <trkpt lat="48.39072" lon="2.57278">
        <ele>137.4</ele>
        <time>2012-12-27T09:18:45.000Z</time>
      </trkpt>
      <trkpt lat="48.3907" lon="2.57262">
        <ele>137.4</ele>
        <time>2012-12-27T09:18:49.000Z</time>
      </trkpt>
      <trkpt lat="48.39072" lon="2.57248">
        <ele>137.4</ele>
        <time>2012-12-27T09:18:53.000Z</time>
      </trkpt>
      <trkpt lat="48.39077" lon="2.57229">
        <ele>137.4</ele>
        <time>2012-12-27T09:19:00.000Z</time>
      </trkpt>
      <trkpt lat="48.3908" lon="2.57223">
        <ele>137.4</ele>
        <time>2012-12-27T09:19:02.000Z</time>
      </trkpt>
      <trkpt lat="48.39082" lon="2.57217">
        <ele>137.4</ele>
        <time>2012-12-27T09:19:04.000Z</time>
      </trkpt>
      <trkpt lat="48.39082" lon="2.57212">
        <ele>137.4</ele>
        <time>2012-12-27T09:19:06.000Z</time>
      </trkpt>
      <trkpt lat="48.39084" lon="2.57206">
        <ele>137.4</ele>
        <time>2012-12-27T09:19:08.000Z</time>
      </trkpt>
      <trkpt lat="48.39092" lon="2.57197">
        <ele>137.4</ele>
        <time>2012-12-27T09:19:12.000Z</time>
      </trkpt>
      <trkpt lat="48.39094" lon="2.57196">
        <ele>137.4</ele>
        <time>2012-12-27T09:19:13.000Z</time>
      </trkpt>
      <trkpt lat="48.39097" lon="2.57192">
        <ele>137.4</ele>
        <time>2012-12-27T09:19:15.000Z</time>
      </trkpt>
      <trkpt lat="48.39098" lon="2.57188">
        <ele>137.4</ele>
        <time>2012-12-27T09:19:16.000Z</time>
      </trkpt>
      <trkpt lat="48.39112" lon="2.57167">
        <ele>137.4</ele>
        <time>2012-12-27T09:19:24.000Z</time>
      </trkpt>
      <trkpt lat="48.39117" lon="2.57163">
        <ele>137.4</ele>
        <time>2012-12-27T09:19:28.000Z</time>
      </trkpt>
      <trkpt lat="48.39119" lon="2.57161">
        <ele>137.4</ele>
        <time>2012-12-27T09:19:29.000Z</time>
      </trkpt>
      <trkpt lat="48.39125" lon="2.5712">
        <ele>137.4</ele>
        <time>2012-12-27T09:19:41.000Z</time>
      </trkpt>
      <trkpt lat="48.39132" lon="2.57102">
        <ele>137.4</ele>
        <time>2012-12-27T09:19:46.000Z</time>
      </trkpt>
      <trkpt lat="48.39134" lon="2.57061">
        <ele>137.4</ele>
        <time>2012-12-27T09:19:56.000Z</time>
      </trkpt>
      <trkpt lat="48.39141" lon="2.57046">
        <ele>137.4</ele>
        <time>2012-12-27T09:20:01.000Z</time>
      </trkpt>
      <trkpt lat="48.39141" lon="2.57031">
        <ele>137.4</ele>
        <time>2012-12-27T09:20:05.000Z</time>
      </trkpt>
      <trkpt lat="48.39144" lon="2.57024">
        <ele>137.4</ele>
        <time>2012-12-27T09:20:08.000Z</time>
      </trkpt>
      <trkpt lat="48.39145" lon="2.57019">
        <ele>137.4</ele>
        <time>2012-12-27T09:20:09.000Z</time>
      </trkpt>
      <trkpt lat="48.39151" lon="2.57015">
        <ele>137.4</ele>
        <time>2012-12-27T09:20:12.000Z</time>
      </trkpt>
      <trkpt lat="48.39154" lon="2.57009">
        <ele>137.4</ele>
        <time>2012-12-27T09:20:14.000Z</time>
      </trkpt>
      <trkpt lat="48.39156" lon="2.57008">
        <ele>137.4</ele>
        <time>2012-12-27T09:20:16.000Z</time>
      </trkpt>
      <trkpt lat="48.39156" lon="2.57008">
        <ele>137.4</ele>
        <time>2012-12-27T09:20:18.000Z</time>
      </trkpt>
      <trkpt lat="48.3916" lon="2.57003">
        <ele>137.4</ele>
        <time>2012-12-27T09:20:23.000Z</time>
      </trkpt>
      <trkpt lat="48.39161" lon="2.57003">
        <ele>137.4</ele>
        <time>2012-12-27T09:20:24.000Z</time>
      </trkpt>
      <trkpt lat="48.39166" lon="2.56978">
        <ele>137.4</ele>
        <time>2012-12-27T09:20:33.000Z</time>
      </trkpt>
      <trkpt lat="48.39165" lon="2.56964">
        <ele>137.4</ele>
        <time>2012-12-27T09:20:37.000Z</time>
      </trkpt>
      <trkpt lat="48.39155" lon="2.56929">
        <ele>137.4</ele>
        <time>2012-12-27T09:20:47.000Z</time>
      </trkpt>
      <trkpt lat="48.39155" lon="2.56925">
        <ele>137.4</ele>
        <time>2012-12-27T09:20:48.000Z</time>
      </trkpt>
      <trkpt lat="48.39156" lon="2.56906">
        <ele>137.4</ele>
        <time>2012-12-27T09:20:53.000Z</time>
      </trkpt>
      <trkpt lat="48.39157" lon="2.56904">
        <ele>137.4</ele>
        <time>2012-12-27T09:20:54.000Z</time>
      </trkpt>
      <trkpt lat="48.39162" lon="2.56893">
        <ele>137.4</ele>
        <time>2012-12-27T09:20:58.000Z</time>
      </trkpt>
      <trkpt lat="48.39165" lon="2.5689">
        <ele>137.4</ele>
        <time>2012-12-27T09:21:02.000Z</time>
      </trkpt>
      <trkpt lat="48.39165" lon="2.56889">
        <ele>137.4</ele>
        <time>2012-12-27T09:21:03.000Z</time>
      </trkpt>
      <trkpt lat="48.39167" lon="2.56888">
        <ele>137.4</ele>
        <time>2012-12-27T09:21:04.000Z</time>
      </trkpt>
      <trkpt lat="48.39173" lon="2.56876">
        <ele>137.4</ele>
        <time>2012-12-27T09:21:08.000Z</time>
      </trkpt>
      <trkpt lat="48.39173" lon="2.56873">
        <ele>137.4</ele>
        <time>2012-12-27T09:21:09.000Z</time>
      </trkpt>
      <trkpt lat="48.39174" lon="2.56863">
        <ele>137.4</ele>
        <time>2012-12-27T09:21:12.000Z</time>
      </trkpt>
      <trkpt lat="48.39173" lon="2.56843">
        <ele>137.4</ele>
        <time>2012-12-27T09:21:17.000Z</time>
      </trkpt>
      <trkpt lat="48.39176" lon="2.56825">
        <ele>137.4</ele>
        <time>2012-12-27T09:21:22.000Z</time>
      </trkpt>
      <trkpt lat="48.39176" lon="2.56821">
        <ele>137.4</ele>
        <time>2012-12-27T09:21:23.000Z</time>
      </trkpt>
      <trkpt lat="48.39175" lon="2.56816">
        <ele>137.4</ele>
        <time>2012-12-27T09:21:25.000Z</time>
      </trkpt>
      <trkpt lat="48.39176" lon="2.56804">
        <ele>137.4</ele>
        <time>2012-12-27T09:21:30.000Z</time>
      </trkpt>
      <trkpt lat="48.39174" lon="2.56788">
        <ele>137.4</ele>
        <time>2012-12-27T09:21:35.000Z</time>
      </trkpt>
      <trkpt lat="48.39176" lon="2.56771">
        <ele>137.4</ele>
        <time>2012-12-27T09:21:40.000Z</time>
      </trkpt>
      <trkpt lat="48.39182" lon="2.56742">
        <ele>137.4</ele>
        <time>2012-12-27T09:21:50.000Z</time>
      </trkpt>
      <trkpt lat="48.39195" lon="2.56719">
        <ele>137.4</ele>
        <time>2012-12-27T09:21:58.000Z</time>
      </trkpt>
      <trkpt lat="48.39197" lon="2.56706">
        <ele>137.4</ele>
        <time>2012-12-27T09:22:03.000Z</time>
      </trkpt>
      <trkpt lat="48.39196" lon="2.5669">
        <ele>137.4</ele>
        <time>2012-12-27T09:22:07.000Z</time>
      </trkpt>
      <trkpt lat="48.39197" lon="2.5668">
        <ele>137.4</ele>
        <time>2012-12-27T09:22:11.000Z</time>
      </trkpt>
      <trkpt lat="48.39197" lon="2.56679">
        <ele>137.8</ele>
        <time>2012-12-27T09:22:12.000Z</time>
      </trkpt>
      <trkpt lat="48.39197" lon="2.56671">
        <ele>139.4</ele>
        <time>2012-12-27T09:22:18.000Z</time>
      </trkpt>
      <trkpt lat="48.39199" lon="2.56668">
        <ele>139.4</ele>
        <time>2012-12-27T09:22:21.000Z</time>
      </trkpt>
      <trkpt lat="48.39203" lon="2.5666">
        <ele>139.4</ele>
        <time>2012-12-27T09:22:26.000Z</time>
      </trkpt>
      <trkpt lat="48.39206" lon="2.5665">
        <ele>139.4</ele>
        <time>2012-12-27T09:22:29.000Z</time>
      </trkpt>
      <trkpt lat="48.39207" lon="2.56631">
        <ele>139.4</ele>
        <time>2012-12-27T09:22:33.000Z</time>
      </trkpt>
      <trkpt lat="48.39206" lon="2.56618">
        <ele>139.4</ele>
        <time>2012-12-27T09:22:37.000Z</time>
      </trkpt>
      <trkpt lat="48.39209" lon="2.56603">
        <ele>139.4</ele>
        <time>2012-12-27T09:22:42.000Z</time>
      </trkpt>
      <trkpt lat="48.39208" lon="2.56595">
        <ele>139.4</ele>
        <time>2012-12-27T09:22:45.000Z</time>
      </trkpt>
      <trkpt lat="48.39202" lon="2.56592">
        <ele>139.4</ele>
        <time>2012-12-27T09:22:48.000Z</time>
      </trkpt>
      <trkpt lat="48.39193" lon="2.56576">
        <ele>139.4</ele>
        <time>2012-12-27T09:22:53.000Z</time>
      </trkpt>
      <trkpt lat="48.39191" lon="2.56557">
        <ele>139.4</ele>
        <time>2012-12-27T09:22:58.000Z</time>
      </trkpt>
      <trkpt lat="48.39191" lon="2.56546">
        <ele>139.4</ele>
        <time>2012-12-27T09:23:01.000Z</time>
      </trkpt>
      <trkpt lat="48.39193" lon="2.56536">
        <ele>139</ele>
        <time>2012-12-27T09:23:04.000Z</time>
      </trkpt>
      <trkpt lat="48.39195" lon="2.56535">
        <ele>138.6</ele>
        <time>2012-12-27T09:23:05.000Z</time>
      </trkpt>
      <trkpt lat="48.39197" lon="2.56534">
        <ele>138.2</ele>
        <time>2012-12-27T09:23:06.000Z</time>
      </trkpt>
      <trkpt lat="48.39199" lon="2.56531">
        <ele>137.4</ele>
        <time>2012-12-27T09:23:08.000Z</time>
      </trkpt>
      <trkpt lat="48.39203" lon="2.56526">
        <ele>137.4</ele>
        <time>2012-12-27T09:23:10.000Z</time>
      </trkpt>
      <trkpt lat="48.39204" lon="2.56521">
        <ele>137.4</ele>
        <time>2012-12-27T09:23:11.000Z</time>
      </trkpt>
      <trkpt lat="48.39204" lon="2.56497">
        <ele>137.4</ele>
        <time>2012-12-27T09:23:18.000Z</time>
      </trkpt>
      <trkpt lat="48.39222" lon="2.56491">
        <ele>137.4</ele>
        <time>2012-12-27T09:23:26.000Z</time>
      </trkpt>
      <trkpt lat="48.39225" lon="2.56488">
        <ele>137.4</ele>
        <time>2012-12-27T09:23:28.000Z</time>
      </trkpt>
      <trkpt lat="48.39232" lon="2.56478">
        <ele>137.4</ele>
        <time>2012-12-27T09:23:31.000Z</time>
      </trkpt>
      <trkpt lat="48.39234" lon="2.56472">
        <ele>137.4</ele>
        <time>2012-12-27T09:23:33.000Z</time>
      </trkpt>
      <trkpt lat="48.39234" lon="2.56464">
        <ele>137.4</ele>
        <time>2012-12-27T09:23:35.000Z</time>
      </trkpt>
      <trkpt lat="48.3924" lon="2.56442">
        <ele>137.4</ele>
        <time>2012-12-27T09:23:40.000Z</time>
      </trkpt>
      <trkpt lat="48.39241" lon="2.56434">
        <ele>137.4</ele>
        <time>2012-12-27T09:23:42.000Z</time>
      </trkpt>
      <trkpt lat="48.39239" lon="2.5642">
        <ele>137.4</ele>
        <time>2012-12-27T09:23:47.000Z</time>
      </trkpt>
      <trkpt lat="48.39242" lon="2.56409">
        <ele>137.4</ele>
        <time>2012-12-27T09:23:50.000Z</time>
      </trkpt>
      <trkpt lat="48.39243" lon="2.56397">
        <ele>137.4</ele>
        <time>2012-12-27T09:23:54.000Z</time>
      </trkpt>
      <trkpt lat="48.39244" lon="2.56394">
        <ele>137.4</ele>
        <time>2012-12-27T09:23:56.000Z</time>
      </trkpt>
      <trkpt lat="48.39246" lon="2.56387">
        <ele>137.4</ele>
        <time>2012-12-27T09:23:58.000Z</time>
      </trkpt>
      <trkpt lat="48.3925" lon="2.56383">
        <ele>137.4</ele>
        <time>2012-12-27T09:24:01.000Z</time>
      </trkpt>
      <trkpt lat="48.39251" lon="2.5638">
        <ele>137.4</ele>
        <time>2012-12-27T09:24:02.000Z</time>
      </trkpt>
      <trkpt lat="48.39253" lon="2.56368">
        <ele>137.4</ele>
        <time>2012-12-27T09:24:08.000Z</time>
      </trkpt>
      <trkpt lat="48.39252" lon="2.56364">
        <ele>137.4</ele>
        <time>2012-12-27T09:24:11.000Z</time>
      </trkpt>
      <trkpt lat="48.39253" lon="2.56358">
        <ele>137.4</ele>
        <time>2012-12-27T09:24:18.000Z</time>
      </trkpt>
      <trkpt lat="48.39253" lon="2.56354">
        <ele>137.4</ele>
        <time>2012-12-27T09:24:22.000Z</time>
      </trkpt>
      <trkpt lat="48.39251" lon="2.56349">
        <ele>137.4</ele>
        <time>2012-12-27T09:24:26.000Z</time>
      </trkpt>
      <trkpt lat="48.39252" lon="2.56335">
        <ele>137.4</ele>
        <time>2012-12-27T09:24:31.000Z</time>
      </trkpt>
      <trkpt lat="48.39251" lon="2.56321">
        <ele>137.4</ele>
        <time>2012-12-27T09:24:34.000Z</time>
      </trkpt>
      <trkpt lat="48.39251" lon="2.56312">
        <ele>137.4</ele>
        <time>2012-12-27T09:24:36.000Z</time>
      </trkpt>
      <trkpt lat="48.39248" lon="2.56306">
        <ele>137.4</ele>
        <time>2012-12-27T09:24:38.000Z</time>
      </trkpt>
      <trkpt lat="48.39245" lon="2.56302">
        <ele>137.4</ele>
        <time>2012-12-27T09:24:40.000Z</time>
      </trkpt>
      <trkpt lat="48.39245" lon="2.563">
        <ele>137.4</ele>
        <time>2012-12-27T09:24:42.000Z</time>
      </trkpt>
      <trkpt lat="48.39245" lon="2.56297">
        <ele>137.4</ele>
        <time>2012-12-27T09:24:43.000Z</time>
      </trkpt>
      <trkpt lat="48.39246" lon="2.56296">
        <ele>137.4</ele>
        <time>2012-12-27T09:24:44.000Z</time>
      </trkpt>
      <trkpt lat="48.39246" lon="2.56296">
        <ele>137.4</ele>
        <time>2012-12-27T09:24:46.000Z</time>
      </trkpt>
      <trkpt lat="48.39246" lon="2.563">
        <ele>137.4</ele>
        <time>2012-12-27T09:24:53.000Z</time>
      </trkpt>
      <trkpt lat="48.39247" lon="2.56301">
        <ele>137.4</ele>
        <time>2012-12-27T09:24:55.000Z</time>
      </trkpt>
      <trkpt lat="48.39247" lon="2.56301">
        <ele>137.4</ele>
        <time>2012-12-27T09:24:57.000Z</time>
      </trkpt>
      <trkpt lat="48.39251" lon="2.56308">
        <ele>137.4</ele>
        <time>2012-12-27T09:25:01.000Z</time>
      </trkpt>
      <trkpt lat="48.39251" lon="2.56309">
        <ele>137.4</ele>
        <time>2012-12-27T09:25:02.000Z</time>
      </trkpt>
      <trkpt lat="48.39251" lon="2.56309">
        <ele>137.4</ele>
        <time>2012-12-27T09:25:03.000Z</time>
      </trkpt>
      <trkpt lat="48.39251" lon="2.56309">
        <ele>137.4</ele>
        <time>2012-12-27T09:25:05.000Z</time>
      </trkpt>
      <trkpt lat="48.39255" lon="2.56306">
        <ele>137.4</ele>
        <time>2012-12-27T09:25:15.000Z</time>
      </trkpt>
      <trkpt lat="48.39257" lon="2.56302">
        <ele>137</ele>
        <time>2012-12-27T09:25:17.000Z</time>
      </trkpt>
      <trkpt lat="48.39258" lon="2.56299">
        <ele>136.6</ele>
        <time>2012-12-27T09:25:18.000Z</time>
      </trkpt>
      <trkpt lat="48.39258" lon="2.56298">
        <ele>136.2</ele>
        <time>2012-12-27T09:25:19.000Z</time>
      </trkpt>
      <trkpt lat="48.39259" lon="2.56296">
        <ele>135.8</ele>
        <time>2012-12-27T09:25:20.000Z</time>
      </trkpt>
      <trkpt lat="48.3926" lon="2.56295">
        <ele>135.2</ele>
        <time>2012-12-27T09:25:21.000Z</time>
      </trkpt>
      <trkpt lat="48.39262" lon="2.56294">
        <ele>134.6</ele>
        <time>2012-12-27T09:25:22.000Z</time>
      </trkpt>
      <trkpt lat="48.39262" lon="2.56293">
        <ele>134</ele>
        <time>2012-12-27T09:25:23.000Z</time>
      </trkpt>
      <trkpt lat="48.39262" lon="2.56291">
        <ele>133.6</ele>
        <time>2012-12-27T09:25:24.000Z</time>
      </trkpt>
      <trkpt lat="48.39262" lon="2.5629">
        <ele>133</ele>
        <time>2012-12-27T09:25:25.000Z</time>
      </trkpt>
      <trkpt lat="48.39261" lon="2.56281">
        <ele>131.8</ele>
        <time>2012-12-27T09:25:27.000Z</time>
      </trkpt>
      <trkpt lat="48.3926" lon="2.56278">
        <ele>131.2</ele>
        <time>2012-12-27T09:25:28.000Z</time>
      </trkpt>
      <trkpt lat="48.39259" lon="2.56276">
        <ele>130.6</ele>
        <time>2012-12-27T09:25:29.000Z</time>
      </trkpt>
      <trkpt lat="48.39257" lon="2.56276">
        <ele>130.6</ele>
        <time>2012-12-27T09:25:30.000Z</time>
      </trkpt>
      <trkpt lat="48.39256" lon="2.56275">
        <ele>130.6</ele>
        <time>2012-12-27T09:25:32.000Z</time>
      </trkpt>
      <trkpt lat="48.39256" lon="2.56275">
        <ele>130.6</ele>
        <time>2012-12-27T09:25:33.000Z</time>
      </trkpt>
      <trkpt lat="48.39254" lon="2.5627">
        <ele>130.6</ele>
        <time>2012-12-27T09:25:36.000Z</time>
      </trkpt>
      <trkpt lat="48.39254" lon="2.56268">
        <ele>130.2</ele>
        <time>2012-12-27T09:25:37.000Z</time>
      </trkpt>
      <trkpt lat="48.39255" lon="2.56267">
        <ele>129.8</ele>
        <time>2012-12-27T09:25:38.000Z</time>
      </trkpt>
      <trkpt lat="48.39256" lon="2.56258">
        <ele>129</ele>
        <time>2012-12-27T09:25:40.000Z</time>
      </trkpt>
      <trkpt lat="48.39256" lon="2.56255">
        <ele>128.4</ele>
        <time>2012-12-27T09:25:41.000Z</time>
      </trkpt>
      <trkpt lat="48.39258" lon="2.56247">
        <ele>127.4</ele>
        <time>2012-12-27T09:25:43.000Z</time>
      </trkpt>
      <trkpt lat="48.39258" lon="2.56244">
        <ele>126.8</ele>
        <time>2012-12-27T09:25:44.000Z</time>
      </trkpt>
      <trkpt lat="48.39257" lon="2.56242">
        <ele>126.2</ele>
        <time>2012-12-27T09:25:45.000Z</time>
      </trkpt>
      <trkpt lat="48.39257" lon="2.56239">
        <ele>124.8</ele>
        <time>2012-12-27T09:25:47.000Z</time>
      </trkpt>
      <trkpt lat="48.39259" lon="2.56237">
        <ele>124.2</ele>
        <time>2012-12-27T09:25:48.000Z</time>
      </trkpt>
      <trkpt lat="48.39259" lon="2.56233">
        <ele>123.6</ele>
        <time>2012-12-27T09:25:49.000Z</time>
      </trkpt>
      <trkpt lat="48.39258" lon="2.56229">
        <ele>123</ele>
        <time>2012-12-27T09:25:50.000Z</time>
      </trkpt>
      <trkpt lat="48.39256" lon="2.56227">
        <ele>122.4</ele>
        <time>2012-12-27T09:25:51.000Z</time>
      </trkpt>
      <trkpt lat="48.39254" lon="2.56224">
        <ele>122</ele>
        <time>2012-12-27T09:25:52.000Z</time>
      </trkpt>
      <trkpt lat="48.39253" lon="2.56221">
        <ele>121.4</ele>
        <time>2012-12-27T09:25:53.000Z</time>
      </trkpt>
      <trkpt lat="48.39253" lon="2.56209">
        <ele>119</ele>
        <time>2012-12-27T09:25:56.000Z</time>
      </trkpt>
      <trkpt lat="48.39254" lon="2.56205">
        <ele>118.4</ele>
        <time>2012-12-27T09:25:57.000Z</time>
      </trkpt>
      <trkpt lat="48.39257" lon="2.56195">
        <ele>116.8</ele>
        <time>2012-12-27T09:25:59.000Z</time>
      </trkpt>
      <trkpt lat="48.39265" lon="2.56175">
        <ele>114.4</ele>
        <time>2012-12-27T09:26:04.000Z</time>
      </trkpt>
      <trkpt lat="48.39269" lon="2.56172">
        <ele>113.6</ele>
        <time>2012-12-27T09:26:06.000Z</time>
      </trkpt>
      <trkpt lat="48.39271" lon="2.5617">
        <ele>113.2</ele>
        <time>2012-12-27T09:26:07.000Z</time>
      </trkpt>
      <trkpt lat="48.39282" lon="2.56154">
        <ele>112.8</ele>
        <time>2012-12-27T09:26:15.000Z</time>
      </trkpt>
      <trkpt lat="48.39285" lon="2.5612">
        <ele>112.8</ele>
        <time>2012-12-27T09:26:26.000Z</time>
      </trkpt>
      <trkpt lat="48.39288" lon="2.56108">
        <ele>112.8</ele>
        <time>2012-12-27T09:26:29.000Z</time>
      </trkpt>
      <trkpt lat="48.39289" lon="2.561">
        <ele>112.8</ele>
        <time>2012-12-27T09:26:31.000Z</time>
      </trkpt>
      <trkpt lat="48.39288" lon="2.56089">
        <ele>113.2</ele>
        <time>2012-12-27T09:26:35.000Z</time>
      </trkpt>
      <trkpt lat="48.39287" lon="2.56087">
        <ele>113.6</ele>
        <time>2012-12-27T09:26:36.000Z</time>
      </trkpt>
      <trkpt lat="48.39291" lon="2.56075">
        <ele>114.8</ele>
        <time>2012-12-27T09:26:43.000Z</time>
      </trkpt>
      <trkpt lat="48.39291" lon="2.5607">
        <ele>115.8</ele>
        <time>2012-12-27T09:26:45.000Z</time>
      </trkpt>
      <trkpt lat="48.39291" lon="2.56068">
        <ele>116.2</ele>
        <time>2012-12-27T09:26:46.000Z</time>
      </trkpt>
      <trkpt lat="48.39291" lon="2.56066">
        <ele>116.8</ele>
        <time>2012-12-27T09:26:47.000Z</time>
      </trkpt>
      <trkpt lat="48.39292" lon="2.56064">
        <ele>117.2</ele>
        <time>2012-12-27T09:26:48.000Z</time>
      </trkpt>
      <trkpt lat="48.39292" lon="2.56061">
        <ele>117.6</ele>
        <time>2012-12-27T09:26:50.000Z</time>
      </trkpt>
      <trkpt lat="48.39293" lon="2.5606">
        <ele>118.2</ele>
        <time>2012-12-27T09:26:51.000Z</time>
      </trkpt>
      <trkpt lat="48.39301" lon="2.5601">
        <ele>119.6</ele>
        <time>2012-12-27T09:27:08.000Z</time>
      </trkpt>
      <trkpt lat="48.39297" lon="2.55999">
        <ele>119.6</ele>
        <time>2012-12-27T09:27:12.000Z</time>
      </trkpt>
      <trkpt lat="48.39291" lon="2.55994">
        <ele>119.6</ele>
        <time>2012-12-27T09:27:16.000Z</time>
      </trkpt>
      <trkpt lat="48.39287" lon="2.55992">
        <ele>119.6</ele>
        <time>2012-12-27T09:27:17.000Z</time>
      </trkpt>
      <trkpt lat="48.39285" lon="2.55989">
        <ele>119.6</ele>
        <time>2012-12-27T09:27:18.000Z</time>
      </trkpt>
      <trkpt lat="48.39274" lon="2.55975">
        <ele>119.6</ele>
        <time>2012-12-27T09:27:23.000Z</time>
      </trkpt>
      <trkpt lat="48.39273" lon="2.5597">
        <ele>119.2</ele>
        <time>2012-12-27T09:27:25.000Z</time>
      </trkpt>
      <trkpt lat="48.39272" lon="2.55967">
        <ele>118.8</ele>
        <time>2012-12-27T09:27:26.000Z</time>
      </trkpt>
      <trkpt lat="48.39273" lon="2.55959">
        <ele>118</ele>
        <time>2012-12-27T09:27:28.000Z</time>
      </trkpt>
      <trkpt lat="48.39275" lon="2.55955">
        <ele>117.6</ele>
        <time>2012-12-27T09:27:29.000Z</time>
      </trkpt>
      <trkpt lat="48.39282" lon="2.5594">
        <ele>117.6</ele>
        <time>2012-12-27T09:27:35.000Z</time>
      </trkpt>
      <trkpt lat="48.39282" lon="2.55911">
        <ele>117.6</ele>
        <time>2012-12-27T09:27:40.000Z</time>
      </trkpt>
      <trkpt lat="48.39282" lon="2.55907">
        <ele>117.6</ele>
        <time>2012-12-27T09:27:41.000Z</time>
      </trkpt>
      <trkpt lat="48.39281" lon="2.55905">
        <ele>117.6</ele>
        <time>2012-12-27T09:27:42.000Z</time>
      </trkpt>
      <trkpt lat="48.39283" lon="2.55904">
        <ele>117.6</ele>
        <time>2012-12-27T09:27:43.000Z</time>
      </trkpt>
      <trkpt lat="48.39286" lon="2.55901">
        <ele>116.6</ele>
        <time>2012-12-27T09:27:46.000Z</time>
      </trkpt>
      <trkpt lat="48.39286" lon="2.55899">
        <ele>116.2</ele>
        <time>2012-12-27T09:27:47.000Z</time>
      </trkpt>
      <trkpt lat="48.39285" lon="2.55896">
        <ele>115.6</ele>
        <time>2012-12-27T09:27:48.000Z</time>
      </trkpt>
      <trkpt lat="48.39285" lon="2.55894">
        <ele>115.2</ele>
        <time>2012-12-27T09:27:49.000Z</time>
      </trkpt>
      <trkpt lat="48.39285" lon="2.55891">
        <ele>115.2</ele>
        <time>2012-12-27T09:27:50.000Z</time>
      </trkpt>
      <trkpt lat="48.39292" lon="2.55858">
        <ele>113.4</ele>
        <time>2012-12-27T09:27:55.000Z</time>
      </trkpt>
      <trkpt lat="48.39291" lon="2.55854">
        <ele>113</ele>
        <time>2012-12-27T09:27:56.000Z</time>
      </trkpt>
      <trkpt lat="48.3929" lon="2.55853">
        <ele>113</ele>
        <time>2012-12-27T09:27:57.000Z</time>
      </trkpt>
      <trkpt lat="48.39288" lon="2.55849">
        <ele>113</ele>
        <time>2012-12-27T09:27:59.000Z</time>
      </trkpt>
      <trkpt lat="48.39288" lon="2.55849">
        <ele>113</ele>
        <time>2012-12-27T09:28:00.000Z</time>
      </trkpt>
      <trkpt lat="48.39288" lon="2.55837">
        <ele>113</ele>
        <time>2012-12-27T09:28:10.000Z</time>
      </trkpt>
      <trkpt lat="48.39292" lon="2.55826">
        <ele>113</ele>
        <time>2012-12-27T09:28:15.000Z</time>
      </trkpt>
      <trkpt lat="48.39293" lon="2.55824">
        <ele>113</ele>
        <time>2012-12-27T09:28:16.000Z</time>
      </trkpt>
      <trkpt lat="48.39294" lon="2.55821">
        <ele>113</ele>
        <time>2012-12-27T09:28:18.000Z</time>
      </trkpt>
      <trkpt lat="48.39294" lon="2.55821">
        <ele>113</ele>
        <time>2012-12-27T09:28:21.000Z</time>
      </trkpt>
      <trkpt lat="48.39294" lon="2.55821">
        <ele>113</ele>
        <time>2012-12-27T09:28:23.000Z</time>
      </trkpt>
      <trkpt lat="48.39296" lon="2.55826">
        <ele>113</ele>
        <time>2012-12-27T09:28:32.000Z</time>
      </trkpt>
      <trkpt lat="48.39298" lon="2.55827">
        <ele>113</ele>
        <time>2012-12-27T09:28:33.000Z</time>
      </trkpt>
      <trkpt lat="48.393" lon="2.55827">
        <ele>113</ele>
        <time>2012-12-27T09:28:34.000Z</time>
      </trkpt>
      <trkpt lat="48.3931" lon="2.55819">
        <ele>113</ele>
        <time>2012-12-27T09:28:38.000Z</time>
      </trkpt>
      <trkpt lat="48.39323" lon="2.55805">
        <ele>113</ele>
        <time>2012-12-27T09:28:45.000Z</time>
      </trkpt>
      <trkpt lat="48.39326" lon="2.558">
        <ele>113</ele>
        <time>2012-12-27T09:28:48.000Z</time>
      </trkpt>
      <trkpt lat="48.39327" lon="2.558">
        <ele>113</ele>
        <time>2012-12-27T09:28:49.000Z</time>
      </trkpt>
      <trkpt lat="48.39333" lon="2.55794">
        <ele>113</ele>
        <time>2012-12-27T09:28:56.000Z</time>
      </trkpt>
      <trkpt lat="48.39337" lon="2.55794">
        <ele>113</ele>
        <time>2012-12-27T09:28:59.000Z</time>
      </trkpt>
      <trkpt lat="48.39339" lon="2.55793">
        <ele>113</ele>
        <time>2012-12-27T09:29:01.000Z</time>
      </trkpt>
      <trkpt lat="48.39339" lon="2.55794">
        <ele>113</ele>
        <time>2012-12-27T09:29:02.000Z</time>
      </trkpt>
      <trkpt lat="48.3934" lon="2.55794">
        <ele>113</ele>
        <time>2012-12-27T09:29:04.000Z</time>
      </trkpt>
      <trkpt lat="48.39336" lon="2.5579">
        <ele>113</ele>
        <time>2012-12-27T09:29:10.000Z</time>
      </trkpt>
      <trkpt lat="48.39335" lon="2.55789">
        <ele>113</ele>
        <time>2012-12-27T09:29:12.000Z</time>
      </trkpt>
      <trkpt lat="48.3933" lon="2.55788">
        <ele>113</ele>
        <time>2012-12-27T09:29:16.000Z</time>
      </trkpt>
      <trkpt lat="48.39326" lon="2.55784">
        <ele>113</ele>
        <time>2012-12-27T09:29:21.000Z</time>
      </trkpt>
      <trkpt lat="48.39322" lon="2.55775">
        <ele>113</ele>
        <time>2012-12-27T09:29:25.000Z</time>
      </trkpt>
      <trkpt lat="48.39318" lon="2.5577">
        <ele>112.4</ele>
        <time>2012-12-27T09:29:27.000Z</time>
      </trkpt>
      <trkpt lat="48.39318" lon="2.55767">
        <ele>112</ele>
        <time>2012-12-27T09:29:28.000Z</time>
      </trkpt>
      <trkpt lat="48.39317" lon="2.55765">
        <ele>111.6</ele>
        <time>2012-12-27T09:29:29.000Z</time>
      </trkpt>
      <trkpt lat="48.39315" lon="2.55762">
        <ele>111.2</ele>
        <time>2012-12-27T09:29:30.000Z</time>
      </trkpt>
      <trkpt lat="48.39315" lon="2.55752">
        <ele>110.8</ele>
        <time>2012-12-27T09:29:32.000Z</time>
      </trkpt>
      <trkpt lat="48.39315" lon="2.55744">
        <ele>109.8</ele>
        <time>2012-12-27T09:29:34.000Z</time>
      </trkpt>
      <trkpt lat="48.39323" lon="2.5573">
        <ele>107.8</ele>
        <time>2012-12-27T09:29:38.000Z</time>
      </trkpt>
      <trkpt lat="48.39326" lon="2.5571">
        <ele>106.2</ele>
        <time>2012-12-27T09:29:42.000Z</time>
      </trkpt>
      <trkpt lat="48.3933" lon="2.55705">
        <ele>106.2</ele>
        <time>2012-12-27T09:29:44.000Z</time>
      </trkpt>
      <trkpt lat="48.39335" lon="2.55704">
        <ele>106.2</ele>
        <time>2012-12-27T09:29:46.000Z</time>
      </trkpt>
      <trkpt lat="48.3934" lon="2.55698">
        <ele>106.2</ele>
        <time>2012-12-27T09:29:49.000Z</time>
      </trkpt>
      <trkpt lat="48.39344" lon="2.55687">
        <ele>105.6</ele>
        <time>2012-12-27T09:29:53.000Z</time>
      </trkpt>
      <trkpt lat="48.39345" lon="2.55689">
        <ele>105.2</ele>
        <time>2012-12-27T09:29:54.000Z</time>
      </trkpt>
      <trkpt lat="48.39341" lon="2.55696">
        <ele>104</ele>
        <time>2012-12-27T09:29:56.000Z</time>
      </trkpt>
      <trkpt lat="48.39339" lon="2.557">
        <ele>103.6</ele>
        <time>2012-12-27T09:29:57.000Z</time>
      </trkpt>
      <trkpt lat="48.39334" lon="2.55697">
        <ele>103.6</ele>
        <time>2012-12-27T09:29:59.000Z</time>
      </trkpt>
      <trkpt lat="48.39316" lon="2.55686">
        <ele>103</ele>
        <time>2012-12-27T09:30:05.000Z</time>
      </trkpt>
      <trkpt lat="48.39312" lon="2.55684">
        <ele>102.6</ele>
        <time>2012-12-27T09:30:06.000Z</time>
      </trkpt>
      <trkpt lat="48.3931" lon="2.5568">
        <ele>102.2</ele>
        <time>2012-12-27T09:30:07.000Z</time>
      </trkpt>
      <trkpt lat="48.39308" lon="2.55675">
        <ele>101.4</ele>
        <time>2012-12-27T09:30:08.000Z</time>
      </trkpt>
      <trkpt lat="48.39306" lon="2.55671">
        <ele>100.8</ele>
        <time>2012-12-27T09:30:09.000Z</time>
      </trkpt>
      <trkpt lat="48.39303" lon="2.55667">
        <ele>100.2</ele>
        <time>2012-12-27T09:30:10.000Z</time>
      </trkpt>
      <trkpt lat="48.39301" lon="2.55663">
        <ele>99.4</ele>
        <time>2012-12-27T09:30:11.000Z</time>
      </trkpt>
      <trkpt lat="48.39298" lon="2.55657">
        <ele>98</ele>
        <time>2012-12-27T09:30:12.000Z</time>
      </trkpt>
      <trkpt lat="48.39297" lon="2.55656">
        <ele>97.2</ele>
        <time>2012-12-27T09:30:14.000Z</time>
      </trkpt>
      <trkpt lat="48.39294" lon="2.55651">
        <ele>96.6</ele>
        <time>2012-12-27T09:30:15.000Z</time>
      </trkpt>
      <trkpt lat="48.39293" lon="2.55648">
        <ele>96</ele>
        <time>2012-12-27T09:30:16.000Z</time>
      </trkpt>
      <trkpt lat="48.39289" lon="2.55643">
        <ele>95</ele>
        <time>2012-12-27T09:30:18.000Z</time>
      </trkpt>
      <trkpt lat="48.39286" lon="2.5564">
        <ele>94.4</ele>
        <time>2012-12-27T09:30:19.000Z</time>
      </trkpt>
      <trkpt lat="48.39283" lon="2.55639">
        <ele>94.4</ele>
        <time>2012-12-27T09:30:20.000Z</time>
      </trkpt>
      <trkpt lat="48.3928" lon="2.55635">
        <ele>93.8</ele>
        <time>2012-12-27T09:30:21.000Z</time>
      </trkpt>
      <trkpt lat="48.3928" lon="2.55634">
        <ele>93.4</ele>
        <time>2012-12-27T09:30:22.000Z</time>
      </trkpt>
      <trkpt lat="48.39277" lon="2.55625">
        <ele>91.8</ele>
        <time>2012-12-27T09:30:24.000Z</time>
      </trkpt>
      <trkpt lat="48.39273" lon="2.55618">
        <ele>91</ele>
        <time>2012-12-27T09:30:26.000Z</time>
      </trkpt>
      <trkpt lat="48.3927" lon="2.55614">
        <ele>90.6</ele>
        <time>2012-12-27T09:30:27.000Z</time>
      </trkpt>
      <trkpt lat="48.39267" lon="2.55613">
        <ele>90.2</ele>
        <time>2012-12-27T09:30:28.000Z</time>
      </trkpt>
      <trkpt lat="48.39264" lon="2.55613">
        <ele>89.8</ele>
        <time>2012-12-27T09:30:29.000Z</time>
      </trkpt>
      <trkpt lat="48.39255" lon="2.55602">
        <ele>89.2</ele>
        <time>2012-12-27T09:30:32.000Z</time>
      </trkpt>
      <trkpt lat="48.39253" lon="2.55598">
        <ele>88.8</ele>
        <time>2012-12-27T09:30:33.000Z</time>
      </trkpt>
      <trkpt lat="48.39244" lon="2.55587">
        <ele>87.6</ele>
        <time>2012-12-27T09:30:36.000Z</time>
      </trkpt>
      <trkpt lat="48.3924" lon="2.55586">
        <ele>87.6</ele>
        <time>2012-12-27T09:30:37.000Z</time>
      </trkpt>
      <trkpt lat="48.39225" lon="2.55589">
        <ele>87.6</ele>
        <time>2012-12-27T09:30:42.000Z</time>
      </trkpt>
      <trkpt lat="48.39213" lon="2.55597">
        <ele>87.6</ele>
        <time>2012-12-27T09:30:47.000Z</time>
      </trkpt>
      <trkpt lat="48.39113" lon="2.55722">
        <ele>87.6</ele>
        <time>2012-12-27T09:31:21.000Z</time>
      </trkpt>
      <trkpt lat="48.39094" lon="2.55741">
        <ele>87.6</ele>
        <time>2012-12-27T09:31:27.000Z</time>
      </trkpt>
      <trkpt lat="48.39087" lon="2.55738">
        <ele>87.6</ele>
        <time>2012-12-27T09:31:30.000Z</time>
      </trkpt>
      <trkpt lat="48.39084" lon="2.55735">
        <ele>87.6</ele>
        <time>2012-12-27T09:31:31.000Z</time>
      </trkpt>
      <trkpt lat="48.39076" lon="2.55714">
        <ele>87.6</ele>
        <time>2012-12-27T09:31:35.000Z</time>
      </trkpt>
      <trkpt lat="48.39022" lon="2.5562">
        <ele>87.6</ele>
        <time>2012-12-27T09:31:53.000Z</time>
      </trkpt>
      <trkpt lat="48.39014" lon="2.55602">
        <ele>87.6</ele>
        <time>2012-12-27T09:31:56.000Z</time>
      </trkpt>
      <trkpt lat="48.39" lon="2.55514">
        <ele>87.6</ele>
        <time>2012-12-27T09:32:10.000Z</time>
      </trkpt>
      <trkpt lat="48.38998" lon="2.55509">
        <ele>87.6</ele>
        <time>2012-12-27T09:32:11.000Z</time>
      </trkpt>
      <trkpt lat="48.38995" lon="2.5548">
        <ele>87.6</ele>
        <time>2012-12-27T09:32:14.000Z</time>
      </trkpt>
      <trkpt lat="48.38995" lon="2.55472">
        <ele>87.6</ele>
        <time>2012-12-27T09:32:16.000Z</time>
      </trkpt>
      <trkpt lat="48.39015" lon="2.55421">
        <ele>87.6</ele>
        <time>2012-12-27T09:32:24.000Z</time>
      </trkpt>
      <trkpt lat="48.39028" lon="2.554">
        <ele>87.6</ele>
        <time>2012-12-27T09:32:28.000Z</time>
      </trkpt>
      <trkpt lat="48.39041" lon="2.55369">
        <ele>87.6</ele>
        <time>2012-12-27T09:32:34.000Z</time>
      </trkpt>
      <trkpt lat="48.39042" lon="2.55364">
        <ele>87.6</ele>
        <time>2012-12-27T09:32:35.000Z</time>
      </trkpt>
      <trkpt lat="48.39048" lon="2.55272">
        <ele>87.6</ele>
        <time>2012-12-27T09:32:48.000Z</time>
      </trkpt>
      <trkpt lat="48.39052" lon="2.55256">
        <ele>87.6</ele>
        <time>2012-12-27T09:32:51.000Z</time>
      </trkpt>
      <trkpt lat="48.3906" lon="2.55244">
        <ele>87.6</ele>
        <time>2012-12-27T09:32:55.000Z</time>
      </trkpt>
      <trkpt lat="48.3907" lon="2.55237">
        <ele>87.6</ele>
        <time>2012-12-27T09:32:59.000Z</time>
      </trkpt>
      <trkpt lat="48.39096" lon="2.55191">
        <ele>87.6</ele>
        <time>2012-12-27T09:33:09.000Z</time>
      </trkpt>
      <trkpt lat="48.39101" lon="2.5518">
        <ele>87.6</ele>
        <time>2012-12-27T09:33:11.000Z</time>
      </trkpt>
      <trkpt lat="48.39113" lon="2.55163">
        <ele>87.6</ele>
        <time>2012-12-27T09:33:15.000Z</time>
      </trkpt>
      <trkpt lat="48.39129" lon="2.55146">
        <ele>87.6</ele>
        <time>2012-12-27T09:33:20.000Z</time>
      </trkpt>
      <trkpt lat="48.3913" lon="2.55143">
        <ele>87.6</ele>
        <time>2012-12-27T09:33:21.000Z</time>
      </trkpt>
      <trkpt lat="48.39135" lon="2.55126">
        <ele>87.6</ele>
        <time>2012-12-27T09:33:24.000Z</time>
      </trkpt>
      <trkpt lat="48.3914" lon="2.5509">
        <ele>87.6</ele>
        <time>2012-12-27T09:33:29.000Z</time>
      </trkpt>
      <trkpt lat="48.39141" lon="2.55085">
        <ele>87.6</ele>
        <time>2012-12-27T09:33:30.000Z</time>
      </trkpt>
      <trkpt lat="48.39143" lon="2.55056">
        <ele>87.6</ele>
        <time>2012-12-27T09:33:35.000Z</time>
      </trkpt>
      <trkpt lat="48.39147" lon="2.55037">
        <ele>87.6</ele>
        <time>2012-12-27T09:33:39.000Z</time>
      </trkpt>
      <trkpt lat="48.39154" lon="2.55013">
        <ele>87.6</ele>
        <time>2012-12-27T09:33:43.000Z</time>
      </trkpt>
      <trkpt lat="48.39157" lon="2.54995">
        <ele>87.6</ele>
        <time>2012-12-27T09:33:46.000Z</time>
      </trkpt>
      <trkpt lat="48.39157" lon="2.5499">
        <ele>87.6</ele>
        <time>2012-12-27T09:33:47.000Z</time>
      </trkpt>
      <trkpt lat="48.39161" lon="2.54967">
        <ele>87.6</ele>
        <time>2012-12-27T09:33:52.000Z</time>
      </trkpt>
      <trkpt lat="48.39164" lon="2.54965">
        <ele>87.6</ele>
        <time>2012-12-27T09:33:55.000Z</time>
      </trkpt>
      <trkpt lat="48.39177" lon="2.54982">
        <ele>87.6</ele>
        <time>2012-12-27T09:34:00.000Z</time>
      </trkpt>
      <trkpt lat="48.39236" lon="2.55046">
        <ele>87.6</ele>
        <time>2012-12-27T09:34:17.000Z</time>
      </trkpt>
      <trkpt lat="48.39249" lon="2.55063">
        <ele>87.6</ele>
        <time>2012-12-27T09:34:21.000Z</time>
      </trkpt>
      <trkpt lat="48.39281" lon="2.55098">
        <ele>87.6</ele>
        <time>2012-12-27T09:34:30.000Z</time>
      </trkpt>
      <trkpt lat="48.39291" lon="2.55111">
        <ele>87.6</ele>
        <time>2012-12-27T09:34:33.000Z</time>
      </trkpt>
      <trkpt lat="48.393" lon="2.55124">
        <ele>87.6</ele>
        <time>2012-12-27T09:34:36.000Z</time>
      </trkpt>
      <trkpt lat="48.39304" lon="2.55128">
        <ele>87.6</ele>
        <time>2012-12-27T09:34:37.000Z</time>
      </trkpt>
      <trkpt lat="48.39344" lon="2.55175">
        <ele>87.6</ele>
        <time>2012-12-27T09:34:48.000Z</time>
      </trkpt>
      <trkpt lat="48.39354" lon="2.5519">
        <ele>87.6</ele>
        <time>2012-12-27T09:34:51.000Z</time>
      </trkpt>
      <trkpt lat="48.39361" lon="2.55198">
        <ele>87.6</ele>
        <time>2012-12-27T09:34:53.000Z</time>
      </trkpt>
      <trkpt lat="48.39384" lon="2.55219">
        <ele>87.6</ele>
        <time>2012-12-27T09:34:59.000Z</time>
      </trkpt>
      <trkpt lat="48.39388" lon="2.55219">
        <ele>87.6</ele>
        <time>2012-12-27T09:35:00.000Z</time>
      </trkpt>
      <trkpt lat="48.39393" lon="2.55214">
        <ele>87.6</ele>
        <time>2012-12-27T09:35:02.000Z</time>
      </trkpt>
      <trkpt lat="48.39406" lon="2.55204">
        <ele>87.6</ele>
        <time>2012-12-27T09:35:08.000Z</time>
      </trkpt>
      <trkpt lat="48.39409" lon="2.55202">
        <ele>87.6</ele>
        <time>2012-12-27T09:35:09.000Z</time>
      </trkpt>
      <trkpt lat="48.39418" lon="2.55194">
        <ele>87.6</ele>
        <time>2012-12-27T09:35:12.000Z</time>
      </trkpt>
      <trkpt lat="48.39434" lon="2.55169">
        <ele>88</ele>
        <time>2012-12-27T09:35:22.000Z</time>
      </trkpt>
      <trkpt lat="48.39438" lon="2.55165">
        <ele>88.8</ele>
        <time>2012-12-27T09:35:24.000Z</time>
      </trkpt>
      <trkpt lat="48.39439" lon="2.55137">
        <ele>90</ele>
        <time>2012-12-27T09:35:34.000Z</time>
      </trkpt>
      <trkpt lat="48.39439" lon="2.55136">
        <ele>90.4</ele>
        <time>2012-12-27T09:35:35.000Z</time>
      </trkpt>
      <trkpt lat="48.39439" lon="2.55136">
        <ele>91</ele>
        <time>2012-12-27T09:35:36.000Z</time>
      </trkpt>
      <trkpt lat="48.39437" lon="2.55132">
        <ele>91.8</ele>
        <time>2012-12-27T09:35:44.000Z</time>
      </trkpt>
      <trkpt lat="48.39438" lon="2.55128">
        <ele>91.8</ele>
        <time>2012-12-27T09:35:46.000Z</time>
      </trkpt>
      <trkpt lat="48.39438" lon="2.55127">
        <ele>91.8</ele>
        <time>2012-12-27T09:35:47.000Z</time>
      </trkpt>
      <trkpt lat="48.39441" lon="2.55124">
        <ele>91.8</ele>
        <time>2012-12-27T09:35:51.000Z</time>
      </trkpt>
      <trkpt lat="48.39442" lon="2.55123">
        <ele>91.8</ele>
        <time>2012-12-27T09:35:52.000Z</time>
      </trkpt>
      <trkpt lat="48.39443" lon="2.55122">
        <ele>91.8</ele>
        <time>2012-12-27T09:35:53.000Z</time>
      </trkpt>
      <trkpt lat="48.39444" lon="2.5512">
        <ele>92.2</ele>
        <time>2012-12-27T09:35:54.000Z</time>
      </trkpt>
      <trkpt lat="48.39445" lon="2.55114">
        <ele>93.4</ele>
        <time>2012-12-27T09:35:57.000Z</time>
      </trkpt>
      <trkpt lat="48.39449" lon="2.55087">
        <ele>93.8</ele>
        <time>2012-12-27T09:36:09.000Z</time>
      </trkpt>
      <trkpt lat="48.39449" lon="2.55083">
        <ele>94.2</ele>
        <time>2012-12-27T09:36:11.000Z</time>
      </trkpt>
      <trkpt lat="48.3945" lon="2.55081">
        <ele>94.8</ele>
        <time>2012-12-27T09:36:12.000Z</time>
      </trkpt>
      <trkpt lat="48.3945" lon="2.55079">
        <ele>95.2</ele>
        <time>2012-12-27T09:36:13.000Z</time>
      </trkpt>
      <trkpt lat="48.3945" lon="2.55077">
        <ele>95.6</ele>
        <time>2012-12-27T09:36:14.000Z</time>
      </trkpt>
      <trkpt lat="48.3945" lon="2.55074">
        <ele>96.4</ele>
        <time>2012-12-27T09:36:17.000Z</time>
      </trkpt>
      <trkpt lat="48.39449" lon="2.55073">
        <ele>96.8</ele>
        <time>2012-12-27T09:36:18.000Z</time>
      </trkpt>
      <trkpt lat="48.39448" lon="2.55071">
        <ele>97.4</ele>
        <time>2012-12-27T09:36:19.000Z</time>
      </trkpt>
      <trkpt lat="48.39448" lon="2.55069">
        <ele>97.8</ele>
        <time>2012-12-27T09:36:20.000Z</time>
      </trkpt>
      <trkpt lat="48.39449" lon="2.55064">
        <ele>98.2</ele>
        <time>2012-12-27T09:36:25.000Z</time>
      </trkpt>
      <trkpt lat="48.39451" lon="2.55061">
        <ele>100</ele>
        <time>2012-12-27T09:36:29.000Z</time>
      </trkpt>
      <trkpt lat="48.39451" lon="2.5506">
        <ele>100.4</ele>
        <time>2012-12-27T09:36:30.000Z</time>
      </trkpt>
      <trkpt lat="48.39451" lon="2.55059">
        <ele>100.4</ele>
        <time>2012-12-27T09:36:31.000Z</time>
      </trkpt>
      <trkpt lat="48.39451" lon="2.55052">
        <ele>100.4</ele>
        <time>2012-12-27T09:36:36.000Z</time>
      </trkpt>
      <trkpt lat="48.39449" lon="2.55043">
        <ele>100.4</ele>
        <time>2012-12-27T09:36:41.000Z</time>
      </trkpt>
      <trkpt lat="48.39452" lon="2.55006">
        <ele>98.4</ele>
        <time>2012-12-27T09:36:52.000Z</time>
      </trkpt>
      <trkpt lat="48.39455" lon="2.54994">
        <ele>98.4</ele>
        <time>2012-12-27T09:36:57.000Z</time>
      </trkpt>
      <trkpt lat="48.39457" lon="2.54977">
        <ele>98.4</ele>
        <time>2012-12-27T09:37:02.000Z</time>
      </trkpt>
      <trkpt lat="48.39457" lon="2.54957">
        <ele>98.8</ele>
        <time>2012-12-27T09:37:11.000Z</time>
      </trkpt>
      <trkpt lat="48.39456" lon="2.54957">
        <ele>99.2</ele>
        <time>2012-12-27T09:37:12.000Z</time>
      </trkpt>
      <trkpt lat="48.39456" lon="2.54957">
        <ele>99.6</ele>
        <time>2012-12-27T09:37:13.000Z</time>
      </trkpt>
      <trkpt lat="48.39455" lon="2.54955">
        <ele>100.6</ele>
        <time>2012-12-27T09:37:18.000Z</time>
      </trkpt>
      <trkpt lat="48.39455" lon="2.54955">
        <ele>100.6</ele>
        <time>2012-12-27T09:37:19.000Z</time>
      </trkpt>
      <trkpt lat="48.39454" lon="2.54953">
        <ele>100.6</ele>
        <time>2012-12-27T09:37:23.000Z</time>
      </trkpt>
      <trkpt lat="48.39451" lon="2.5495">
        <ele>101</ele>
        <time>2012-12-27T09:37:27.000Z</time>
      </trkpt>
      <trkpt lat="48.39449" lon="2.54947">
        <ele>102.2</ele>
        <time>2012-12-27T09:37:30.000Z</time>
      </trkpt>
      <trkpt lat="48.39449" lon="2.54947">
        <ele>102.8</ele>
        <time>2012-12-27T09:37:31.000Z</time>
      </trkpt>
      <trkpt lat="48.39448" lon="2.54946">
        <ele>102.8</ele>
        <time>2012-12-27T09:37:32.000Z</time>
      </trkpt>
      <trkpt lat="48.39446" lon="2.5494">
        <ele>102.8</ele>
        <time>2012-12-27T09:37:37.000Z</time>
      </trkpt>
      <trkpt lat="48.39446" lon="2.54936">
        <ele>102.8</ele>
        <time>2012-12-27T09:37:39.000Z</time>
      </trkpt>
      <trkpt lat="48.39447" lon="2.54931">
        <ele>102.8</ele>
        <time>2012-12-27T09:37:43.000Z</time>
      </trkpt>
      <trkpt lat="48.39447" lon="2.54928">
        <ele>103.2</ele>
        <time>2012-12-27T09:37:46.000Z</time>
      </trkpt>
      <trkpt lat="48.39447" lon="2.54927">
        <ele>104</ele>
        <time>2012-12-27T09:37:47.000Z</time>
      </trkpt>
      <trkpt lat="48.39446" lon="2.54924">
        <ele>105</ele>
        <time>2012-12-27T09:37:49.000Z</time>
      </trkpt>
      <trkpt lat="48.39445" lon="2.54918">
        <ele>105</ele>
        <time>2012-12-27T09:37:53.000Z</time>
      </trkpt>
      <trkpt lat="48.39446" lon="2.54916">
        <ele>105</ele>
        <time>2012-12-27T09:37:55.000Z</time>
      </trkpt>
      <trkpt lat="48.39445" lon="2.5491">
        <ele>105</ele>
        <time>2012-12-27T09:38:00.000Z</time>
      </trkpt>
      <trkpt lat="48.39445" lon="2.54909">
        <ele>105.4</ele>
        <time>2012-12-27T09:38:01.000Z</time>
      </trkpt>
      <trkpt lat="48.39445" lon="2.54908">
        <ele>105.8</ele>
        <time>2012-12-27T09:38:02.000Z</time>
      </trkpt>
      <trkpt lat="48.39445" lon="2.54908">
        <ele>106.2</ele>
        <time>2012-12-27T09:38:03.000Z</time>
      </trkpt>
      <trkpt lat="48.39445" lon="2.54907">
        <ele>106.8</ele>
        <time>2012-12-27T09:38:04.000Z</time>
      </trkpt>
      <trkpt lat="48.39445" lon="2.54906">
        <ele>107.2</ele>
        <time>2012-12-27T09:38:05.000Z</time>
      </trkpt>
      <trkpt lat="48.39445" lon="2.54905">
        <ele>107.2</ele>
        <time>2012-12-27T09:38:07.000Z</time>
      </trkpt>
      <trkpt lat="48.39447" lon="2.549">
        <ele>107.2</ele>
        <time>2012-12-27T09:38:13.000Z</time>
      </trkpt>
      <trkpt lat="48.39447" lon="2.549">
        <ele>107.6</ele>
        <time>2012-12-27T09:38:14.000Z</time>
      </trkpt>
      <trkpt lat="48.39448" lon="2.5489">
        <ele>109.2</ele>
        <time>2012-12-27T09:38:23.000Z</time>
      </trkpt>
      <trkpt lat="48.39449" lon="2.54887">
        <ele>109.2</ele>
        <time>2012-12-27T09:38:27.000Z</time>
      </trkpt>
      <trkpt lat="48.39449" lon="2.54886">
        <ele>109.6</ele>
        <time>2012-12-27T09:38:28.000Z</time>
      </trkpt>
      <trkpt lat="48.39449" lon="2.54886">
        <ele>110.2</ele>
        <time>2012-12-27T09:38:29.000Z</time>
      </trkpt>
      <trkpt lat="48.39449" lon="2.54886">
        <ele>111</ele>
        <time>2012-12-27T09:38:31.000Z</time>
      </trkpt>
      <trkpt lat="48.39449" lon="2.54886">
        <ele>111.4</ele>
        <time>2012-12-27T09:38:32.000Z</time>
      </trkpt>
      <trkpt lat="48.39448" lon="2.54885">
        <ele>111.4</ele>
        <time>2012-12-27T09:38:35.000Z</time>
      </trkpt>
      <trkpt lat="48.3945" lon="2.54882">
        <ele>111.4</ele>
        <time>2012-12-27T09:38:38.000Z</time>
      </trkpt>
      <trkpt lat="48.39453" lon="2.54879">
        <ele>111.4</ele>
        <time>2012-12-27T09:38:41.000Z</time>
      </trkpt>
      <trkpt lat="48.39454" lon="2.54877">
        <ele>111.4</ele>
        <time>2012-12-27T09:38:42.000Z</time>
      </trkpt>
      <trkpt lat="48.39454" lon="2.54871">
        <ele>112.8</ele>
        <time>2012-12-27T09:38:48.000Z</time>
      </trkpt>
      <trkpt lat="48.39454" lon="2.54871">
        <ele>113.2</ele>
        <time>2012-12-27T09:38:49.000Z</time>
      </trkpt>
      <trkpt lat="48.39453" lon="2.54869">
        <ele>113.6</ele>
        <time>2012-12-27T09:38:50.000Z</time>
      </trkpt>
      <trkpt lat="48.39453" lon="2.54867">
        <ele>113.6</ele>
        <time>2012-12-27T09:38:52.000Z</time>
      </trkpt>
      <trkpt lat="48.39452" lon="2.54863">
        <ele>113.6</ele>
        <time>2012-12-27T09:38:58.000Z</time>
      </trkpt>
      <trkpt lat="48.39452" lon="2.54861">
        <ele>114.6</ele>
        <time>2012-12-27T09:39:02.000Z</time>
      </trkpt>
      <trkpt lat="48.39452" lon="2.5486">
        <ele>115</ele>
        <time>2012-12-27T09:39:03.000Z</time>
      </trkpt>
      <trkpt lat="48.39452" lon="2.54858">
        <ele>115.4</ele>
        <time>2012-12-27T09:39:04.000Z</time>
      </trkpt>
      <trkpt lat="48.3945" lon="2.54849">
        <ele>117.2</ele>
        <time>2012-12-27T09:39:12.000Z</time>
      </trkpt>
      <trkpt lat="48.3945" lon="2.54848">
        <ele>117.6</ele>
        <time>2012-12-27T09:39:13.000Z</time>
      </trkpt>
      <trkpt lat="48.39449" lon="2.54847">
        <ele>118</ele>
        <time>2012-12-27T09:39:14.000Z</time>
      </trkpt>
      <trkpt lat="48.39447" lon="2.54847">
        <ele>118.4</ele>
        <time>2012-12-27T09:39:18.000Z</time>
      </trkpt>
      <trkpt lat="48.39446" lon="2.54846">
        <ele>118.8</ele>
        <time>2012-12-27T09:39:19.000Z</time>
      </trkpt>
      <trkpt lat="48.39445" lon="2.54845">
        <ele>119.2</ele>
        <time>2012-12-27T09:39:20.000Z</time>
      </trkpt>
      <trkpt lat="48.39444" lon="2.54844">
        <ele>119.6</ele>
        <time>2012-12-27T09:39:21.000Z</time>
      </trkpt>
      <trkpt lat="48.39439" lon="2.54834">
        <ele>121</ele>
        <time>2012-12-27T09:39:33.000Z</time>
      </trkpt>
      <trkpt lat="48.39439" lon="2.54832">
        <ele>121.8</ele>
        <time>2012-12-27T09:39:35.000Z</time>
      </trkpt>
      <trkpt lat="48.39439" lon="2.54832">
        <ele>122.2</ele>
        <time>2012-12-27T09:39:36.000Z</time>
      </trkpt>
      <trkpt lat="48.3944" lon="2.54832">
        <ele>122.2</ele>
        <time>2012-12-27T09:39:39.000Z</time>
      </trkpt>
      <trkpt lat="48.39443" lon="2.54822">
        <ele>126.6</ele>
        <time>2012-12-27T09:40:00.000Z</time>
      </trkpt>
      <trkpt lat="48.39444" lon="2.54821">
        <ele>126.6</ele>
        <time>2012-12-27T09:40:04.000Z</time>
      </trkpt>
      <trkpt lat="48.39446" lon="2.54819">
        <ele>126.6</ele>
        <time>2012-12-27T09:40:09.000Z</time>
      </trkpt>
      <trkpt lat="48.39452" lon="2.54806">
        <ele>129.2</ele>
        <time>2012-12-27T09:40:23.000Z</time>
      </trkpt>
      <trkpt lat="48.39452" lon="2.54805">
        <ele>129.6</ele>
        <time>2012-12-27T09:40:24.000Z</time>
      </trkpt>
      <trkpt lat="48.39452" lon="2.54804">
        <ele>130</ele>
        <time>2012-12-27T09:40:25.000Z</time>
      </trkpt>
      <trkpt lat="48.39456" lon="2.54794">
        <ele>130.8</ele>
        <time>2012-12-27T09:40:32.000Z</time>
      </trkpt>
      <trkpt lat="48.39459" lon="2.54785">
        <ele>130.8</ele>
        <time>2012-12-27T09:40:37.000Z</time>
      </trkpt>
      <trkpt lat="48.39459" lon="2.54783">
        <ele>130.8</ele>
        <time>2012-12-27T09:40:41.000Z</time>
      </trkpt>
      <trkpt lat="48.39459" lon="2.54779">
        <ele>130.8</ele>
        <time>2012-12-27T09:40:44.000Z</time>
      </trkpt>
      <trkpt lat="48.39458" lon="2.54777">
        <ele>130.8</ele>
        <time>2012-12-27T09:40:45.000Z</time>
      </trkpt>
      <trkpt lat="48.39457" lon="2.54776">
        <ele>130.8</ele>
        <time>2012-12-27T09:40:47.000Z</time>
      </trkpt>
      <trkpt lat="48.39457" lon="2.54777">
        <ele>130.8</ele>
        <time>2012-12-27T09:40:48.000Z</time>
      </trkpt>
      <trkpt lat="48.39455" lon="2.54777">
        <ele>132.4</ele>
        <time>2012-12-27T09:40:52.000Z</time>
      </trkpt>
      <trkpt lat="48.39454" lon="2.54776">
        <ele>132.8</ele>
        <time>2012-12-27T09:40:53.000Z</time>
      </trkpt>
      <trkpt lat="48.39454" lon="2.54776">
        <ele>132.8</ele>
        <time>2012-12-27T09:40:54.000Z</time>
      </trkpt>
      <trkpt lat="48.39454" lon="2.54776">
        <ele>132.8</ele>
        <time>2012-12-27T09:40:57.000Z</time>
      </trkpt>
      <trkpt lat="48.39451" lon="2.5477">
        <ele>135</ele>
        <time>2012-12-27T09:41:27.000Z</time>
      </trkpt>
      <trkpt lat="48.39451" lon="2.5477">
        <ele>135</ele>
        <time>2012-12-27T09:41:29.000Z</time>
      </trkpt>
      <trkpt lat="48.39451" lon="2.5477">
        <ele>135</ele>
        <time>2012-12-27T09:41:30.000Z</time>
      </trkpt>
      <trkpt lat="48.39447" lon="2.54771">
        <ele>135</ele>
        <time>2012-12-27T09:41:36.000Z</time>
      </trkpt>
      <trkpt lat="48.39446" lon="2.54772">
        <ele>135</ele>
        <time>2012-12-27T09:41:38.000Z</time>
      </trkpt>
      <trkpt lat="48.39445" lon="2.54773">
        <ele>135</ele>
        <time>2012-12-27T09:41:41.000Z</time>
      </trkpt>
      <trkpt lat="48.39445" lon="2.54774">
        <ele>135</ele>
        <time>2012-12-27T09:41:43.000Z</time>
      </trkpt>
      <trkpt lat="48.39445" lon="2.5478">
        <ele>135</ele>
        <time>2012-12-27T09:41:47.000Z</time>
      </trkpt>
      <trkpt lat="48.39437" lon="2.54784">
        <ele>135</ele>
        <time>2012-12-27T09:41:52.000Z</time>
      </trkpt>
      <trkpt lat="48.39435" lon="2.54783">
        <ele>135</ele>
        <time>2012-12-27T09:41:54.000Z</time>
      </trkpt>
      <trkpt lat="48.39431" lon="2.54787">
        <ele>135</ele>
        <time>2012-12-27T09:41:58.000Z</time>
      </trkpt>
      <trkpt lat="48.3943" lon="2.54788">
        <ele>135</ele>
        <time>2012-12-27T09:41:59.000Z</time>
      </trkpt>
      <trkpt lat="48.39426" lon="2.54788">
        <ele>135</ele>
        <time>2012-12-27T09:42:03.000Z</time>
      </trkpt>
      <trkpt lat="48.39425" lon="2.54786">
        <ele>135</ele>
        <time>2012-12-27T09:42:04.000Z</time>
      </trkpt>
      <trkpt lat="48.39422" lon="2.54764">
        <ele>135</ele>
        <time>2012-12-27T09:42:16.000Z</time>
      </trkpt>
      <trkpt lat="48.39421" lon="2.54763">
        <ele>135</ele>
        <time>2012-12-27T09:42:20.000Z</time>
      </trkpt>
      <trkpt lat="48.39423" lon="2.54764">
        <ele>135</ele>
        <time>2012-12-27T09:42:22.000Z</time>
      </trkpt>
      <trkpt lat="48.39425" lon="2.54762">
        <ele>135</ele>
        <time>2012-12-27T09:42:25.000Z</time>
      </trkpt>
      <trkpt lat="48.39426" lon="2.54759">
        <ele>135</ele>
        <time>2012-12-27T09:42:29.000Z</time>
      </trkpt>
      <trkpt lat="48.39427" lon="2.54755">
        <ele>135</ele>
        <time>2012-12-27T09:42:31.000Z</time>
      </trkpt>
      <trkpt lat="48.39428" lon="2.54754">
        <ele>135</ele>
        <time>2012-12-27T09:42:32.000Z</time>
      </trkpt>
      <trkpt lat="48.39434" lon="2.54745">
        <ele>135</ele>
        <time>2012-12-27T09:42:37.000Z</time>
      </trkpt>
      <trkpt lat="48.39435" lon="2.54735">
        <ele>135</ele>
        <time>2012-12-27T09:42:42.000Z</time>
      </trkpt>
      <trkpt lat="48.39438" lon="2.54729">
        <ele>135</ele>
        <time>2012-12-27T09:42:44.000Z</time>
      </trkpt>
      <trkpt lat="48.39441" lon="2.54725">
        <ele>135</ele>
        <time>2012-12-27T09:42:46.000Z</time>
      </trkpt>
      <trkpt lat="48.39444" lon="2.54725">
        <ele>135</ele>
        <time>2012-12-27T09:42:48.000Z</time>
      </trkpt>
      <trkpt lat="48.39448" lon="2.54726">
        <ele>134.4</ele>
        <time>2012-12-27T09:42:50.000Z</time>
      </trkpt>
      <trkpt lat="48.39449" lon="2.54725">
        <ele>134</ele>
        <time>2012-12-27T09:42:51.000Z</time>
      </trkpt>
      <trkpt lat="48.39452" lon="2.54726">
        <ele>133.2</ele>
        <time>2012-12-27T09:42:53.000Z</time>
      </trkpt>
      <trkpt lat="48.39453" lon="2.54727">
        <ele>132.8</ele>
        <time>2012-12-27T09:42:54.000Z</time>
      </trkpt>
      <trkpt lat="48.39455" lon="2.54729">
        <ele>132.8</ele>
        <time>2012-12-27T09:42:57.000Z</time>
      </trkpt>
      <trkpt lat="48.39455" lon="2.54731">
        <ele>132.8</ele>
        <time>2012-12-27T09:42:59.000Z</time>
      </trkpt>
      <trkpt lat="48.39451" lon="2.54727">
        <ele>132.8</ele>
        <time>2012-12-27T09:43:05.000Z</time>
      </trkpt>
      <trkpt lat="48.3945" lon="2.54727">
        <ele>132.8</ele>
        <time>2012-12-27T09:43:06.000Z</time>
      </trkpt>
      <trkpt lat="48.39444" lon="2.54721">
        <ele>132.8</ele>
        <time>2012-12-27T09:43:11.000Z</time>
      </trkpt>
      <trkpt lat="48.39444" lon="2.54721">
        <ele>132.8</ele>
        <time>2012-12-27T09:43:12.000Z</time>
      </trkpt>
      <trkpt lat="48.39444" lon="2.54719">
        <ele>132.8</ele>
        <time>2012-12-27T09:43:13.000Z</time>
      </trkpt>
      <trkpt lat="48.39444" lon="2.54718">
        <ele>133.2</ele>
        <time>2012-12-27T09:43:15.000Z</time>
      </trkpt>
      <trkpt lat="48.39444" lon="2.54718">
        <ele>133.6</ele>
        <time>2012-12-27T09:43:16.000Z</time>
      </trkpt>
      <trkpt lat="48.39445" lon="2.54712">
        <ele>134.8</ele>
        <time>2012-12-27T09:43:21.000Z</time>
      </trkpt>
      <trkpt lat="48.39445" lon="2.54708">
        <ele>134.8</ele>
        <time>2012-12-27T09:43:27.000Z</time>
      </trkpt>
      <trkpt lat="48.39445" lon="2.54705">
        <ele>134.8</ele>
        <time>2012-12-27T09:43:28.000Z</time>
      </trkpt>
      <trkpt lat="48.39445" lon="2.54702">
        <ele>134.4</ele>
        <time>2012-12-27T09:43:29.000Z</time>
      </trkpt>
      <trkpt lat="48.39445" lon="2.547">
        <ele>134</ele>
        <time>2012-12-27T09:43:30.000Z</time>
      </trkpt>
      <trkpt lat="48.39446" lon="2.54697">
        <ele>133.6</ele>
        <time>2012-12-27T09:43:31.000Z</time>
      </trkpt>
      <trkpt lat="48.39447" lon="2.54693">
        <ele>132.8</ele>
        <time>2012-12-27T09:43:33.000Z</time>
      </trkpt>
      <trkpt lat="48.39448" lon="2.54682">
        <ele>132.8</ele>
        <time>2012-12-27T09:43:38.000Z</time>
      </trkpt>
      <trkpt lat="48.39447" lon="2.54673">
        <ele>132.8</ele>
        <time>2012-12-27T09:43:41.000Z</time>
      </trkpt>
      <trkpt lat="48.39448" lon="2.54668">
        <ele>132.8</ele>
        <time>2012-12-27T09:43:43.000Z</time>
      </trkpt>
      <trkpt lat="48.39451" lon="2.54661">
        <ele>132.8</ele>
        <time>2012-12-27T09:43:47.000Z</time>
      </trkpt>
      <trkpt lat="48.39451" lon="2.54653">
        <ele>132.8</ele>
        <time>2012-12-27T09:43:54.000Z</time>
      </trkpt>
      <trkpt lat="48.39452" lon="2.54651">
        <ele>132.8</ele>
        <time>2012-12-27T09:43:55.000Z</time>
      </trkpt>
      <trkpt lat="48.39456" lon="2.54633">
        <ele>132.8</ele>
        <time>2012-12-27T09:44:02.000Z</time>
      </trkpt>
      <trkpt lat="48.39459" lon="2.54623">
        <ele>132.8</ele>
        <time>2012-12-27T09:44:06.000Z</time>
      </trkpt>
      <trkpt lat="48.39462" lon="2.54624">
        <ele>132.8</ele>
        <time>2012-12-27T09:44:07.000Z</time>
      </trkpt>
      <trkpt lat="48.39464" lon="2.54623">
        <ele>133.2</ele>
        <time>2012-12-27T09:44:08.000Z</time>
      </trkpt>
      <trkpt lat="48.39466" lon="2.54622">
        <ele>133.6</ele>
        <time>2012-12-27T09:44:09.000Z</time>
      </trkpt>
      <trkpt lat="48.39468" lon="2.54621">
        <ele>134</ele>
        <time>2012-12-27T09:44:10.000Z</time>
      </trkpt>
      <trkpt lat="48.3947" lon="2.54619">
        <ele>134.4</ele>
        <time>2012-12-27T09:44:11.000Z</time>
      </trkpt>
      <trkpt lat="48.39476" lon="2.54612">
        <ele>135</ele>
        <time>2012-12-27T09:44:16.000Z</time>
      </trkpt>
      <trkpt lat="48.39476" lon="2.54609">
        <ele>135</ele>
        <time>2012-12-27T09:44:17.000Z</time>
      </trkpt>
      <trkpt lat="48.39478" lon="2.54607">
        <ele>135</ele>
        <time>2012-12-27T09:44:18.000Z</time>
      </trkpt>
      <trkpt lat="48.39483" lon="2.54603">
        <ele>135</ele>
        <time>2012-12-27T09:44:21.000Z</time>
      </trkpt>
      <trkpt lat="48.39483" lon="2.54603">
        <ele>135</ele>
        <time>2012-12-27T09:44:22.000Z</time>
      </trkpt>
      <trkpt lat="48.39496" lon="2.54589">
        <ele>135</ele>
        <time>2012-12-27T09:44:29.000Z</time>
      </trkpt>
      <trkpt lat="48.39497" lon="2.54585">
        <ele>135</ele>
        <time>2012-12-27T09:44:31.000Z</time>
      </trkpt>
      <trkpt lat="48.39501" lon="2.54574">
        <ele>135</ele>
        <time>2012-12-27T09:44:36.000Z</time>
      </trkpt>
      <trkpt lat="48.39503" lon="2.54563">
        <ele>135</ele>
        <time>2012-12-27T09:44:42.000Z</time>
      </trkpt>
      <trkpt lat="48.39503" lon="2.54558">
        <ele>135</ele>
        <time>2012-12-27T09:44:43.000Z</time>
      </trkpt>
      <trkpt lat="48.39502" lon="2.54551">
        <ele>135</ele>
        <time>2012-12-27T09:44:45.000Z</time>
      </trkpt>
      <trkpt lat="48.39495" lon="2.54538">
        <ele>135</ele>
        <time>2012-12-27T09:44:52.000Z</time>
      </trkpt>
      <trkpt lat="48.39492" lon="2.54536">
        <ele>135</ele>
        <time>2012-12-27T09:44:53.000Z</time>
      </trkpt>
      <trkpt lat="48.39492" lon="2.54535">
        <ele>135</ele>
        <time>2012-12-27T09:44:54.000Z</time>
      </trkpt>
      <trkpt lat="48.3949" lon="2.54535">
        <ele>135</ele>
        <time>2012-12-27T09:44:58.000Z</time>
      </trkpt>
      <trkpt lat="48.39488" lon="2.54531">
        <ele>135</ele>
        <time>2012-12-27T09:45:06.000Z</time>
      </trkpt>
      <trkpt lat="48.3949" lon="2.54526">
        <ele>134.4</ele>
        <time>2012-12-27T09:45:09.000Z</time>
      </trkpt>
      <trkpt lat="48.3949" lon="2.54525">
        <ele>134</ele>
        <time>2012-12-27T09:45:10.000Z</time>
      </trkpt>
      <trkpt lat="48.39491" lon="2.54525">
        <ele>133.6</ele>
        <time>2012-12-27T09:45:11.000Z</time>
      </trkpt>
      <trkpt lat="48.39491" lon="2.54525">
        <ele>133.2</ele>
        <time>2012-12-27T09:45:12.000Z</time>
      </trkpt>
      <trkpt lat="48.39491" lon="2.54524">
        <ele>132.6</ele>
        <time>2012-12-27T09:45:14.000Z</time>
      </trkpt>
      <trkpt lat="48.39487" lon="2.54526">
        <ele>132.6</ele>
        <time>2012-12-27T09:45:31.000Z</time>
      </trkpt>
      <trkpt lat="48.39488" lon="2.54526">
        <ele>132.6</ele>
        <time>2012-12-27T09:45:32.000Z</time>
      </trkpt>
      <trkpt lat="48.39487" lon="2.54529">
        <ele>132.6</ele>
        <time>2012-12-27T09:45:39.000Z</time>
      </trkpt>
      <trkpt lat="48.39487" lon="2.54531">
        <ele>132.6</ele>
        <time>2012-12-27T09:45:41.000Z</time>
      </trkpt>
      <trkpt lat="48.39489" lon="2.54531">
        <ele>132.6</ele>
        <time>2012-12-27T09:45:48.000Z</time>
      </trkpt>
      <trkpt lat="48.39489" lon="2.54531">
        <ele>132.6</ele>
        <time>2012-12-27T09:45:49.000Z</time>
      </trkpt>
      <trkpt lat="48.39493" lon="2.54531">
        <ele>133.4</ele>
        <time>2012-12-27T09:45:52.000Z</time>
      </trkpt>
      <trkpt lat="48.39493" lon="2.54532">
        <ele>134</ele>
        <time>2012-12-27T09:45:53.000Z</time>
      </trkpt>
      <trkpt lat="48.39494" lon="2.54533">
        <ele>134.4</ele>
        <time>2012-12-27T09:45:54.000Z</time>
      </trkpt>
      <trkpt lat="48.39494" lon="2.54533">
        <ele>134.8</ele>
        <time>2012-12-27T09:45:55.000Z</time>
      </trkpt>
      <trkpt lat="48.39498" lon="2.54538">
        <ele>134.8</ele>
        <time>2012-12-27T09:46:00.000Z</time>
      </trkpt>
      <trkpt lat="48.39499" lon="2.54541">
        <ele>134.8</ele>
        <time>2012-12-27T09:46:01.000Z</time>
      </trkpt>
      <trkpt lat="48.39504" lon="2.54546">
        <ele>134.8</ele>
        <time>2012-12-27T09:46:05.000Z</time>
      </trkpt>
      <trkpt lat="48.39506" lon="2.54545">
        <ele>134.8</ele>
        <time>2012-12-27T09:46:06.000Z</time>
      </trkpt>
      <trkpt lat="48.39508" lon="2.54546">
        <ele>134.8</ele>
        <time>2012-12-27T09:46:07.000Z</time>
      </trkpt>
      <trkpt lat="48.39517" lon="2.5455">
        <ele>134.8</ele>
        <time>2012-12-27T09:46:13.000Z</time>
      </trkpt>
      <trkpt lat="48.39519" lon="2.54552">
        <ele>134.8</ele>
        <time>2012-12-27T09:46:18.000Z</time>
      </trkpt>
      <trkpt lat="48.39513" lon="2.54552">
        <ele>134.8</ele>
        <time>2012-12-27T09:46:29.000Z</time>
      </trkpt>
      <trkpt lat="48.39508" lon="2.5455">
        <ele>134.8</ele>
        <time>2012-12-27T09:46:32.000Z</time>
      </trkpt>
      <trkpt lat="48.39506" lon="2.54551">
        <ele>134.8</ele>
        <time>2012-12-27T09:46:33.000Z</time>
      </trkpt>
      <trkpt lat="48.39504" lon="2.54556">
        <ele>134.8</ele>
        <time>2012-12-27T09:46:37.000Z</time>
      </trkpt>
      <trkpt lat="48.39501" lon="2.54568">
        <ele>134.8</ele>
        <time>2012-12-27T09:46:46.000Z</time>
      </trkpt>
      <trkpt lat="48.39501" lon="2.5457">
        <ele>134.8</ele>
        <time>2012-12-27T09:46:48.000Z</time>
      </trkpt>
      <trkpt lat="48.39499" lon="2.54574">
        <ele>134.8</ele>
        <time>2012-12-27T09:46:51.000Z</time>
      </trkpt>
      <trkpt lat="48.39498" lon="2.54579">
        <ele>134.8</ele>
        <time>2012-12-27T09:46:53.000Z</time>
      </trkpt>
      <trkpt lat="48.39498" lon="2.54586">
        <ele>134.8</ele>
        <time>2012-12-27T09:46:57.000Z</time>
      </trkpt>
      <trkpt lat="48.39493" lon="2.5459">
        <ele>134.8</ele>
        <time>2012-12-27T09:47:03.000Z</time>
      </trkpt>
      <trkpt lat="48.39491" lon="2.54596">
        <ele>134.8</ele>
        <time>2012-12-27T09:47:05.000Z</time>
      </trkpt>
      <trkpt lat="48.39487" lon="2.546">
        <ele>134.8</ele>
        <time>2012-12-27T09:47:08.000Z</time>
      </trkpt>
      <trkpt lat="48.39486" lon="2.54601">
        <ele>135.2</ele>
        <time>2012-12-27T09:47:10.000Z</time>
      </trkpt>
      <trkpt lat="48.39485" lon="2.54602">
        <ele>135.6</ele>
        <time>2012-12-27T09:47:11.000Z</time>
      </trkpt>
      <trkpt lat="48.39483" lon="2.54604">
        <ele>136</ele>
        <time>2012-12-27T09:47:12.000Z</time>
      </trkpt>
      <trkpt lat="48.39481" lon="2.54605">
        <ele>136.4</ele>
        <time>2012-12-27T09:47:13.000Z</time>
      </trkpt>
      <trkpt lat="48.39479" lon="2.54607">
        <ele>136.8</ele>
        <time>2012-12-27T09:47:14.000Z</time>
      </trkpt>
      <trkpt lat="48.39478" lon="2.5461">
        <ele>136.8</ele>
        <time>2012-12-27T09:47:16.000Z</time>
      </trkpt>
      <trkpt lat="48.39478" lon="2.54612">
        <ele>136.8</ele>
        <time>2012-12-27T09:47:17.000Z</time>
      </trkpt>
      <trkpt lat="48.39475" lon="2.54616">
        <ele>136.8</ele>
        <time>2012-12-27T09:47:21.000Z</time>
      </trkpt>
      <trkpt lat="48.39475" lon="2.54617">
        <ele>136.8</ele>
        <time>2012-12-27T09:47:23.000Z</time>
      </trkpt>
      <trkpt lat="48.39475" lon="2.54618">
        <ele>136.8</ele>
        <time>2012-12-27T09:47:24.000Z</time>
      </trkpt>
      <trkpt lat="48.39465" lon="2.54625">
        <ele>136.8</ele>
        <time>2012-12-27T09:47:36.000Z</time>
      </trkpt>
      <trkpt lat="48.39458" lon="2.54628">
        <ele>136.4</ele>
        <time>2012-12-27T09:47:39.000Z</time>
      </trkpt>
      <trkpt lat="48.39457" lon="2.54631">
        <ele>136</ele>
        <time>2012-12-27T09:47:40.000Z</time>
      </trkpt>
      <trkpt lat="48.39457" lon="2.54637">
        <ele>135</ele>
        <time>2012-12-27T09:47:42.000Z</time>
      </trkpt>
      <trkpt lat="48.39453" lon="2.54661">
        <ele>134.6</ele>
        <time>2012-12-27T09:47:49.000Z</time>
      </trkpt>
      <trkpt lat="48.39452" lon="2.54664">
        <ele>134.6</ele>
        <time>2012-12-27T09:47:53.000Z</time>
      </trkpt>
      <trkpt lat="48.39454" lon="2.54655">
        <ele>134.6</ele>
        <time>2012-12-27T09:48:01.000Z</time>
      </trkpt>
      <trkpt lat="48.39454" lon="2.54652">
        <ele>134.6</ele>
        <time>2012-12-27T09:48:03.000Z</time>
      </trkpt>
      <trkpt lat="48.39453" lon="2.54649">
        <ele>134.6</ele>
        <time>2012-12-27T09:48:05.000Z</time>
      </trkpt>
      <trkpt lat="48.39457" lon="2.54625">
        <ele>134.6</ele>
        <time>2012-12-27T09:48:19.000Z</time>
      </trkpt>
      <trkpt lat="48.39457" lon="2.54624">
        <ele>134.6</ele>
        <time>2012-12-27T09:48:21.000Z</time>
      </trkpt>
      <trkpt lat="48.39455" lon="2.54616">
        <ele>134.6</ele>
        <time>2012-12-27T09:48:24.000Z</time>
      </trkpt>
      <trkpt lat="48.39447" lon="2.54599">
        <ele>133.6</ele>
        <time>2012-12-27T09:48:29.000Z</time>
      </trkpt>
      <trkpt lat="48.39444" lon="2.54592">
        <ele>132.2</ele>
        <time>2012-12-27T09:48:32.000Z</time>
      </trkpt>
      <trkpt lat="48.39444" lon="2.54591">
        <ele>130.6</ele>
        <time>2012-12-27T09:48:35.000Z</time>
      </trkpt>
      <trkpt lat="48.39447" lon="2.54586">
        <ele>130</ele>
        <time>2012-12-27T09:48:52.000Z</time>
      </trkpt>
      <trkpt lat="48.39448" lon="2.54582">
        <ele>130</ele>
        <time>2012-12-27T09:48:55.000Z</time>
      </trkpt>
      <trkpt lat="48.39448" lon="2.54579">
        <ele>130</ele>
        <time>2012-12-27T09:48:58.000Z</time>
      </trkpt>
      <trkpt lat="48.3945" lon="2.54578">
        <ele>130</ele>
        <time>2012-12-27T09:49:00.000Z</time>
      </trkpt>
      <trkpt lat="48.39454" lon="2.54577">
        <ele>130</ele>
        <time>2012-12-27T09:49:03.000Z</time>
      </trkpt>
      <trkpt lat="48.39458" lon="2.54572">
        <ele>130</ele>
        <time>2012-12-27T09:49:08.000Z</time>
      </trkpt>
      <trkpt lat="48.39461" lon="2.5457">
        <ele>131.2</ele>
        <time>2012-12-27T09:49:11.000Z</time>
      </trkpt>
      <trkpt lat="48.39461" lon="2.5457">
        <ele>131.8</ele>
        <time>2012-12-27T09:49:12.000Z</time>
      </trkpt>
      <trkpt lat="48.39461" lon="2.54569">
        <ele>132.2</ele>
        <time>2012-12-27T09:49:13.000Z</time>
      </trkpt>
      <trkpt lat="48.3946" lon="2.54564">
        <ele>132.2</ele>
        <time>2012-12-27T09:49:20.000Z</time>
      </trkpt>
      <trkpt lat="48.39461" lon="2.54559">
        <ele>132.2</ele>
        <time>2012-12-27T09:49:23.000Z</time>
      </trkpt>
      <trkpt lat="48.39461" lon="2.54557">
        <ele>132.2</ele>
        <time>2012-12-27T09:49:24.000Z</time>
      </trkpt>
      <trkpt lat="48.39462" lon="2.54552">
        <ele>132.2</ele>
        <time>2012-12-27T09:49:27.000Z</time>
      </trkpt>
      <trkpt lat="48.39463" lon="2.5455">
        <ele>132.2</ele>
        <time>2012-12-27T09:49:28.000Z</time>
      </trkpt>
      <trkpt lat="48.39467" lon="2.54544">
        <ele>132.2</ele>
        <time>2012-12-27T09:49:31.000Z</time>
      </trkpt>
      <trkpt lat="48.39468" lon="2.54537">
        <ele>133</ele>
        <time>2012-12-27T09:49:34.000Z</time>
      </trkpt>
      <trkpt lat="48.39467" lon="2.54535">
        <ele>133.4</ele>
        <time>2012-12-27T09:49:35.000Z</time>
      </trkpt>
      <trkpt lat="48.39463" lon="2.54525">
        <ele>134.2</ele>
        <time>2012-12-27T09:49:39.000Z</time>
      </trkpt>
      <trkpt lat="48.39461" lon="2.54521">
        <ele>134.2</ele>
        <time>2012-12-27T09:49:41.000Z</time>
      </trkpt>
      <trkpt lat="48.39458" lon="2.54515">
        <ele>134.2</ele>
        <time>2012-12-27T09:49:44.000Z</time>
      </trkpt>
      <trkpt lat="48.39459" lon="2.54472">
        <ele>134.2</ele>
        <time>2012-12-27T09:49:56.000Z</time>
      </trkpt>
      <trkpt lat="48.39456" lon="2.54457">
        <ele>134.2</ele>
        <time>2012-12-27T09:50:00.000Z</time>
      </trkpt>
      <trkpt lat="48.39456" lon="2.54438">
        <ele>134.2</ele>
        <time>2012-12-27T09:50:05.000Z</time>
      </trkpt>
      <trkpt lat="48.39461" lon="2.54421">
        <ele>134.2</ele>
        <time>2012-12-27T09:50:10.000Z</time>
      </trkpt>
      <trkpt lat="48.39463" lon="2.54403">
        <ele>134.2</ele>
        <time>2012-12-27T09:50:15.000Z</time>
      </trkpt>
      <trkpt lat="48.39475" lon="2.54361">
        <ele>134.2</ele>
        <time>2012-12-27T09:50:27.000Z</time>
      </trkpt>
      <trkpt lat="48.39472" lon="2.54346">
        <ele>134.2</ele>
        <time>2012-12-27T09:50:32.000Z</time>
      </trkpt>
      <trkpt lat="48.39474" lon="2.54338">
        <ele>134.2</ele>
        <time>2012-12-27T09:50:35.000Z</time>
      </trkpt>
      <trkpt lat="48.39476" lon="2.54336">
        <ele>134.2</ele>
        <time>2012-12-27T09:50:36.000Z</time>
      </trkpt>
      <trkpt lat="48.39478" lon="2.54335">
        <ele>134.2</ele>
        <time>2012-12-27T09:50:37.000Z</time>
      </trkpt>
      <trkpt lat="48.39485" lon="2.54321">
        <ele>134.2</ele>
        <time>2012-12-27T09:50:42.000Z</time>
      </trkpt>
      <trkpt lat="48.39487" lon="2.5431">
        <ele>134.2</ele>
        <time>2012-12-27T09:50:46.000Z</time>
      </trkpt>
      <trkpt lat="48.39489" lon="2.54307">
        <ele>134.2</ele>
        <time>2012-12-27T09:50:47.000Z</time>
      </trkpt>
      <trkpt lat="48.3949" lon="2.54304">
        <ele>134.2</ele>
        <time>2012-12-27T09:50:48.000Z</time>
      </trkpt>
      <trkpt lat="48.39494" lon="2.54302">
        <ele>134.2</ele>
        <time>2012-12-27T09:50:50.000Z</time>
      </trkpt>
      <trkpt lat="48.39502" lon="2.54307">
        <ele>134.2</ele>
        <time>2012-12-27T09:50:54.000Z</time>
      </trkpt>
      <trkpt lat="48.39523" lon="2.54314">
        <ele>134.2</ele>
        <time>2012-12-27T09:51:03.000Z</time>
      </trkpt>
      <trkpt lat="48.39524" lon="2.54313">
        <ele>134.2</ele>
        <time>2012-12-27T09:51:04.000Z</time>
      </trkpt>
      <trkpt lat="48.39526" lon="2.54299">
        <ele>134.2</ele>
        <time>2012-12-27T09:51:08.000Z</time>
      </trkpt>
      <trkpt lat="48.3953" lon="2.54286">
        <ele>134.6</ele>
        <time>2012-12-27T09:51:12.000Z</time>
      </trkpt>
      <trkpt lat="48.3953" lon="2.54282">
        <ele>135</ele>
        <time>2012-12-27T09:51:13.000Z</time>
      </trkpt>
      <trkpt lat="48.39529" lon="2.54276">
        <ele>135.8</ele>
        <time>2012-12-27T09:51:15.000Z</time>
      </trkpt>
      <trkpt lat="48.39531" lon="2.54262">
        <ele>136.2</ele>
        <time>2012-12-27T09:51:20.000Z</time>
      </trkpt>
      <trkpt lat="48.39531" lon="2.54259">
        <ele>136.2</ele>
        <time>2012-12-27T09:51:23.000Z</time>
      </trkpt>
      <trkpt lat="48.39535" lon="2.54245">
        <ele>136.2</ele>
        <time>2012-12-27T09:51:29.000Z</time>
      </trkpt>
      <trkpt lat="48.39545" lon="2.54221">
        <ele>136.2</ele>
        <time>2012-12-27T09:51:37.000Z</time>
      </trkpt>
      <trkpt lat="48.39552" lon="2.54195">
        <ele>136.2</ele>
        <time>2012-12-27T09:51:43.000Z</time>
      </trkpt>
      <trkpt lat="48.3956" lon="2.54182">
        <ele>136.2</ele>
        <time>2012-12-27T09:51:47.000Z</time>
      </trkpt>
      <trkpt lat="48.39563" lon="2.54177">
        <ele>136.2</ele>
        <time>2012-12-27T09:51:49.000Z</time>
      </trkpt>
      <trkpt lat="48.39567" lon="2.54175">
        <ele>136.2</ele>
        <time>2012-12-27T09:51:51.000Z</time>
      </trkpt>
      <trkpt lat="48.39575" lon="2.5417">
        <ele>136.2</ele>
        <time>2012-12-27T09:51:55.000Z</time>
      </trkpt>
      <trkpt lat="48.39577" lon="2.54164">
        <ele>136.2</ele>
        <time>2012-12-27T09:51:57.000Z</time>
      </trkpt>
      <trkpt lat="48.39575" lon="2.54124">
        <ele>136.2</ele>
        <time>2012-12-27T09:52:07.000Z</time>
      </trkpt>
      <trkpt lat="48.39585" lon="2.54089">
        <ele>136.2</ele>
        <time>2012-12-27T09:52:17.000Z</time>
      </trkpt>
      <trkpt lat="48.39584" lon="2.54074">
        <ele>136.2</ele>
        <time>2012-12-27T09:52:21.000Z</time>
      </trkpt>
      <trkpt lat="48.3958" lon="2.54061">
        <ele>136.2</ele>
        <time>2012-12-27T09:52:25.000Z</time>
      </trkpt>
      <trkpt lat="48.3958" lon="2.54038">
        <ele>136.2</ele>
        <time>2012-12-27T09:52:30.000Z</time>
      </trkpt>
      <trkpt lat="48.39583" lon="2.54027">
        <ele>136.2</ele>
        <time>2012-12-27T09:52:33.000Z</time>
      </trkpt>
      <trkpt lat="48.39584" lon="2.54021">
        <ele>136.2</ele>
        <time>2012-12-27T09:52:35.000Z</time>
      </trkpt>
      <trkpt lat="48.39586" lon="2.54011">
        <ele>136.2</ele>
        <time>2012-12-27T09:52:38.000Z</time>
      </trkpt>
      <trkpt lat="48.39586" lon="2.54007">
        <ele>136.2</ele>
        <time>2012-12-27T09:52:39.000Z</time>
      </trkpt>
      <trkpt lat="48.39591" lon="2.53994">
        <ele>136.2</ele>
        <time>2012-12-27T09:52:43.000Z</time>
      </trkpt>
      <trkpt lat="48.39593" lon="2.53979">
        <ele>136.2</ele>
        <time>2012-12-27T09:52:47.000Z</time>
      </trkpt>
      <trkpt lat="48.39594" lon="2.53962">
        <ele>136.2</ele>
        <time>2012-12-27T09:52:51.000Z</time>
      </trkpt>
      <trkpt lat="48.39598" lon="2.53946">
        <ele>136.2</ele>
        <time>2012-12-27T09:52:55.000Z</time>
      </trkpt>
      <trkpt lat="48.39598" lon="2.53938">
        <ele>136.2</ele>
        <time>2012-12-27T09:52:57.000Z</time>
      </trkpt>
      <trkpt lat="48.39597" lon="2.53919">
        <ele>136.2</ele>
        <time>2012-12-27T09:53:01.000Z</time>
      </trkpt>
      <trkpt lat="48.39595" lon="2.53911">
        <ele>136.2</ele>
        <time>2012-12-27T09:53:03.000Z</time>
      </trkpt>
      <trkpt lat="48.39582" lon="2.53896">
        <ele>136.2</ele>
        <time>2012-12-27T09:53:10.000Z</time>
      </trkpt>
      <trkpt lat="48.39579" lon="2.5389">
        <ele>136.2</ele>
        <time>2012-12-27T09:53:12.000Z</time>
      </trkpt>
      <trkpt lat="48.3958" lon="2.53885">
        <ele>136.2</ele>
        <time>2012-12-27T09:53:14.000Z</time>
      </trkpt>
      <trkpt lat="48.39578" lon="2.53872">
        <ele>136.2</ele>
        <time>2012-12-27T09:53:18.000Z</time>
      </trkpt>
      <trkpt lat="48.39577" lon="2.53862">
        <ele>136.2</ele>
        <time>2012-12-27T09:53:21.000Z</time>
      </trkpt>
      <trkpt lat="48.39582" lon="2.53838">
        <ele>136.2</ele>
        <time>2012-12-27T09:53:29.000Z</time>
      </trkpt>
      <trkpt lat="48.39582" lon="2.53836">
        <ele>136.2</ele>
        <time>2012-12-27T09:53:30.000Z</time>
      </trkpt>
      <trkpt lat="48.39581" lon="2.53828">
        <ele>136.2</ele>
        <time>2012-12-27T09:53:33.000Z</time>
      </trkpt>
      <trkpt lat="48.39581" lon="2.53817">
        <ele>136.2</ele>
        <time>2012-12-27T09:53:36.000Z</time>
      </trkpt>
      <trkpt lat="48.39583" lon="2.53809">
        <ele>136.2</ele>
        <time>2012-12-27T09:53:38.000Z</time>
      </trkpt>
      <trkpt lat="48.39591" lon="2.53801">
        <ele>136.2</ele>
        <time>2012-12-27T09:53:42.000Z</time>
      </trkpt>
      <trkpt lat="48.39593" lon="2.53801">
        <ele>136.2</ele>
        <time>2012-12-27T09:53:43.000Z</time>
      </trkpt>
      <trkpt lat="48.39601" lon="2.53802">
        <ele>136.2</ele>
        <time>2012-12-27T09:53:46.000Z</time>
      </trkpt>
      <trkpt lat="48.39612" lon="2.53799">
        <ele>136.2</ele>
        <time>2012-12-27T09:53:50.000Z</time>
      </trkpt>
      <trkpt lat="48.39616" lon="2.53799">
        <ele>136.2</ele>
        <time>2012-12-27T09:53:52.000Z</time>
      </trkpt>
      <trkpt lat="48.39618" lon="2.53802">
        <ele>136.2</ele>
        <time>2012-12-27T09:53:53.000Z</time>
      </trkpt>
      <trkpt lat="48.3962" lon="2.53803">
        <ele>136.2</ele>
        <time>2012-12-27T09:53:54.000Z</time>
      </trkpt>
      <trkpt lat="48.39623" lon="2.53805">
        <ele>136.2</ele>
        <time>2012-12-27T09:53:56.000Z</time>
      </trkpt>
      <trkpt lat="48.39631" lon="2.53802">
        <ele>136.2</ele>
        <time>2012-12-27T09:54:00.000Z</time>
      </trkpt>
      <trkpt lat="48.39641" lon="2.538">
        <ele>136.2</ele>
        <time>2012-12-27T09:54:03.000Z</time>
      </trkpt>
      <trkpt lat="48.39644" lon="2.53799">
        <ele>136.2</ele>
        <time>2012-12-27T09:54:04.000Z</time>
      </trkpt>
      <trkpt lat="48.39652" lon="2.53792">
        <ele>136.2</ele>
        <time>2012-12-27T09:54:08.000Z</time>
      </trkpt>
      <trkpt lat="48.39654" lon="2.53785">
        <ele>136.2</ele>
        <time>2012-12-27T09:54:10.000Z</time>
      </trkpt>
      <trkpt lat="48.39652" lon="2.53767">
        <ele>136.2</ele>
        <time>2012-12-27T09:54:15.000Z</time>
      </trkpt>
      <trkpt lat="48.39646" lon="2.53757">
        <ele>136.2</ele>
        <time>2012-12-27T09:54:19.000Z</time>
      </trkpt>
      <trkpt lat="48.39642" lon="2.53747">
        <ele>136.2</ele>
        <time>2012-12-27T09:54:22.000Z</time>
      </trkpt>
      <trkpt lat="48.39642" lon="2.53707">
        <ele>136.2</ele>
        <time>2012-12-27T09:54:31.000Z</time>
      </trkpt>
      <trkpt lat="48.39642" lon="2.53703">
        <ele>136.2</ele>
        <time>2012-12-27T09:54:32.000Z</time>
      </trkpt>
      <trkpt lat="48.39639" lon="2.53687">
        <ele>136.2</ele>
        <time>2012-12-27T09:54:36.000Z</time>
      </trkpt>
      <trkpt lat="48.39643" lon="2.53674">
        <ele>136.2</ele>
        <time>2012-12-27T09:54:40.000Z</time>
      </trkpt>
      <trkpt lat="48.39646" lon="2.53669">
        <ele>136.2</ele>
        <time>2012-12-27T09:54:44.000Z</time>
      </trkpt>
      <trkpt lat="48.39645" lon="2.53667">
        <ele>136.2</ele>
        <time>2012-12-27T09:54:46.000Z</time>
      </trkpt>
      <trkpt lat="48.39646" lon="2.53657">
        <ele>136.2</ele>
        <time>2012-12-27T09:54:51.000Z</time>
      </trkpt>
      <trkpt lat="48.39646" lon="2.53654">
        <ele>136.2</ele>
        <time>2012-12-27T09:54:52.000Z</time>
      </trkpt>
      <trkpt lat="48.3965" lon="2.5365">
        <ele>136.2</ele>
        <time>2012-12-27T09:54:56.000Z</time>
      </trkpt>
      <trkpt lat="48.39657" lon="2.53646">
        <ele>136.2</ele>
        <time>2012-12-27T09:55:00.000Z</time>
      </trkpt>
      <trkpt lat="48.39664" lon="2.53635">
        <ele>136.2</ele>
        <time>2012-12-27T09:55:04.000Z</time>
      </trkpt>
      <trkpt lat="48.3967" lon="2.53633">
        <ele>136.2</ele>
        <time>2012-12-27T09:55:07.000Z</time>
      </trkpt>
      <trkpt lat="48.3968" lon="2.53626">
        <ele>136.2</ele>
        <time>2012-12-27T09:55:12.000Z</time>
      </trkpt>
      <trkpt lat="48.39684" lon="2.53619">
        <ele>136.2</ele>
        <time>2012-12-27T09:55:15.000Z</time>
      </trkpt>
      <trkpt lat="48.39686" lon="2.53613">
        <ele>136.2</ele>
        <time>2012-12-27T09:55:17.000Z</time>
      </trkpt>
      <trkpt lat="48.39687" lon="2.53609">
        <ele>136.2</ele>
        <time>2012-12-27T09:55:18.000Z</time>
      </trkpt>
      <trkpt lat="48.39687" lon="2.536">
        <ele>136.2</ele>
        <time>2012-12-27T09:55:21.000Z</time>
      </trkpt>
      <trkpt lat="48.3969" lon="2.53591">
        <ele>136.2</ele>
        <time>2012-12-27T09:55:25.000Z</time>
      </trkpt>
      <trkpt lat="48.39691" lon="2.53586">
        <ele>136.2</ele>
        <time>2012-12-27T09:55:27.000Z</time>
      </trkpt>
      <trkpt lat="48.39689" lon="2.53582">
        <ele>136.2</ele>
        <time>2012-12-27T09:55:30.000Z</time>
      </trkpt>
      <trkpt lat="48.39686" lon="2.5358">
        <ele>136.2</ele>
        <time>2012-12-27T09:55:31.000Z</time>
      </trkpt>
      <trkpt lat="48.3968" lon="2.5357">
        <ele>136.2</ele>
        <time>2012-12-27T09:55:35.000Z</time>
      </trkpt>
      <trkpt lat="48.3968" lon="2.53554">
        <ele>136.2</ele>
        <time>2012-12-27T09:55:39.000Z</time>
      </trkpt>
      <trkpt lat="48.39682" lon="2.53549">
        <ele>136.2</ele>
        <time>2012-12-27T09:55:41.000Z</time>
      </trkpt>
      <trkpt lat="48.39684" lon="2.53543">
        <ele>136.2</ele>
        <time>2012-12-27T09:55:43.000Z</time>
      </trkpt>
      <trkpt lat="48.39684" lon="2.53518">
        <ele>136.2</ele>
        <time>2012-12-27T09:55:50.000Z</time>
      </trkpt>
      <trkpt lat="48.39698" lon="2.53451">
        <ele>136.2</ele>
        <time>2012-12-27T09:56:06.000Z</time>
      </trkpt>
      <trkpt lat="48.39731" lon="2.53369">
        <ele>136.2</ele>
        <time>2012-12-27T09:56:27.000Z</time>
      </trkpt>
      <trkpt lat="48.39734" lon="2.53354">
        <ele>136.2</ele>
        <time>2012-12-27T09:56:31.000Z</time>
      </trkpt>
      <trkpt lat="48.39741" lon="2.53334">
        <ele>136.2</ele>
        <time>2012-12-27T09:56:37.000Z</time>
      </trkpt>
      <trkpt lat="48.39745" lon="2.53314">
        <ele>136.2</ele>
        <time>2012-12-27T09:56:42.000Z</time>
      </trkpt>
      <trkpt lat="48.39746" lon="2.53311">
        <ele>136.2</ele>
        <time>2012-12-27T09:56:43.000Z</time>
      </trkpt>
      <trkpt lat="48.39749" lon="2.53306">
        <ele>136.2</ele>
        <time>2012-12-27T09:56:45.000Z</time>
      </trkpt>
      <trkpt lat="48.39752" lon="2.53291">
        <ele>136.2</ele>
        <time>2012-12-27T09:56:49.000Z</time>
      </trkpt>
      <trkpt lat="48.39751" lon="2.53274">
        <ele>136.2</ele>
        <time>2012-12-27T09:56:53.000Z</time>
      </trkpt>
      <trkpt lat="48.39747" lon="2.53259">
        <ele>136.2</ele>
        <time>2012-12-27T09:56:57.000Z</time>
      </trkpt>
      <trkpt lat="48.39747" lon="2.53256">
        <ele>136.2</ele>
        <time>2012-12-27T09:56:58.000Z</time>
      </trkpt>
      <trkpt lat="48.39741" lon="2.53225">
        <ele>136.2</ele>
        <time>2012-12-27T09:57:05.000Z</time>
      </trkpt>
      <trkpt lat="48.39744" lon="2.53202">
        <ele>136.2</ele>
        <time>2012-12-27T09:57:10.000Z</time>
      </trkpt>
      <trkpt lat="48.39742" lon="2.53188">
        <ele>136.2</ele>
        <time>2012-12-27T09:57:15.000Z</time>
      </trkpt>
      <trkpt lat="48.39736" lon="2.53186">
        <ele>136.2</ele>
        <time>2012-12-27T09:57:19.000Z</time>
      </trkpt>
      <trkpt lat="48.39728" lon="2.5318">
        <ele>136.2</ele>
        <time>2012-12-27T09:57:23.000Z</time>
      </trkpt>
      <trkpt lat="48.39725" lon="2.53178">
        <ele>136.2</ele>
        <time>2012-12-27T09:57:24.000Z</time>
      </trkpt>
      <trkpt lat="48.39719" lon="2.53168">
        <ele>136.2</ele>
        <time>2012-12-27T09:57:27.000Z</time>
      </trkpt>
      <trkpt lat="48.39718" lon="2.53165">
        <ele>136.2</ele>
        <time>2012-12-27T09:57:28.000Z</time>
      </trkpt>
      <trkpt lat="48.39718" lon="2.53162">
        <ele>136.2</ele>
        <time>2012-12-27T09:57:29.000Z</time>
      </trkpt>
      <trkpt lat="48.39714" lon="2.53156">
        <ele>136.2</ele>
        <time>2012-12-27T09:57:32.000Z</time>
      </trkpt>
      <trkpt lat="48.39703" lon="2.53153">
        <ele>136.2</ele>
        <time>2012-12-27T09:57:36.000Z</time>
      </trkpt>
      <trkpt lat="48.397" lon="2.53152">
        <ele>136.2</ele>
        <time>2012-12-27T09:57:37.000Z</time>
      </trkpt>
      <trkpt lat="48.3969" lon="2.53144">
        <ele>136.2</ele>
        <time>2012-12-27T09:57:41.000Z</time>
      </trkpt>
      <trkpt lat="48.39689" lon="2.53141">
        <ele>136.2</ele>
        <time>2012-12-27T09:57:42.000Z</time>
      </trkpt>
      <trkpt lat="48.3969" lon="2.53134">
        <ele>136.6</ele>
        <time>2012-12-27T09:57:44.000Z</time>
      </trkpt>
      <trkpt lat="48.3969" lon="2.5313">
        <ele>137</ele>
        <time>2012-12-27T09:57:45.000Z</time>
      </trkpt>
      <trkpt lat="48.39691" lon="2.53126">
        <ele>137.4</ele>
        <time>2012-12-27T09:57:46.000Z</time>
      </trkpt>
      <trkpt lat="48.39689" lon="2.53122">
        <ele>137.8</ele>
        <time>2012-12-27T09:57:47.000Z</time>
      </trkpt>
      <trkpt lat="48.39686" lon="2.53115">
        <ele>138.2</ele>
        <time>2012-12-27T09:57:49.000Z</time>
      </trkpt>
      <trkpt lat="48.39682" lon="2.53096">
        <ele>138.2</ele>
        <time>2012-12-27T09:57:53.000Z</time>
      </trkpt>
      <trkpt lat="48.3967" lon="2.53077">
        <ele>138.2</ele>
        <time>2012-12-27T09:57:59.000Z</time>
      </trkpt>
      <trkpt lat="48.39665" lon="2.53071">
        <ele>138.2</ele>
        <time>2012-12-27T09:58:03.000Z</time>
      </trkpt>
      <trkpt lat="48.39661" lon="2.53061">
        <ele>138.2</ele>
        <time>2012-12-27T09:58:06.000Z</time>
      </trkpt>
      <trkpt lat="48.39658" lon="2.53043">
        <ele>138.2</ele>
        <time>2012-12-27T09:58:10.000Z</time>
      </trkpt>
      <trkpt lat="48.39659" lon="2.53027">
        <ele>138.2</ele>
        <time>2012-12-27T09:58:14.000Z</time>
      </trkpt>
      <trkpt lat="48.39666" lon="2.53005">
        <ele>138.2</ele>
        <time>2012-12-27T09:58:20.000Z</time>
      </trkpt>
      <trkpt lat="48.3967" lon="2.52999">
        <ele>137.8</ele>
        <time>2012-12-27T09:58:22.000Z</time>
      </trkpt>
      <trkpt lat="48.39672" lon="2.52995">
        <ele>137.4</ele>
        <time>2012-12-27T09:58:23.000Z</time>
      </trkpt>
      <trkpt lat="48.39674" lon="2.52992">
        <ele>137</ele>
        <time>2012-12-27T09:58:24.000Z</time>
      </trkpt>
      <trkpt lat="48.39685" lon="2.52988">
        <ele>136.2</ele>
        <time>2012-12-27T09:58:29.000Z</time>
      </trkpt>
      <trkpt lat="48.39692" lon="2.52989">
        <ele>136.2</ele>
        <time>2012-12-27T09:58:32.000Z</time>
      </trkpt>
      <trkpt lat="48.397" lon="2.52988">
        <ele>136.2</ele>
        <time>2012-12-27T09:58:36.000Z</time>
      </trkpt>
      <trkpt lat="48.39701" lon="2.52987">
        <ele>136.6</ele>
        <time>2012-12-27T09:58:37.000Z</time>
      </trkpt>
      <trkpt lat="48.39705" lon="2.52971">
        <ele>138.2</ele>
        <time>2012-12-27T09:58:41.000Z</time>
      </trkpt>
      <trkpt lat="48.39705" lon="2.52968">
        <ele>138.2</ele>
        <time>2012-12-27T09:58:42.000Z</time>
      </trkpt>
      <trkpt lat="48.39706" lon="2.52962">
        <ele>138.2</ele>
        <time>2012-12-27T09:58:44.000Z</time>
      </trkpt>
      <trkpt lat="48.3971" lon="2.52952">
        <ele>138.2</ele>
        <time>2012-12-27T09:58:48.000Z</time>
      </trkpt>
      <trkpt lat="48.39717" lon="2.52949">
        <ele>138.2</ele>
        <time>2012-12-27T09:58:52.000Z</time>
      </trkpt>
      <trkpt lat="48.39723" lon="2.5296">
        <ele>138.2</ele>
        <time>2012-12-27T09:58:56.000Z</time>
      </trkpt>
      <trkpt lat="48.39729" lon="2.5296">
        <ele>138.2</ele>
        <time>2012-12-27T09:58:59.000Z</time>
      </trkpt>
      <trkpt lat="48.39739" lon="2.52957">
        <ele>138.2</ele>
        <time>2012-12-27T09:59:03.000Z</time>
      </trkpt>
      <trkpt lat="48.39741" lon="2.52959">
        <ele>138.2</ele>
        <time>2012-12-27T09:59:04.000Z</time>
      </trkpt>
      <trkpt lat="48.39746" lon="2.52956">
        <ele>138.2</ele>
        <time>2012-12-27T09:59:07.000Z</time>
      </trkpt>
      <trkpt lat="48.39747" lon="2.52954">
        <ele>138.2</ele>
        <time>2012-12-27T09:59:08.000Z</time>
      </trkpt>
      <trkpt lat="48.39748" lon="2.52952">
        <ele>138.2</ele>
        <time>2012-12-27T09:59:09.000Z</time>
      </trkpt>
      <trkpt lat="48.39749" lon="2.52948">
        <ele>138.2</ele>
        <time>2012-12-27T09:59:10.000Z</time>
      </trkpt>
      <trkpt lat="48.3975" lon="2.52945">
        <ele>138.2</ele>
        <time>2012-12-27T09:59:11.000Z</time>
      </trkpt>
      <trkpt lat="48.39751" lon="2.5294">
        <ele>138.2</ele>
        <time>2012-12-27T09:59:13.000Z</time>
      </trkpt>
      <trkpt lat="48.39756" lon="2.52934">
        <ele>139</ele>
        <time>2012-12-27T09:59:16.000Z</time>
      </trkpt>
      <trkpt lat="48.39757" lon="2.52932">
        <ele>139.4</ele>
        <time>2012-12-27T09:59:17.000Z</time>
      </trkpt>
      <trkpt lat="48.39758" lon="2.52928">
        <ele>139.8</ele>
        <time>2012-12-27T09:59:18.000Z</time>
      </trkpt>
      <trkpt lat="48.39758" lon="2.52924">
        <ele>140.2</ele>
        <time>2012-12-27T09:59:19.000Z</time>
      </trkpt>
      <trkpt lat="48.39757" lon="2.5292">
        <ele>140.2</ele>
        <time>2012-12-27T09:59:20.000Z</time>
      </trkpt>
      <trkpt lat="48.39758" lon="2.52907">
        <ele>139.8</ele>
        <time>2012-12-27T09:59:24.000Z</time>
      </trkpt>
      <trkpt lat="48.3976" lon="2.52905">
        <ele>139.4</ele>
        <time>2012-12-27T09:59:25.000Z</time>
      </trkpt>
      <trkpt lat="48.39762" lon="2.52904">
        <ele>139</ele>
        <time>2012-12-27T09:59:26.000Z</time>
      </trkpt>
      <trkpt lat="48.39763" lon="2.52903">
        <ele>138.6</ele>
        <time>2012-12-27T09:59:27.000Z</time>
      </trkpt>
      <trkpt lat="48.39764" lon="2.52902">
        <ele>138.2</ele>
        <time>2012-12-27T09:59:28.000Z</time>
      </trkpt>
      <trkpt lat="48.3977" lon="2.52897">
        <ele>138.2</ele>
        <time>2012-12-27T09:59:32.000Z</time>
      </trkpt>
      <trkpt lat="48.39774" lon="2.52886">
        <ele>138.2</ele>
        <time>2012-12-27T09:59:35.000Z</time>
      </trkpt>
      <trkpt lat="48.39773" lon="2.52865">
        <ele>138.2</ele>
        <time>2012-12-27T09:59:45.000Z</time>
      </trkpt>
      <trkpt lat="48.39773" lon="2.52864">
        <ele>138.2</ele>
        <time>2012-12-27T09:59:48.000Z</time>
      </trkpt>
      <trkpt lat="48.39777" lon="2.52854">
        <ele>138.2</ele>
        <time>2012-12-27T09:59:57.000Z</time>
      </trkpt>
      <trkpt lat="48.39781" lon="2.52849">
        <ele>138.2</ele>
        <time>2012-12-27T10:00:01.000Z</time>
      </trkpt>
      <trkpt lat="48.39781" lon="2.52848">
        <ele>138.2</ele>
        <time>2012-12-27T10:00:02.000Z</time>
      </trkpt>
      <trkpt lat="48.39782" lon="2.52847">
        <ele>138.2</ele>
        <time>2012-12-27T10:00:03.000Z</time>
      </trkpt>
      <trkpt lat="48.39788" lon="2.52844">
        <ele>138.2</ele>
        <time>2012-12-27T10:00:07.000Z</time>
      </trkpt>
      <trkpt lat="48.39791" lon="2.52844">
        <ele>137.2</ele>
        <time>2012-12-27T10:00:10.000Z</time>
      </trkpt>
      <trkpt lat="48.39792" lon="2.52843">
        <ele>136.2</ele>
        <time>2012-12-27T10:00:11.000Z</time>
      </trkpt>
      <trkpt lat="48.39793" lon="2.52841">
        <ele>135.8</ele>
        <time>2012-12-27T10:00:12.000Z</time>
      </trkpt>
      <trkpt lat="48.39794" lon="2.52841">
        <ele>135.8</ele>
        <time>2012-12-27T10:00:13.000Z</time>
      </trkpt>
      <trkpt lat="48.39797" lon="2.52841">
        <ele>135.8</ele>
        <time>2012-12-27T10:00:15.000Z</time>
      </trkpt>
      <trkpt lat="48.39801" lon="2.52841">
        <ele>135.8</ele>
        <time>2012-12-27T10:00:18.000Z</time>
      </trkpt>
      <trkpt lat="48.39808" lon="2.52836">
        <ele>135.8</ele>
        <time>2012-12-27T10:00:22.000Z</time>
      </trkpt>
      <trkpt lat="48.39812" lon="2.52834">
        <ele>135.8</ele>
        <time>2012-12-27T10:00:24.000Z</time>
      </trkpt>
      <trkpt lat="48.39815" lon="2.52836">
        <ele>135.8</ele>
        <time>2012-12-27T10:00:26.000Z</time>
      </trkpt>
      <trkpt lat="48.39818" lon="2.52841">
        <ele>136.6</ele>
        <time>2012-12-27T10:00:28.000Z</time>
      </trkpt>
      <trkpt lat="48.39821" lon="2.52845">
        <ele>137.4</ele>
        <time>2012-12-27T10:00:30.000Z</time>
      </trkpt>
      <trkpt lat="48.39823" lon="2.52846">
        <ele>137.8</ele>
        <time>2012-12-27T10:00:31.000Z</time>
      </trkpt>
      <trkpt lat="48.39829" lon="2.52847">
        <ele>137.8</ele>
        <time>2012-12-27T10:00:34.000Z</time>
      </trkpt>
      <trkpt lat="48.39833" lon="2.52845">
        <ele>137.8</ele>
        <time>2012-12-27T10:00:35.000Z</time>
      </trkpt>
      <trkpt lat="48.39834" lon="2.52843">
        <ele>137.8</ele>
        <time>2012-12-27T10:00:37.000Z</time>
      </trkpt>
      <trkpt lat="48.39835" lon="2.52835">
        <ele>137.8</ele>
        <time>2012-12-27T10:00:40.000Z</time>
      </trkpt>
      <trkpt lat="48.3984" lon="2.52818">
        <ele>137.8</ele>
        <time>2012-12-27T10:00:49.000Z</time>
      </trkpt>
      <trkpt lat="48.39839" lon="2.52811">
        <ele>137.8</ele>
        <time>2012-12-27T10:00:53.000Z</time>
      </trkpt>
      <trkpt lat="48.39839" lon="2.5281">
        <ele>137.8</ele>
        <time>2012-12-27T10:00:54.000Z</time>
      </trkpt>
      <trkpt lat="48.39839" lon="2.52811">
        <ele>137.8</ele>
        <time>2012-12-27T10:00:55.000Z</time>
      </trkpt>
      <trkpt lat="48.39834" lon="2.52805">
        <ele>137.8</ele>
        <time>2012-12-27T10:07:43.000Z</time>
      </trkpt>
      <trkpt lat="48.39833" lon="2.52803">
        <ele>137.8</ele>
        <time>2012-12-27T10:07:44.000Z</time>
      </trkpt>
      <trkpt lat="48.39833" lon="2.528">
        <ele>137.8</ele>
        <time>2012-12-27T10:07:45.000Z</time>
      </trkpt>
      <trkpt lat="48.3983" lon="2.52798">
        <ele>137.8</ele>
        <time>2012-12-27T10:07:48.000Z</time>
      </trkpt>
      <trkpt lat="48.3983" lon="2.52798">
        <ele>137.8</ele>
        <time>2012-12-27T10:07:50.000Z</time>
      </trkpt>
      <trkpt lat="48.3983" lon="2.52791">
        <ele>137.8</ele>
        <time>2012-12-27T10:07:55.000Z</time>
      </trkpt>
      <trkpt lat="48.39829" lon="2.52787">
        <ele>137.8</ele>
        <time>2012-12-27T10:07:56.000Z</time>
      </trkpt>
      <trkpt lat="48.39827" lon="2.52782">
        <ele>137.8</ele>
        <time>2012-12-27T10:07:58.000Z</time>
      </trkpt>
      <trkpt lat="48.39817" lon="2.52771">
        <ele>137.8</ele>
        <time>2012-12-27T10:08:05.000Z</time>
      </trkpt>
      <trkpt lat="48.39816" lon="2.52768">
        <ele>137.8</ele>
        <time>2012-12-27T10:08:06.000Z</time>
      </trkpt>
      <trkpt lat="48.39813" lon="2.52752">
        <ele>137.8</ele>
        <time>2012-12-27T10:08:12.000Z</time>
      </trkpt>
      <trkpt lat="48.39811" lon="2.52748">
        <ele>137.8</ele>
        <time>2012-12-27T10:08:14.000Z</time>
      </trkpt>
      <trkpt lat="48.39808" lon="2.52739">
        <ele>137.8</ele>
        <time>2012-12-27T10:08:18.000Z</time>
      </trkpt>
      <trkpt lat="48.39802" lon="2.52735">
        <ele>137.8</ele>
        <time>2012-12-27T10:08:22.000Z</time>
      </trkpt>
      <trkpt lat="48.39797" lon="2.52738">
        <ele>137.8</ele>
        <time>2012-12-27T10:08:26.000Z</time>
      </trkpt>
      <trkpt lat="48.39794" lon="2.52739">
        <ele>137.8</ele>
        <time>2012-12-27T10:08:28.000Z</time>
      </trkpt>
      <trkpt lat="48.39786" lon="2.52739">
        <ele>137.8</ele>
        <time>2012-12-27T10:08:32.000Z</time>
      </trkpt>
      <trkpt lat="48.39777" lon="2.52731">
        <ele>137.8</ele>
        <time>2012-12-27T10:08:37.000Z</time>
      </trkpt>
      <trkpt lat="48.39775" lon="2.52729">
        <ele>137.8</ele>
        <time>2012-12-27T10:08:38.000Z</time>
      </trkpt>
      <trkpt lat="48.39772" lon="2.52721">
        <ele>137.8</ele>
        <time>2012-12-27T10:08:41.000Z</time>
      </trkpt>
      <trkpt lat="48.39771" lon="2.52714">
        <ele>137.8</ele>
        <time>2012-12-27T10:08:43.000Z</time>
      </trkpt>
      <trkpt lat="48.39772" lon="2.52702">
        <ele>137.8</ele>
        <time>2012-12-27T10:08:46.000Z</time>
      </trkpt>
      <trkpt lat="48.39776" lon="2.52689">
        <ele>137.8</ele>
        <time>2012-12-27T10:08:50.000Z</time>
      </trkpt>
      <trkpt lat="48.39782" lon="2.52677">
        <ele>137.8</ele>
        <time>2012-12-27T10:08:55.000Z</time>
      </trkpt>
      <trkpt lat="48.39785" lon="2.52668">
        <ele>137.8</ele>
        <time>2012-12-27T10:08:59.000Z</time>
      </trkpt>
      <trkpt lat="48.39786" lon="2.52665">
        <ele>137.8</ele>
        <time>2012-12-27T10:09:00.000Z</time>
      </trkpt>
      <trkpt lat="48.39785" lon="2.52649">
        <ele>137.8</ele>
        <time>2012-12-27T10:09:05.000Z</time>
      </trkpt>
      <trkpt lat="48.39786" lon="2.52641">
        <ele>137.8</ele>
        <time>2012-12-27T10:09:08.000Z</time>
      </trkpt>
      <trkpt lat="48.39788" lon="2.52638">
        <ele>137.8</ele>
        <time>2012-12-27T10:09:09.000Z</time>
      </trkpt>
      <trkpt lat="48.39793" lon="2.52631">
        <ele>137.8</ele>
        <time>2012-12-27T10:09:13.000Z</time>
      </trkpt>
      <trkpt lat="48.39795" lon="2.5263">
        <ele>137.8</ele>
        <time>2012-12-27T10:09:17.000Z</time>
      </trkpt>
      <trkpt lat="48.39795" lon="2.52629">
        <ele>137.8</ele>
        <time>2012-12-27T10:09:18.000Z</time>
      </trkpt>
      <trkpt lat="48.39797" lon="2.52627">
        <ele>137.8</ele>
        <time>2012-12-27T10:09:19.000Z</time>
      </trkpt>
      <trkpt lat="48.398" lon="2.52617">
        <ele>137.8</ele>
        <time>2012-12-27T10:09:23.000Z</time>
      </trkpt>
      <trkpt lat="48.398" lon="2.52612">
        <ele>137.8</ele>
        <time>2012-12-27T10:09:25.000Z</time>
      </trkpt>
      <trkpt lat="48.39803" lon="2.52603">
        <ele>137.8</ele>
        <time>2012-12-27T10:09:28.000Z</time>
      </trkpt>
      <trkpt lat="48.39811" lon="2.52586">
        <ele>138.2</ele>
        <time>2012-12-27T10:09:36.000Z</time>
      </trkpt>
      <trkpt lat="48.39811" lon="2.52583">
        <ele>138.6</ele>
        <time>2012-12-27T10:09:37.000Z</time>
      </trkpt>
      <trkpt lat="48.39813" lon="2.52576">
        <ele>139.8</ele>
        <time>2012-12-27T10:09:39.000Z</time>
      </trkpt>
      <trkpt lat="48.39814" lon="2.52572">
        <ele>139.8</ele>
        <time>2012-12-27T10:09:40.000Z</time>
      </trkpt>
      <trkpt lat="48.39815" lon="2.52569">
        <ele>139.8</ele>
        <time>2012-12-27T10:09:41.000Z</time>
      </trkpt>
      <trkpt lat="48.39817" lon="2.5256">
        <ele>139.8</ele>
        <time>2012-12-27T10:09:44.000Z</time>
      </trkpt>
      <trkpt lat="48.39822" lon="2.52551">
        <ele>139.8</ele>
        <time>2012-12-27T10:09:48.000Z</time>
      </trkpt>
      <trkpt lat="48.39825" lon="2.52532">
        <ele>139.8</ele>
        <time>2012-12-27T10:09:53.000Z</time>
      </trkpt>
      <trkpt lat="48.3983" lon="2.52515">
        <ele>139.8</ele>
        <time>2012-12-27T10:09:57.000Z</time>
      </trkpt>
      <trkpt lat="48.39831" lon="2.52502">
        <ele>139.8</ele>
        <time>2012-12-27T10:10:01.000Z</time>
      </trkpt>
      <trkpt lat="48.39827" lon="2.525">
        <ele>139.8</ele>
        <time>2012-12-27T10:10:04.000Z</time>
      </trkpt>
      <trkpt lat="48.39824" lon="2.52494">
        <ele>139.8</ele>
        <time>2012-12-27T10:10:08.000Z</time>
      </trkpt>
      <trkpt lat="48.39824" lon="2.52487">
        <ele>139.8</ele>
        <time>2012-12-27T10:10:10.000Z</time>
      </trkpt>
      <trkpt lat="48.39826" lon="2.5248">
        <ele>139.8</ele>
        <time>2012-12-27T10:10:13.000Z</time>
      </trkpt>
      <trkpt lat="48.3983" lon="2.52473">
        <ele>139.8</ele>
        <time>2012-12-27T10:10:16.000Z</time>
      </trkpt>
      <trkpt lat="48.39834" lon="2.5247">
        <ele>139.8</ele>
        <time>2012-12-27T10:10:18.000Z</time>
      </trkpt>
      <trkpt lat="48.39836" lon="2.52468">
        <ele>139.8</ele>
        <time>2012-12-27T10:10:19.000Z</time>
      </trkpt>
      <trkpt lat="48.3984" lon="2.52458">
        <ele>139.8</ele>
        <time>2012-12-27T10:10:22.000Z</time>
      </trkpt>
      <trkpt lat="48.39842" lon="2.52439">
        <ele>139.8</ele>
        <time>2012-12-27T10:10:29.000Z</time>
      </trkpt>
      <trkpt lat="48.39842" lon="2.52438">
        <ele>139.8</ele>
        <time>2012-12-27T10:10:30.000Z</time>
      </trkpt>
      <trkpt lat="48.39844" lon="2.52434">
        <ele>139.8</ele>
        <time>2012-12-27T10:10:32.000Z</time>
      </trkpt>
      <trkpt lat="48.3985" lon="2.52426">
        <ele>139.8</ele>
        <time>2012-12-27T10:10:36.000Z</time>
      </trkpt>
      <trkpt lat="48.39852" lon="2.5242">
        <ele>139.8</ele>
        <time>2012-12-27T10:10:38.000Z</time>
      </trkpt>
      <trkpt lat="48.39852" lon="2.52405">
        <ele>139.8</ele>
        <time>2012-12-27T10:10:41.000Z</time>
      </trkpt>
      <trkpt lat="48.39852" lon="2.52405">
        <ele>139.8</ele>
        <time>2012-12-27T10:10:43.000Z</time>
      </trkpt>
      <trkpt lat="48.39852" lon="2.52405">
        <ele>139.8</ele>
        <time>2012-12-27T10:10:45.000Z</time>
      </trkpt>
      <trkpt lat="48.39853" lon="2.52411">
        <ele>139.8</ele>
        <time>2012-12-27T10:10:49.000Z</time>
      </trkpt>
      <trkpt lat="48.39858" lon="2.52415">
        <ele>139.8</ele>
        <time>2012-12-27T10:10:53.000Z</time>
      </trkpt>
      <trkpt lat="48.39859" lon="2.52414">
        <ele>139.8</ele>
        <time>2012-12-27T10:10:54.000Z</time>
      </trkpt>
      <trkpt lat="48.39861" lon="2.52413">
        <ele>139.8</ele>
        <time>2012-12-27T10:10:57.000Z</time>
      </trkpt>
      <trkpt lat="48.39858" lon="2.52415">
        <ele>139.8</ele>
        <time>2012-12-27T10:11:13.000Z</time>
      </trkpt>
      <trkpt lat="48.39857" lon="2.52414">
        <ele>139.8</ele>
        <time>2012-12-27T10:11:17.000Z</time>
      </trkpt>
      <trkpt lat="48.39857" lon="2.52414">
        <ele>139.8</ele>
        <time>2012-12-27T10:11:19.000Z</time>
      </trkpt>
      <trkpt lat="48.39856" lon="2.52407">
        <ele>139.8</ele>
        <time>2012-12-27T10:11:32.000Z</time>
      </trkpt>
      <trkpt lat="48.39854" lon="2.52404">
        <ele>139.8</ele>
        <time>2012-12-27T10:11:34.000Z</time>
      </trkpt>
      <trkpt lat="48.39854" lon="2.52403">
        <ele>139.8</ele>
        <time>2012-12-27T10:11:38.000Z</time>
      </trkpt>
      <trkpt lat="48.39854" lon="2.52402">
        <ele>139.8</ele>
        <time>2012-12-27T10:11:55.000Z</time>
      </trkpt>
      <trkpt lat="48.39853" lon="2.52399">
        <ele>139.8</ele>
        <time>2012-12-27T10:11:58.000Z</time>
      </trkpt>
      <trkpt lat="48.39853" lon="2.52398">
        <ele>139.8</ele>
        <time>2012-12-27T10:12:02.000Z</time>
      </trkpt>
      <trkpt lat="48.39853" lon="2.52397">
        <ele>139.8</ele>
        <time>2012-12-27T10:12:03.000Z</time>
      </trkpt>
      <trkpt lat="48.39853" lon="2.52392">
        <ele>139.8</ele>
        <time>2012-12-27T10:12:07.000Z</time>
      </trkpt>
      <trkpt lat="48.39852" lon="2.5239">
        <ele>139.8</ele>
        <time>2012-12-27T10:12:08.000Z</time>
      </trkpt>
      <trkpt lat="48.39851" lon="2.52386">
        <ele>139.8</ele>
        <time>2012-12-27T10:12:10.000Z</time>
      </trkpt>
      <trkpt lat="48.3985" lon="2.52361">
        <ele>139.8</ele>
        <time>2012-12-27T10:12:18.000Z</time>
      </trkpt>
      <trkpt lat="48.39855" lon="2.52352">
        <ele>139.8</ele>
        <time>2012-12-27T10:12:22.000Z</time>
      </trkpt>
      <trkpt lat="48.39857" lon="2.52352">
        <ele>139.8</ele>
        <time>2012-12-27T10:12:23.000Z</time>
      </trkpt>
      <trkpt lat="48.39861" lon="2.52355">
        <ele>139.8</ele>
        <time>2012-12-27T10:12:25.000Z</time>
      </trkpt>
      <trkpt lat="48.39865" lon="2.52359">
        <ele>139.8</ele>
        <time>2012-12-27T10:12:27.000Z</time>
      </trkpt>
      <trkpt lat="48.39873" lon="2.52358">
        <ele>139.8</ele>
        <time>2012-12-27T10:12:30.000Z</time>
      </trkpt>
      <trkpt lat="48.3989" lon="2.52349">
        <ele>139.8</ele>
        <time>2012-12-27T10:12:36.000Z</time>
      </trkpt>
      <trkpt lat="48.39892" lon="2.52348">
        <ele>139.8</ele>
        <time>2012-12-27T10:12:37.000Z</time>
      </trkpt>
      <trkpt lat="48.39894" lon="2.52344">
        <ele>139.8</ele>
        <time>2012-12-27T10:12:39.000Z</time>
      </trkpt>
      <trkpt lat="48.39896" lon="2.52342">
        <ele>139.8</ele>
        <time>2012-12-27T10:12:40.000Z</time>
      </trkpt>
      <trkpt lat="48.39897" lon="2.5234">
        <ele>139.8</ele>
        <time>2012-12-27T10:12:41.000Z</time>
      </trkpt>
      <trkpt lat="48.39896" lon="2.52332">
        <ele>139.8</ele>
        <time>2012-12-27T10:12:44.000Z</time>
      </trkpt>
      <trkpt lat="48.39899" lon="2.52322">
        <ele>139.8</ele>
        <time>2012-12-27T10:12:48.000Z</time>
      </trkpt>
      <trkpt lat="48.39909" lon="2.52324">
        <ele>139.8</ele>
        <time>2012-12-27T10:12:52.000Z</time>
      </trkpt>
      <trkpt lat="48.39917" lon="2.52327">
        <ele>139.8</ele>
        <time>2012-12-27T10:12:56.000Z</time>
      </trkpt>
      <trkpt lat="48.39918" lon="2.52328">
        <ele>139.8</ele>
        <time>2012-12-27T10:12:57.000Z</time>
      </trkpt>
      <trkpt lat="48.3992" lon="2.52329">
        <ele>139.8</ele>
        <time>2012-12-27T10:12:58.000Z</time>
      </trkpt>
      <trkpt lat="48.3992" lon="2.52328">
        <ele>139.8</ele>
        <time>2012-12-27T10:12:59.000Z</time>
      </trkpt>
      <trkpt lat="48.39922" lon="2.52328">
        <ele>139.8</ele>
        <time>2012-12-27T10:13:01.000Z</time>
      </trkpt>
      <trkpt lat="48.39923" lon="2.52328">
        <ele>139.8</ele>
        <time>2012-12-27T10:13:03.000Z</time>
      </trkpt>
      <trkpt lat="48.39923" lon="2.52328">
        <ele>139.8</ele>
        <time>2012-12-27T10:13:04.000Z</time>
      </trkpt>
      <trkpt lat="48.39929" lon="2.52331">
        <ele>137.8</ele>
        <time>2012-12-27T10:13:14.000Z</time>
      </trkpt>
      <trkpt lat="48.39931" lon="2.52333">
        <ele>136.4</ele>
        <time>2012-12-27T10:13:17.000Z</time>
      </trkpt>
      <trkpt lat="48.39937" lon="2.5233">
        <ele>135.2</ele>
        <time>2012-12-27T10:13:25.000Z</time>
      </trkpt>
      <trkpt lat="48.39939" lon="2.5233">
        <ele>134.8</ele>
        <time>2012-12-27T10:13:26.000Z</time>
      </trkpt>
      <trkpt lat="48.39942" lon="2.52328">
        <ele>134</ele>
        <time>2012-12-27T10:13:28.000Z</time>
      </trkpt>
      <trkpt lat="48.39943" lon="2.52329">
        <ele>133.6</ele>
        <time>2012-12-27T10:13:29.000Z</time>
      </trkpt>
      <trkpt lat="48.39944" lon="2.52329">
        <ele>133.6</ele>
        <time>2012-12-27T10:13:30.000Z</time>
      </trkpt>
      <trkpt lat="48.39947" lon="2.52329">
        <ele>132.6</ele>
        <time>2012-12-27T10:13:32.000Z</time>
      </trkpt>
      <trkpt lat="48.3995" lon="2.52327">
        <ele>131.8</ele>
        <time>2012-12-27T10:13:34.000Z</time>
      </trkpt>
      <trkpt lat="48.39951" lon="2.52326">
        <ele>131.2</ele>
        <time>2012-12-27T10:13:35.000Z</time>
      </trkpt>
      <trkpt lat="48.39952" lon="2.52324">
        <ele>130.8</ele>
        <time>2012-12-27T10:13:36.000Z</time>
      </trkpt>
      <trkpt lat="48.39952" lon="2.52323">
        <ele>130.4</ele>
        <time>2012-12-27T10:13:37.000Z</time>
      </trkpt>
      <trkpt lat="48.39954" lon="2.52321">
        <ele>130</ele>
        <time>2012-12-27T10:13:38.000Z</time>
      </trkpt>
      <trkpt lat="48.39957" lon="2.52319">
        <ele>129.2</ele>
        <time>2012-12-27T10:13:40.000Z</time>
      </trkpt>
      <trkpt lat="48.39963" lon="2.52317">
        <ele>127.2</ele>
        <time>2012-12-27T10:13:49.000Z</time>
      </trkpt>
      <trkpt lat="48.39965" lon="2.52314">
        <ele>127.6</ele>
        <time>2012-12-27T10:13:52.000Z</time>
      </trkpt>
      <trkpt lat="48.39965" lon="2.52309">
        <ele>128.8</ele>
        <time>2012-12-27T10:13:55.000Z</time>
      </trkpt>
      <trkpt lat="48.39966" lon="2.52304">
        <ele>129.8</ele>
        <time>2012-12-27T10:14:00.000Z</time>
      </trkpt>
      <trkpt lat="48.39967" lon="2.52299">
        <ele>131.4</ele>
        <time>2012-12-27T10:14:04.000Z</time>
      </trkpt>
      <trkpt lat="48.39968" lon="2.52298">
        <ele>131.4</ele>
        <time>2012-12-27T10:14:05.000Z</time>
      </trkpt>
      <trkpt lat="48.39968" lon="2.52296">
        <ele>131.4</ele>
        <time>2012-12-27T10:14:07.000Z</time>
      </trkpt>
      <trkpt lat="48.39968" lon="2.52295">
        <ele>131.4</ele>
        <time>2012-12-27T10:14:08.000Z</time>
      </trkpt>
      <trkpt lat="48.3997" lon="2.52289">
        <ele>132.2</ele>
        <time>2012-12-27T10:14:13.000Z</time>
      </trkpt>
      <trkpt lat="48.3997" lon="2.52289">
        <ele>132.8</ele>
        <time>2012-12-27T10:14:14.000Z</time>
      </trkpt>
      <trkpt lat="48.3997" lon="2.52289">
        <ele>133.2</ele>
        <time>2012-12-27T10:14:15.000Z</time>
      </trkpt>
      <trkpt lat="48.3997" lon="2.52288">
        <ele>133.6</ele>
        <time>2012-12-27T10:14:16.000Z</time>
      </trkpt>
      <trkpt lat="48.39972" lon="2.52283">
        <ele>133.6</ele>
        <time>2012-12-27T10:14:20.000Z</time>
      </trkpt>
      <trkpt lat="48.39972" lon="2.52282">
        <ele>133.6</ele>
        <time>2012-12-27T10:14:22.000Z</time>
      </trkpt>
      <trkpt lat="48.39976" lon="2.52274">
        <ele>135.8</ele>
        <time>2012-12-27T10:14:41.000Z</time>
      </trkpt>
      <trkpt lat="48.39979" lon="2.52263">
        <ele>135.8</ele>
        <time>2012-12-27T10:14:47.000Z</time>
      </trkpt>
      <trkpt lat="48.39981" lon="2.52254">
        <ele>135.8</ele>
        <time>2012-12-27T10:14:49.000Z</time>
      </trkpt>
      <trkpt lat="48.39982" lon="2.52237">
        <ele>135.8</ele>
        <time>2012-12-27T10:14:55.000Z</time>
      </trkpt>
      <trkpt lat="48.39981" lon="2.52231">
        <ele>136.8</ele>
        <time>2012-12-27T10:14:58.000Z</time>
      </trkpt>
      <trkpt lat="48.3998" lon="2.5223">
        <ele>137.2</ele>
        <time>2012-12-27T10:14:59.000Z</time>
      </trkpt>
      <trkpt lat="48.39979" lon="2.52229">
        <ele>137.6</ele>
        <time>2012-12-27T10:15:00.000Z</time>
      </trkpt>
      <trkpt lat="48.39973" lon="2.52228">
        <ele>138</ele>
        <time>2012-12-27T10:15:06.000Z</time>
      </trkpt>
      <trkpt lat="48.39968" lon="2.52225">
        <ele>138</ele>
        <time>2012-12-27T10:15:10.000Z</time>
      </trkpt>
      <trkpt lat="48.39964" lon="2.52222">
        <ele>138</ele>
        <time>2012-12-27T10:15:13.000Z</time>
      </trkpt>
      <trkpt lat="48.39963" lon="2.52223">
        <ele>138</ele>
        <time>2012-12-27T10:15:14.000Z</time>
      </trkpt>
      <trkpt lat="48.39962" lon="2.52224">
        <ele>138</ele>
        <time>2012-12-27T10:15:15.000Z</time>
      </trkpt>
      <trkpt lat="48.39962" lon="2.52225">
        <ele>138.6</ele>
        <time>2012-12-27T10:15:16.000Z</time>
      </trkpt>
      <trkpt lat="48.39962" lon="2.52225">
        <ele>139.4</ele>
        <time>2012-12-27T10:15:18.000Z</time>
      </trkpt>
      <trkpt lat="48.39962" lon="2.52225">
        <ele>139.8</ele>
        <time>2012-12-27T10:15:19.000Z</time>
      </trkpt>
      <trkpt lat="48.39962" lon="2.52225">
        <ele>140.2</ele>
        <time>2012-12-27T10:15:20.000Z</time>
      </trkpt>
      <trkpt lat="48.39959" lon="2.52231">
        <ele>140.2</ele>
        <time>2012-12-27T10:15:27.000Z</time>
      </trkpt>
      <trkpt lat="48.39955" lon="2.52233">
        <ele>140.2</ele>
        <time>2012-12-27T10:15:33.000Z</time>
      </trkpt>
      <trkpt lat="48.39945" lon="2.52246">
        <ele>140.2</ele>
        <time>2012-12-27T10:15:44.000Z</time>
      </trkpt>
      <trkpt lat="48.39944" lon="2.52248">
        <ele>140.2</ele>
        <time>2012-12-27T10:15:45.000Z</time>
      </trkpt>
      <trkpt lat="48.39944" lon="2.52252">
        <ele>140.2</ele>
        <time>2012-12-27T10:15:47.000Z</time>
      </trkpt>
      <trkpt lat="48.39935" lon="2.52264">
        <ele>140.2</ele>
        <time>2012-12-27T10:15:51.000Z</time>
      </trkpt>
      <trkpt lat="48.39932" lon="2.52267">
        <ele>140.2</ele>
        <time>2012-12-27T10:15:52.000Z</time>
      </trkpt>
      <trkpt lat="48.39918" lon="2.52269">
        <ele>140.2</ele>
        <time>2012-12-27T10:15:56.000Z</time>
      </trkpt>
      <trkpt lat="48.39892" lon="2.52268">
        <ele>140.2</ele>
        <time>2012-12-27T10:16:08.000Z</time>
      </trkpt>
      <trkpt lat="48.3989" lon="2.52269">
        <ele>140.2</ele>
        <time>2012-12-27T10:16:10.000Z</time>
      </trkpt>
      <trkpt lat="48.39887" lon="2.52267">
        <ele>140.2</ele>
        <time>2012-12-27T10:16:13.000Z</time>
      </trkpt>
      <trkpt lat="48.39878" lon="2.52253">
        <ele>140.2</ele>
        <time>2012-12-27T10:16:22.000Z</time>
      </trkpt>
      <trkpt lat="48.39877" lon="2.52252">
        <ele>140.2</ele>
        <time>2012-12-27T10:16:23.000Z</time>
      </trkpt>
      <trkpt lat="48.39875" lon="2.52252">
        <ele>140.2</ele>
        <time>2012-12-27T10:16:24.000Z</time>
      </trkpt>
      <trkpt lat="48.39857" lon="2.52257">
        <ele>140.2</ele>
        <time>2012-12-27T10:16:33.000Z</time>
      </trkpt>
      <trkpt lat="48.39845" lon="2.52259">
        <ele>140.2</ele>
        <time>2012-12-27T10:16:39.000Z</time>
      </trkpt>
      <trkpt lat="48.39844" lon="2.52258">
        <ele>140.2</ele>
        <time>2012-12-27T10:16:40.000Z</time>
      </trkpt>
      <trkpt lat="48.39842" lon="2.52259">
        <ele>140.2</ele>
        <time>2012-12-27T10:16:41.000Z</time>
      </trkpt>
      <trkpt lat="48.39837" lon="2.52256">
        <ele>140.2</ele>
        <time>2012-12-27T10:16:44.000Z</time>
      </trkpt>
      <trkpt lat="48.39835" lon="2.5225">
        <ele>140.2</ele>
        <time>2012-12-27T10:16:47.000Z</time>
      </trkpt>
      <trkpt lat="48.39835" lon="2.52249">
        <ele>140.2</ele>
        <time>2012-12-27T10:16:48.000Z</time>
      </trkpt>
      <trkpt lat="48.39836" lon="2.52248">
        <ele>140.2</ele>
        <time>2012-12-27T10:16:49.000Z</time>
      </trkpt>
      <trkpt lat="48.39836" lon="2.52233">
        <ele>140.2</ele>
        <time>2012-12-27T10:16:53.000Z</time>
      </trkpt>
      <trkpt lat="48.39839" lon="2.52213">
        <ele>139.2</ele>
        <time>2012-12-27T10:16:58.000Z</time>
      </trkpt>
      <trkpt lat="48.3984" lon="2.5221">
        <ele>138.8</ele>
        <time>2012-12-27T10:16:59.000Z</time>
      </trkpt>
      <trkpt lat="48.39841" lon="2.52207">
        <ele>138.2</ele>
        <time>2012-12-27T10:17:00.000Z</time>
      </trkpt>
      <trkpt lat="48.39842" lon="2.52205">
        <ele>137.8</ele>
        <time>2012-12-27T10:17:01.000Z</time>
      </trkpt>
      <trkpt lat="48.39842" lon="2.52204">
        <ele>136.8</ele>
        <time>2012-12-27T10:17:02.000Z</time>
      </trkpt>
      <trkpt lat="48.39845" lon="2.52204">
        <ele>136.2</ele>
        <time>2012-12-27T10:17:03.000Z</time>
      </trkpt>
      <trkpt lat="48.39845" lon="2.52203">
        <ele>135.8</ele>
        <time>2012-12-27T10:17:04.000Z</time>
      </trkpt>
      <trkpt lat="48.39848" lon="2.52204">
        <ele>135.2</ele>
        <time>2012-12-27T10:17:05.000Z</time>
      </trkpt>
      <trkpt lat="48.3985" lon="2.52203">
        <ele>134.6</ele>
        <time>2012-12-27T10:17:06.000Z</time>
      </trkpt>
      <trkpt lat="48.39852" lon="2.52201">
        <ele>134</ele>
        <time>2012-12-27T10:17:07.000Z</time>
      </trkpt>
      <trkpt lat="48.39855" lon="2.522">
        <ele>133.2</ele>
        <time>2012-12-27T10:17:08.000Z</time>
      </trkpt>
      <trkpt lat="48.39857" lon="2.52197">
        <ele>132.4</ele>
        <time>2012-12-27T10:17:09.000Z</time>
      </trkpt>
      <trkpt lat="48.3986" lon="2.52193">
        <ele>130</ele>
        <time>2012-12-27T10:17:12.000Z</time>
      </trkpt>
      <trkpt lat="48.39861" lon="2.52192">
        <ele>129.4</ele>
        <time>2012-12-27T10:17:13.000Z</time>
      </trkpt>
      <trkpt lat="48.39865" lon="2.52184">
        <ele>126.8</ele>
        <time>2012-12-27T10:17:17.000Z</time>
      </trkpt>
      <trkpt lat="48.39866" lon="2.52178">
        <ele>126</ele>
        <time>2012-12-27T10:17:19.000Z</time>
      </trkpt>
      <trkpt lat="48.39864" lon="2.52167">
        <ele>124.8</ele>
        <time>2012-12-27T10:17:25.000Z</time>
      </trkpt>
      <trkpt lat="48.39865" lon="2.52163">
        <ele>124.8</ele>
        <time>2012-12-27T10:17:27.000Z</time>
      </trkpt>
      <trkpt lat="48.39864" lon="2.52164">
        <ele>124.8</ele>
        <time>2012-12-27T10:17:29.000Z</time>
      </trkpt>
      <trkpt lat="48.39868" lon="2.52162">
        <ele>124.8</ele>
        <time>2012-12-27T10:17:57.000Z</time>
      </trkpt>
      <trkpt lat="48.3987" lon="2.5216">
        <ele>124.8</ele>
        <time>2012-12-27T10:17:59.000Z</time>
      </trkpt>
      <trkpt lat="48.3987" lon="2.52159">
        <ele>124.8</ele>
        <time>2012-12-27T10:18:00.000Z</time>
      </trkpt>
      <trkpt lat="48.3987" lon="2.52154">
        <ele>123.8</ele>
        <time>2012-12-27T10:18:02.000Z</time>
      </trkpt>
      <trkpt lat="48.3987" lon="2.5215">
        <ele>123</ele>
        <time>2012-12-27T10:18:04.000Z</time>
      </trkpt>
      <trkpt lat="48.3987" lon="2.52148">
        <ele>122.4</ele>
        <time>2012-12-27T10:18:05.000Z</time>
      </trkpt>
      <trkpt lat="48.39869" lon="2.52147">
        <ele>122</ele>
        <time>2012-12-27T10:18:06.000Z</time>
      </trkpt>
      <trkpt lat="48.39869" lon="2.52146">
        <ele>121.6</ele>
        <time>2012-12-27T10:18:07.000Z</time>
      </trkpt>
      <trkpt lat="48.3988" lon="2.52131">
        <ele>116.6</ele>
        <time>2012-12-27T10:18:35.000Z</time>
      </trkpt>
      <trkpt lat="48.39881" lon="2.52128">
        <ele>116.2</ele>
        <time>2012-12-27T10:18:36.000Z</time>
      </trkpt>
      <trkpt lat="48.39882" lon="2.52125">
        <ele>115.8</ele>
        <time>2012-12-27T10:18:37.000Z</time>
      </trkpt>
      <trkpt lat="48.39882" lon="2.52121">
        <ele>115.4</ele>
        <time>2012-12-27T10:18:38.000Z</time>
      </trkpt>
      <trkpt lat="48.39882" lon="2.52119">
        <ele>115</ele>
        <time>2012-12-27T10:18:39.000Z</time>
      </trkpt>
      <trkpt lat="48.39882" lon="2.52117">
        <ele>114.4</ele>
        <time>2012-12-27T10:18:40.000Z</time>
      </trkpt>
      <trkpt lat="48.39882" lon="2.52115">
        <ele>113.4</ele>
        <time>2012-12-27T10:18:41.000Z</time>
      </trkpt>
      <trkpt lat="48.39883" lon="2.52108">
        <ele>112.4</ele>
        <time>2012-12-27T10:18:43.000Z</time>
      </trkpt>
      <trkpt lat="48.39884" lon="2.52105">
        <ele>112</ele>
        <time>2012-12-27T10:18:44.000Z</time>
      </trkpt>
      <trkpt lat="48.39884" lon="2.52102">
        <ele>111.4</ele>
        <time>2012-12-27T10:18:45.000Z</time>
      </trkpt>
      <trkpt lat="48.39885" lon="2.52099">
        <ele>111</ele>
        <time>2012-12-27T10:18:46.000Z</time>
      </trkpt>
      <trkpt lat="48.39886" lon="2.52096">
        <ele>110.4</ele>
        <time>2012-12-27T10:18:47.000Z</time>
      </trkpt>
      <trkpt lat="48.39889" lon="2.52091">
        <ele>109</ele>
        <time>2012-12-27T10:18:49.000Z</time>
      </trkpt>
      <trkpt lat="48.39891" lon="2.52084">
        <ele>107.8</ele>
        <time>2012-12-27T10:18:51.000Z</time>
      </trkpt>
      <trkpt lat="48.39892" lon="2.52081">
        <ele>107.2</ele>
        <time>2012-12-27T10:18:52.000Z</time>
      </trkpt>
      <trkpt lat="48.39893" lon="2.5208">
        <ele>106.6</ele>
        <time>2012-12-27T10:18:53.000Z</time>
      </trkpt>
      <trkpt lat="48.39903" lon="2.52082">
        <ele>104.8</ele>
        <time>2012-12-27T10:18:56.000Z</time>
      </trkpt>
      <trkpt lat="48.39913" lon="2.52081">
        <ele>102.8</ele>
        <time>2012-12-27T10:18:59.000Z</time>
      </trkpt>
      <trkpt lat="48.39915" lon="2.52081">
        <ele>102.2</ele>
        <time>2012-12-27T10:19:00.000Z</time>
      </trkpt>
      <trkpt lat="48.3992" lon="2.52079">
        <ele>101.4</ele>
        <time>2012-12-27T10:19:01.000Z</time>
      </trkpt>
      <trkpt lat="48.39924" lon="2.52077">
        <ele>100.8</ele>
        <time>2012-12-27T10:19:02.000Z</time>
      </trkpt>
      <trkpt lat="48.39928" lon="2.52075">
        <ele>100.2</ele>
        <time>2012-12-27T10:19:03.000Z</time>
      </trkpt>
      <trkpt lat="48.39934" lon="2.52073">
        <ele>99.8</ele>
        <time>2012-12-27T10:19:04.000Z</time>
      </trkpt>
      <trkpt lat="48.39938" lon="2.52072">
        <ele>99.4</ele>
        <time>2012-12-27T10:19:05.000Z</time>
      </trkpt>
      <trkpt lat="48.39947" lon="2.52067">
        <ele>98.4</ele>
        <time>2012-12-27T10:19:07.000Z</time>
      </trkpt>
      <trkpt lat="48.3995" lon="2.52062">
        <ele>98</ele>
        <time>2012-12-27T10:19:08.000Z</time>
      </trkpt>
      <trkpt lat="48.39953" lon="2.52059">
        <ele>97.6</ele>
        <time>2012-12-27T10:19:09.000Z</time>
      </trkpt>
      <trkpt lat="48.39959" lon="2.52055">
        <ele>97.2</ele>
        <time>2012-12-27T10:19:10.000Z</time>
      </trkpt>
      <trkpt lat="48.39961" lon="2.52049">
        <ele>96.6</ele>
        <time>2012-12-27T10:19:11.000Z</time>
      </trkpt>
      <trkpt lat="48.39967" lon="2.52044">
        <ele>96.2</ele>
        <time>2012-12-27T10:19:12.000Z</time>
      </trkpt>
      <trkpt lat="48.39974" lon="2.52034">
        <ele>96.2</ele>
        <time>2012-12-27T10:19:13.000Z</time>
      </trkpt>
      <trkpt lat="48.39976" lon="2.52028">
        <ele>96.2</ele>
        <time>2012-12-27T10:19:14.000Z</time>
      </trkpt>
      <trkpt lat="48.3998" lon="2.52014">
        <ele>96.2</ele>
        <time>2012-12-27T10:19:18.000Z</time>
      </trkpt>
      <trkpt lat="48.39977" lon="2.52003">
        <ele>96.2</ele>
        <time>2012-12-27T10:19:23.000Z</time>
      </trkpt>
      <trkpt lat="48.39971" lon="2.51997">
        <ele>96.2</ele>
        <time>2012-12-27T10:19:27.000Z</time>
      </trkpt>
      <trkpt lat="48.39971" lon="2.51993">
        <ele>96.2</ele>
        <time>2012-12-27T10:19:29.000Z</time>
      </trkpt>
      <trkpt lat="48.39962" lon="2.51979">
        <ele>96.6</ele>
        <time>2012-12-27T10:19:36.000Z</time>
      </trkpt>
      <trkpt lat="48.39957" lon="2.51973">
        <ele>98</ele>
        <time>2012-12-27T10:19:39.000Z</time>
      </trkpt>
      <trkpt lat="48.39949" lon="2.51954">
        <ele>98.4</ele>
        <time>2012-12-27T10:19:46.000Z</time>
      </trkpt>
      <trkpt lat="48.39947" lon="2.51951">
        <ele>98.4</ele>
        <time>2012-12-27T10:19:47.000Z</time>
      </trkpt>
      <trkpt lat="48.39943" lon="2.5194">
        <ele>98.4</ele>
        <time>2012-12-27T10:19:51.000Z</time>
      </trkpt>
      <trkpt lat="48.39938" lon="2.51933">
        <ele>98.4</ele>
        <time>2012-12-27T10:19:56.000Z</time>
      </trkpt>
      <trkpt lat="48.39937" lon="2.5193">
        <ele>98.4</ele>
        <time>2012-12-27T10:19:57.000Z</time>
      </trkpt>
      <trkpt lat="48.39936" lon="2.51927">
        <ele>98.4</ele>
        <time>2012-12-27T10:20:00.000Z</time>
      </trkpt>
      <trkpt lat="48.39932" lon="2.51924">
        <ele>98.4</ele>
        <time>2012-12-27T10:20:05.000Z</time>
      </trkpt>
      <trkpt lat="48.39929" lon="2.51917">
        <ele>98.4</ele>
        <time>2012-12-27T10:20:09.000Z</time>
      </trkpt>
      <trkpt lat="48.39925" lon="2.5191">
        <ele>98.4</ele>
        <time>2012-12-27T10:20:14.000Z</time>
      </trkpt>
      <trkpt lat="48.39924" lon="2.51902">
        <ele>98</ele>
        <time>2012-12-27T10:20:17.000Z</time>
      </trkpt>
      <trkpt lat="48.39922" lon="2.519">
        <ele>97.6</ele>
        <time>2012-12-27T10:20:18.000Z</time>
      </trkpt>
      <trkpt lat="48.39921" lon="2.51895">
        <ele>97.2</ele>
        <time>2012-12-27T10:20:19.000Z</time>
      </trkpt>
      <trkpt lat="48.39918" lon="2.51891">
        <ele>96.2</ele>
        <time>2012-12-27T10:20:20.000Z</time>
      </trkpt>
      <trkpt lat="48.39915" lon="2.5189">
        <ele>95.6</ele>
        <time>2012-12-27T10:20:21.000Z</time>
      </trkpt>
      <trkpt lat="48.39912" lon="2.51889">
        <ele>95</ele>
        <time>2012-12-27T10:20:22.000Z</time>
      </trkpt>
      <trkpt lat="48.39909" lon="2.51887">
        <ele>94</ele>
        <time>2012-12-27T10:20:24.000Z</time>
      </trkpt>
      <trkpt lat="48.39903" lon="2.51882">
        <ele>94</ele>
        <time>2012-12-27T10:20:28.000Z</time>
      </trkpt>
      <trkpt lat="48.399" lon="2.51876">
        <ele>94</ele>
        <time>2012-12-27T10:20:30.000Z</time>
      </trkpt>
      <trkpt lat="48.39895" lon="2.51872">
        <ele>94</ele>
        <time>2012-12-27T10:20:32.000Z</time>
      </trkpt>
      <trkpt lat="48.3988" lon="2.51871">
        <ele>94</ele>
        <time>2012-12-27T10:20:38.000Z</time>
      </trkpt>
      <trkpt lat="48.39864" lon="2.51878">
        <ele>94</ele>
        <time>2012-12-27T10:20:44.000Z</time>
      </trkpt>
      <trkpt lat="48.39852" lon="2.51895">
        <ele>94</ele>
        <time>2012-12-27T10:20:50.000Z</time>
      </trkpt>
      <trkpt lat="48.39832" lon="2.51938">
        <ele>95.2</ele>
        <time>2012-12-27T10:21:04.000Z</time>
      </trkpt>
      <trkpt lat="48.39822" lon="2.51948">
        <ele>96</ele>
        <time>2012-12-27T10:21:09.000Z</time>
      </trkpt>
      <trkpt lat="48.39815" lon="2.51954">
        <ele>97.6</ele>
        <time>2012-12-27T10:21:13.000Z</time>
      </trkpt>
      <trkpt lat="48.39813" lon="2.51955">
        <ele>98</ele>
        <time>2012-12-27T10:21:14.000Z</time>
      </trkpt>
      <trkpt lat="48.39811" lon="2.51956">
        <ele>98.4</ele>
        <time>2012-12-27T10:21:15.000Z</time>
      </trkpt>
      <trkpt lat="48.39799" lon="2.51965">
        <ele>98.4</ele>
        <time>2012-12-27T10:21:20.000Z</time>
      </trkpt>
      <trkpt lat="48.39778" lon="2.51974">
        <ele>98.4</ele>
        <time>2012-12-27T10:21:27.000Z</time>
      </trkpt>
      <trkpt lat="48.3977" lon="2.51977">
        <ele>98.4</ele>
        <time>2012-12-27T10:21:31.000Z</time>
      </trkpt>
      <trkpt lat="48.39771" lon="2.51969">
        <ele>99</ele>
        <time>2012-12-27T10:21:34.000Z</time>
      </trkpt>
      <trkpt lat="48.39772" lon="2.51966">
        <ele>99.4</ele>
        <time>2012-12-27T10:21:35.000Z</time>
      </trkpt>
      <trkpt lat="48.39774" lon="2.51954">
        <ele>100.6</ele>
        <time>2012-12-27T10:21:38.000Z</time>
      </trkpt>
      <trkpt lat="48.39773" lon="2.5194">
        <ele>100.6</ele>
        <time>2012-12-27T10:21:43.000Z</time>
      </trkpt>
      <trkpt lat="48.39772" lon="2.51934">
        <ele>101</ele>
        <time>2012-12-27T10:21:45.000Z</time>
      </trkpt>
      <trkpt lat="48.3977" lon="2.51928">
        <ele>102</ele>
        <time>2012-12-27T10:21:47.000Z</time>
      </trkpt>
      <trkpt lat="48.39769" lon="2.51925">
        <ele>102.4</ele>
        <time>2012-12-27T10:21:48.000Z</time>
      </trkpt>
      <trkpt lat="48.39767" lon="2.51902">
        <ele>104.2</ele>
        <time>2012-12-27T10:21:57.000Z</time>
      </trkpt>
      <trkpt lat="48.39767" lon="2.51881">
        <ele>106.4</ele>
        <time>2012-12-27T10:22:04.000Z</time>
      </trkpt>
      <trkpt lat="48.39768" lon="2.51875">
        <ele>107.2</ele>
        <time>2012-12-27T10:22:06.000Z</time>
      </trkpt>
      <trkpt lat="48.39771" lon="2.51865">
        <ele>108.6</ele>
        <time>2012-12-27T10:22:10.000Z</time>
      </trkpt>
      <trkpt lat="48.39771" lon="2.51845">
        <ele>109.4</ele>
        <time>2012-12-27T10:22:17.000Z</time>
      </trkpt>
      <trkpt lat="48.3977" lon="2.51842">
        <ele>109.4</ele>
        <time>2012-12-27T10:22:18.000Z</time>
      </trkpt>
      <trkpt lat="48.39771" lon="2.51829">
        <ele>109.4</ele>
        <time>2012-12-27T10:22:22.000Z</time>
      </trkpt>
      <trkpt lat="48.3977" lon="2.51827">
        <ele>109.8</ele>
        <time>2012-12-27T10:22:23.000Z</time>
      </trkpt>
      <trkpt lat="48.39769" lon="2.51824">
        <ele>110.4</ele>
        <time>2012-12-27T10:22:24.000Z</time>
      </trkpt>
      <trkpt lat="48.39768" lon="2.51821">
        <ele>110.8</ele>
        <time>2012-12-27T10:22:25.000Z</time>
      </trkpt>
      <trkpt lat="48.39767" lon="2.51816">
        <ele>111.6</ele>
        <time>2012-12-27T10:22:27.000Z</time>
      </trkpt>
      <trkpt lat="48.39769" lon="2.51796">
        <ele>111.6</ele>
        <time>2012-12-27T10:22:30.000Z</time>
      </trkpt>
      <trkpt lat="48.39767" lon="2.51785">
        <ele>111.2</ele>
        <time>2012-12-27T10:22:33.000Z</time>
      </trkpt>
      <trkpt lat="48.39768" lon="2.51783">
        <ele>110.6</ele>
        <time>2012-12-27T10:22:34.000Z</time>
      </trkpt>
      <trkpt lat="48.39769" lon="2.5178">
        <ele>110.2</ele>
        <time>2012-12-27T10:22:35.000Z</time>
      </trkpt>
      <trkpt lat="48.39768" lon="2.51778">
        <ele>109.8</ele>
        <time>2012-12-27T10:22:36.000Z</time>
      </trkpt>
      <trkpt lat="48.39762" lon="2.51765">
        <ele>109.4</ele>
        <time>2012-12-27T10:22:39.000Z</time>
      </trkpt>
      <trkpt lat="48.39758" lon="2.51751">
        <ele>109</ele>
        <time>2012-12-27T10:22:41.000Z</time>
      </trkpt>
      <trkpt lat="48.39754" lon="2.51746">
        <ele>108.6</ele>
        <time>2012-12-27T10:22:42.000Z</time>
      </trkpt>
      <trkpt lat="48.39752" lon="2.51738">
        <ele>108.2</ele>
        <time>2012-12-27T10:22:43.000Z</time>
      </trkpt>
      <trkpt lat="48.3975" lon="2.5173">
        <ele>107.8</ele>
        <time>2012-12-27T10:22:44.000Z</time>
      </trkpt>
      <trkpt lat="48.39748" lon="2.51723">
        <ele>107.4</ele>
        <time>2012-12-27T10:22:45.000Z</time>
      </trkpt>
      <trkpt lat="48.39744" lon="2.51712">
        <ele>107.4</ele>
        <time>2012-12-27T10:22:47.000Z</time>
      </trkpt>
      <trkpt lat="48.39744" lon="2.51692">
        <ele>105.8</ele>
        <time>2012-12-27T10:22:50.000Z</time>
      </trkpt>
      <trkpt lat="48.39742" lon="2.51685">
        <ele>105.2</ele>
        <time>2012-12-27T10:22:51.000Z</time>
      </trkpt>
      <trkpt lat="48.39741" lon="2.51653">
        <ele>103.2</ele>
        <time>2012-12-27T10:22:55.000Z</time>
      </trkpt>
      <trkpt lat="48.39736" lon="2.51608">
        <ele>102</ele>
        <time>2012-12-27T10:23:01.000Z</time>
      </trkpt>
      <trkpt lat="48.39732" lon="2.51595">
        <ele>101.2</ele>
        <time>2012-12-27T10:23:03.000Z</time>
      </trkpt>
      <trkpt lat="48.39732" lon="2.51588">
        <ele>100.8</ele>
        <time>2012-12-27T10:23:04.000Z</time>
      </trkpt>
      <trkpt lat="48.39734" lon="2.51583">
        <ele>100.4</ele>
        <time>2012-12-27T10:23:05.000Z</time>
      </trkpt>
      <trkpt lat="48.39736" lon="2.51578">
        <ele>99.8</ele>
        <time>2012-12-27T10:23:06.000Z</time>
      </trkpt>
      <trkpt lat="48.39739" lon="2.51574">
        <ele>99.4</ele>
        <time>2012-12-27T10:23:07.000Z</time>
      </trkpt>
      <trkpt lat="48.3974" lon="2.51566">
        <ele>99</ele>
        <time>2012-12-27T10:23:08.000Z</time>
      </trkpt>
      <trkpt lat="48.39742" lon="2.51558">
        <ele>98.6</ele>
        <time>2012-12-27T10:23:09.000Z</time>
      </trkpt>
      <trkpt lat="48.39749" lon="2.51539">
        <ele>97.8</ele>
        <time>2012-12-27T10:23:12.000Z</time>
      </trkpt>
      <trkpt lat="48.39748" lon="2.51533">
        <ele>97.4</ele>
        <time>2012-12-27T10:23:13.000Z</time>
      </trkpt>
      <trkpt lat="48.39747" lon="2.51528">
        <ele>96.4</ele>
        <time>2012-12-27T10:23:14.000Z</time>
      </trkpt>
      <trkpt lat="48.39743" lon="2.51503">
        <ele>96</ele>
        <time>2012-12-27T10:23:19.000Z</time>
      </trkpt>
      <trkpt lat="48.39741" lon="2.51498">
        <ele>95.6</ele>
        <time>2012-12-27T10:23:20.000Z</time>
      </trkpt>
      <trkpt lat="48.39739" lon="2.51493">
        <ele>95.2</ele>
        <time>2012-12-27T10:23:21.000Z</time>
      </trkpt>
      <trkpt lat="48.39737" lon="2.51488">
        <ele>94.8</ele>
        <time>2012-12-27T10:23:22.000Z</time>
      </trkpt>
      <trkpt lat="48.39736" lon="2.5148">
        <ele>94.4</ele>
        <time>2012-12-27T10:23:23.000Z</time>
      </trkpt>
      <trkpt lat="48.39725" lon="2.51461">
        <ele>94</ele>
        <time>2012-12-27T10:23:27.000Z</time>
      </trkpt>
      <trkpt lat="48.39719" lon="2.51456">
        <ele>93.6</ele>
        <time>2012-12-27T10:23:29.000Z</time>
      </trkpt>
      <trkpt lat="48.39706" lon="2.51441">
        <ele>91.8</ele>
        <time>2012-12-27T10:23:33.000Z</time>
      </trkpt>
      <trkpt lat="48.397" lon="2.5143">
        <ele>91.8</ele>
        <time>2012-12-27T10:23:35.000Z</time>
      </trkpt>
      <trkpt lat="48.39697" lon="2.51426">
        <ele>91.8</ele>
        <time>2012-12-27T10:23:36.000Z</time>
      </trkpt>
      <trkpt lat="48.39689" lon="2.5141">
        <ele>91.8</ele>
        <time>2012-12-27T10:23:39.000Z</time>
      </trkpt>
      <trkpt lat="48.39683" lon="2.51402">
        <ele>91.8</ele>
        <time>2012-12-27T10:23:41.000Z</time>
      </trkpt>
      <trkpt lat="48.39677" lon="2.51396">
        <ele>91.8</ele>
        <time>2012-12-27T10:23:43.000Z</time>
      </trkpt>
      <trkpt lat="48.39675" lon="2.51392">
        <ele>91.8</ele>
        <time>2012-12-27T10:23:44.000Z</time>
      </trkpt>
      <trkpt lat="48.39668" lon="2.51388">
        <ele>91.8</ele>
        <time>2012-12-27T10:23:46.000Z</time>
      </trkpt>
      <trkpt lat="48.39662" lon="2.51389">
        <ele>91.4</ele>
        <time>2012-12-27T10:23:48.000Z</time>
      </trkpt>
      <trkpt lat="48.39658" lon="2.5139">
        <ele>91</ele>
        <time>2012-12-27T10:23:49.000Z</time>
      </trkpt>
      <trkpt lat="48.39648" lon="2.51398">
        <ele>89.8</ele>
        <time>2012-12-27T10:23:52.000Z</time>
      </trkpt>
      <trkpt lat="48.39631" lon="2.51412">
        <ele>89.8</ele>
        <time>2012-12-27T10:23:57.000Z</time>
      </trkpt>
      <trkpt lat="48.39617" lon="2.51429">
        <ele>89.8</ele>
        <time>2012-12-27T10:24:02.000Z</time>
      </trkpt>
      <trkpt lat="48.3961" lon="2.51435">
        <ele>89.8</ele>
        <time>2012-12-27T10:24:04.000Z</time>
      </trkpt>
      <trkpt lat="48.39603" lon="2.51431">
        <ele>89.8</ele>
        <time>2012-12-27T10:24:06.000Z</time>
      </trkpt>
      <trkpt lat="48.39596" lon="2.51425">
        <ele>89.8</ele>
        <time>2012-12-27T10:24:08.000Z</time>
      </trkpt>
      <trkpt lat="48.39592" lon="2.51423">
        <ele>89.8</ele>
        <time>2012-12-27T10:24:09.000Z</time>
      </trkpt>
      <trkpt lat="48.39583" lon="2.51421">
        <ele>89.8</ele>
        <time>2012-12-27T10:24:11.000Z</time>
      </trkpt>
      <trkpt lat="48.39569" lon="2.51427">
        <ele>89.8</ele>
        <time>2012-12-27T10:24:15.000Z</time>
      </trkpt>
      <trkpt lat="48.39566" lon="2.51429">
        <ele>90.2</ele>
        <time>2012-12-27T10:24:16.000Z</time>
      </trkpt>
      <trkpt lat="48.39563" lon="2.5143">
        <ele>90.6</ele>
        <time>2012-12-27T10:24:17.000Z</time>
      </trkpt>
      <trkpt lat="48.3956" lon="2.51431">
        <ele>91</ele>
        <time>2012-12-27T10:24:18.000Z</time>
      </trkpt>
      <trkpt lat="48.39557" lon="2.51432">
        <ele>91.4</ele>
        <time>2012-12-27T10:24:19.000Z</time>
      </trkpt>
      <trkpt lat="48.39554" lon="2.51433">
        <ele>91.8</ele>
        <time>2012-12-27T10:24:20.000Z</time>
      </trkpt>
      <trkpt lat="48.39552" lon="2.51434">
        <ele>91.8</ele>
        <time>2012-12-27T10:24:21.000Z</time>
      </trkpt>
      <trkpt lat="48.39549" lon="2.51433">
        <ele>92.4</ele>
        <time>2012-12-27T10:24:23.000Z</time>
      </trkpt>
      <trkpt lat="48.39546" lon="2.51432">
        <ele>92.8</ele>
        <time>2012-12-27T10:24:24.000Z</time>
      </trkpt>
      <trkpt lat="48.39544" lon="2.51431">
        <ele>93.2</ele>
        <time>2012-12-27T10:24:25.000Z</time>
      </trkpt>
      <trkpt lat="48.39542" lon="2.5143">
        <ele>93.6</ele>
        <time>2012-12-27T10:24:26.000Z</time>
      </trkpt>
      <trkpt lat="48.3954" lon="2.51427">
        <ele>94</ele>
        <time>2012-12-27T10:24:27.000Z</time>
      </trkpt>
      <trkpt lat="48.39536" lon="2.51425">
        <ele>94.6</ele>
        <time>2012-12-27T10:24:29.000Z</time>
      </trkpt>
      <trkpt lat="48.39531" lon="2.51424">
        <ele>95.4</ele>
        <time>2012-12-27T10:24:31.000Z</time>
      </trkpt>
      <trkpt lat="48.39526" lon="2.51425">
        <ele>96.2</ele>
        <time>2012-12-27T10:24:33.000Z</time>
      </trkpt>
      <trkpt lat="48.39523" lon="2.51422">
        <ele>96.2</ele>
        <time>2012-12-27T10:24:35.000Z</time>
      </trkpt>
      <trkpt lat="48.3952" lon="2.5142">
        <ele>97.2</ele>
        <time>2012-12-27T10:24:37.000Z</time>
      </trkpt>
      <trkpt lat="48.39517" lon="2.5142">
        <ele>97.6</ele>
        <time>2012-12-27T10:24:38.000Z</time>
      </trkpt>
      <trkpt lat="48.39515" lon="2.51421">
        <ele>98</ele>
        <time>2012-12-27T10:24:39.000Z</time>
      </trkpt>
      <trkpt lat="48.39503" lon="2.51421">
        <ele>98.8</ele>
        <time>2012-12-27T10:24:45.000Z</time>
      </trkpt>
      <trkpt lat="48.39501" lon="2.5142">
        <ele>99.2</ele>
        <time>2012-12-27T10:24:46.000Z</time>
      </trkpt>
      <trkpt lat="48.395" lon="2.51419">
        <ele>99.6</ele>
        <time>2012-12-27T10:24:47.000Z</time>
      </trkpt>
      <trkpt lat="48.39499" lon="2.51418">
        <ele>100</ele>
        <time>2012-12-27T10:24:48.000Z</time>
      </trkpt>
      <trkpt lat="48.39498" lon="2.51417">
        <ele>100.4</ele>
        <time>2012-12-27T10:24:49.000Z</time>
      </trkpt>
      <trkpt lat="48.39494" lon="2.51417">
        <ele>100.4</ele>
        <time>2012-12-27T10:24:51.000Z</time>
      </trkpt>
      <trkpt lat="48.39487" lon="2.51415">
        <ele>100.4</ele>
        <time>2012-12-27T10:24:53.000Z</time>
      </trkpt>
      <trkpt lat="48.39475" lon="2.51403">
        <ele>100</ele>
        <time>2012-12-27T10:24:57.000Z</time>
      </trkpt>
      <trkpt lat="48.39472" lon="2.51401">
        <ele>99.4</ele>
        <time>2012-12-27T10:24:58.000Z</time>
      </trkpt>
      <trkpt lat="48.39456" lon="2.51396">
        <ele>98</ele>
        <time>2012-12-27T10:25:01.000Z</time>
      </trkpt>
      <trkpt lat="48.39442" lon="2.5139">
        <ele>97.4</ele>
        <time>2012-12-27T10:25:04.000Z</time>
      </trkpt>
      <trkpt lat="48.39436" lon="2.51387">
        <ele>97</ele>
        <time>2012-12-27T10:25:05.000Z</time>
      </trkpt>
      <trkpt lat="48.39426" lon="2.51379">
        <ele>96.2</ele>
        <time>2012-12-27T10:25:07.000Z</time>
      </trkpt>
      <trkpt lat="48.39421" lon="2.51377">
        <ele>95.6</ele>
        <time>2012-12-27T10:25:08.000Z</time>
      </trkpt>
      <trkpt lat="48.39395" lon="2.51372">
        <ele>95.6</ele>
        <time>2012-12-27T10:25:13.000Z</time>
      </trkpt>
      <trkpt lat="48.39387" lon="2.51375">
        <ele>94.8</ele>
        <time>2012-12-27T10:25:15.000Z</time>
      </trkpt>
      <trkpt lat="48.39382" lon="2.51376">
        <ele>94.4</ele>
        <time>2012-12-27T10:25:16.000Z</time>
      </trkpt>
      <trkpt lat="48.39379" lon="2.51373">
        <ele>93.6</ele>
        <time>2012-12-27T10:25:17.000Z</time>
      </trkpt>
      <trkpt lat="48.39368" lon="2.51367">
        <ele>93.6</ele>
        <time>2012-12-27T10:25:21.000Z</time>
      </trkpt>
      <trkpt lat="48.39365" lon="2.51371">
        <ele>93.6</ele>
        <time>2012-12-27T10:25:22.000Z</time>
      </trkpt>
      <trkpt lat="48.39362" lon="2.51373">
        <ele>93.2</ele>
        <time>2012-12-27T10:25:23.000Z</time>
      </trkpt>
      <trkpt lat="48.39356" lon="2.5137">
        <ele>92.2</ele>
        <time>2012-12-27T10:25:25.000Z</time>
      </trkpt>
      <trkpt lat="48.39355" lon="2.51371">
        <ele>91.8</ele>
        <time>2012-12-27T10:25:26.000Z</time>
      </trkpt>
      <trkpt lat="48.39354" lon="2.51374">
        <ele>91.4</ele>
        <time>2012-12-27T10:25:27.000Z</time>
      </trkpt>
      <trkpt lat="48.39351" lon="2.5138">
        <ele>91.4</ele>
        <time>2012-12-27T10:25:29.000Z</time>
      </trkpt>
      <trkpt lat="48.39349" lon="2.51382">
        <ele>90.8</ele>
        <time>2012-12-27T10:25:30.000Z</time>
      </trkpt>
      <trkpt lat="48.39347" lon="2.51382">
        <ele>90.4</ele>
        <time>2012-12-27T10:25:31.000Z</time>
      </trkpt>
      <trkpt lat="48.39345" lon="2.51384">
        <ele>90</ele>
        <time>2012-12-27T10:25:32.000Z</time>
      </trkpt>
      <trkpt lat="48.39342" lon="2.51384">
        <ele>89.4</ele>
        <time>2012-12-27T10:25:33.000Z</time>
      </trkpt>
      <trkpt lat="48.39339" lon="2.51385">
        <ele>89</ele>
        <time>2012-12-27T10:25:34.000Z</time>
      </trkpt>
      <trkpt lat="48.39337" lon="2.51387">
        <ele>89</ele>
        <time>2012-12-27T10:25:35.000Z</time>
      </trkpt>
      <trkpt lat="48.39333" lon="2.51392">
        <ele>89</ele>
        <time>2012-12-27T10:25:37.000Z</time>
      </trkpt>
      <trkpt lat="48.39318" lon="2.51407">
        <ele>88</ele>
        <time>2012-12-27T10:25:42.000Z</time>
      </trkpt>
      <trkpt lat="48.39316" lon="2.51411">
        <ele>87.6</ele>
        <time>2012-12-27T10:25:43.000Z</time>
      </trkpt>
      <trkpt lat="48.39282" lon="2.51491">
        <ele>86.8</ele>
        <time>2012-12-27T10:26:01.000Z</time>
      </trkpt>
      <trkpt lat="48.39271" lon="2.51488">
        <ele>86.8</ele>
        <time>2012-12-27T10:26:05.000Z</time>
      </trkpt>
      <trkpt lat="48.39255" lon="2.51473">
        <ele>86.8</ele>
        <time>2012-12-27T10:26:11.000Z</time>
      </trkpt>
      <trkpt lat="48.39237" lon="2.51458">
        <ele>86.8</ele>
        <time>2012-12-27T10:26:17.000Z</time>
      </trkpt>
      <trkpt lat="48.39222" lon="2.51429">
        <ele>86.8</ele>
        <time>2012-12-27T10:26:23.000Z</time>
      </trkpt>
      <trkpt lat="48.39178" lon="2.51374">
        <ele>86.8</ele>
        <time>2012-12-27T10:26:40.000Z</time>
      </trkpt>
      <trkpt lat="48.39162" lon="2.51363">
        <ele>86.8</ele>
        <time>2012-12-27T10:26:44.000Z</time>
      </trkpt>
      <trkpt lat="48.39156" lon="2.51365">
        <ele>86.8</ele>
        <time>2012-12-27T10:26:46.000Z</time>
      </trkpt>
      <trkpt lat="48.39018" lon="2.51575">
        <ele>88.8</ele>
        <time>2012-12-27T10:27:35.000Z</time>
      </trkpt>
      <trkpt lat="48.39015" lon="2.51579">
        <ele>88.8</ele>
        <time>2012-12-27T10:27:36.000Z</time>
      </trkpt>
      <trkpt lat="48.38951" lon="2.51671">
        <ele>88.8</ele>
        <time>2012-12-27T10:27:56.000Z</time>
      </trkpt>
      <trkpt lat="48.38949" lon="2.51676">
        <ele>88.8</ele>
        <time>2012-12-27T10:27:57.000Z</time>
      </trkpt>
      <trkpt lat="48.38917" lon="2.51721">
        <ele>88.8</ele>
        <time>2012-12-27T10:28:09.000Z</time>
      </trkpt>
      <trkpt lat="48.38904" lon="2.51725">
        <ele>88.8</ele>
        <time>2012-12-27T10:28:14.000Z</time>
      </trkpt>
      <trkpt lat="48.38886" lon="2.51705">
        <ele>88.8</ele>
        <time>2012-12-27T10:28:21.000Z</time>
      </trkpt>
      <trkpt lat="48.3888" lon="2.51704">
        <ele>88.8</ele>
        <time>2012-12-27T10:28:23.000Z</time>
      </trkpt>
      <trkpt lat="48.38867" lon="2.51708">
        <ele>88.8</ele>
        <time>2012-12-27T10:28:27.000Z</time>
      </trkpt>
      <trkpt lat="48.38863" lon="2.51711">
        <ele>88.8</ele>
        <time>2012-12-27T10:28:28.000Z</time>
      </trkpt>
      <trkpt lat="48.3886" lon="2.51714">
        <ele>88.8</ele>
        <time>2012-12-27T10:28:29.000Z</time>
      </trkpt>
      <trkpt lat="48.3885" lon="2.51729">
        <ele>88.8</ele>
        <time>2012-12-27T10:28:33.000Z</time>
      </trkpt>
      <trkpt lat="48.38831" lon="2.51785">
        <ele>88.8</ele>
        <time>2012-12-27T10:28:45.000Z</time>
      </trkpt>
      <trkpt lat="48.38816" lon="2.51871">
        <ele>88.8</ele>
        <time>2012-12-27T10:29:02.000Z</time>
      </trkpt>
      <trkpt lat="48.38812" lon="2.51881">
        <ele>88.8</ele>
        <time>2012-12-27T10:29:05.000Z</time>
      </trkpt>
      <trkpt lat="48.3881" lon="2.51888">
        <ele>88.8</ele>
        <time>2012-12-27T10:29:07.000Z</time>
      </trkpt>
      <trkpt lat="48.38811" lon="2.51913">
        <ele>88.8</ele>
        <time>2012-12-27T10:29:13.000Z</time>
      </trkpt>
      <trkpt lat="48.38812" lon="2.51915">
        <ele>88.8</ele>
        <time>2012-12-27T10:29:14.000Z</time>
      </trkpt>
      <trkpt lat="48.38815" lon="2.51919">
        <ele>88.8</ele>
        <time>2012-12-27T10:29:16.000Z</time>
      </trkpt>
      <trkpt lat="48.38816" lon="2.51919">
        <ele>88.8</ele>
        <time>2012-12-27T10:29:18.000Z</time>
      </trkpt>
      <trkpt lat="48.38817" lon="2.5192">
        <ele>88.8</ele>
        <time>2012-12-27T10:29:21.000Z</time>
      </trkpt>
    </trkseg>
  </trk>
</gpx>